Illinois River (Oklahoma), Watts (07195500)

StateOklahomaLatestLow (568 cfs)
RiverIllinois RiverRatingObservedEstimated
Updated2026-05-10 17:30 (58 minutes ago)Flood - The river is flooding. Obstacles can be treacherous or deadly. The river should be avoided at this stage for casual trips and definitely for the inexperienced. Trips should be attempted only with protective gear and equipment.Flood(none)2413
Discharge568 cfs (median: 628 cfs)High - The river is high and potentially dangerous, especially for the young and / or inexperienced. Normal stream obstacles are sometimes difficult to navigate. Extended distances can be attempted, but canoe travel may not be advisable.High(none)1205
Height3.23 feetGood - Conditions are ideal for a canoe or kayak. Boats typically will drag on fewer than one-quarter of riffles, if at all, and portages are unnecessary or rare. Normal float lengths can be attempted without a problem.Good(none)622
TrendSteady (falling over 24 hours)Low - River is low but can still be floated. Some riffles are okay but most come with significant dragging and might need a portage. Float lengths should be reduced to accommodate low flow, dragging, and portages.Low(none)399
USGSExternal icon USGS Site (External icon Duck Duck Go Maps)Poor - River is too low to float comfortably. Most or all riffles will drag or must be portaged and some obstacles (such as slick shelf rock) cause undue problems. Avoid the river at this stage for casual paddling trips.Poor(none)189

Trending Data

Plot Image

Trips for Illinois River (Oklahoma), Watts (07195500)

DateStartEndDistanceConditionDischargeHeightFishingDetails

A total of 0 rows are displayed.

Condition Descriptions

Fishing Conditions

Fish Species

Notes

Classic Trip List

The classic River Trips application is still available for use. It is updated with the new system using a data retrofit. It is no longer maintained. The original River Trips application is no longer updated (as of 1 Dec 2016) but can be checked for errors or for the condition of the data before it was converted to the new system.

Gauge Data Table

ObservationHeightDischargeMaximum
Discharge
Minimum
Discharge
Mean
Discharge
P05P10P20P25P50
(Median)
P75P80P90P95
2026-05-10 17:30 3.23 568 13700 (1993) 144 (1964) 1220 164 187 325 403 628 1120 1300 2550 3400
2026-05-10 16:30 3.23 568 13700 (1993) 144 (1964) 1220 164 187 325 403 628 1120 1300 2550 3400
2026-05-10 15:30 3.24 572 13700 (1993) 144 (1964) 1220 164 187 325 403 628 1120 1300 2550 3400
2026-05-10 14:30 3.24 572 13700 (1993) 144 (1964) 1220 164 187 325 403 628 1120 1300 2550 3400
2026-05-10 13:30 3.24 572 13700 (1993) 144 (1964) 1220 164 187 325 403 628 1120 1300 2550 3400
2026-05-10 12:30 3.25 576 13700 (1993) 144 (1964) 1220 164 187 325 403 628 1120 1300 2550 3400
2026-05-10 11:30 3.26 580 13700 (1993) 144 (1964) 1220 164 187 325 403 628 1120 1300 2550 3400
2026-05-10 10:30 3.27 585 13700 (1993) 144 (1964) 1220 164 187 325 403 628 1120 1300 2550 3400
2026-05-10 09:30 3.27 585 13700 (1993) 144 (1964) 1220 164 187 325 403 628 1120 1300 2550 3400
2026-05-10 08:30 3.26 580 13700 (1993) 144 (1964) 1220 164 187 325 403 628 1120 1300 2550 3400
2026-05-10 07:30 3.26 580 13700 (1993) 144 (1964) 1220 164 187 325 403 628 1120 1300 2550 3400
2026-05-10 06:30 3.27 585 13700 (1993) 144 (1964) 1220 164 187 325 403 628 1120 1300 2550 3400
2026-05-10 05:30 3.27 585 13700 (1993) 144 (1964) 1220 164 187 325 403 628 1120 1300 2550 3400
2026-05-10 04:30 3.27 585 13700 (1993) 144 (1964) 1220 164 187 325 403 628 1120 1300 2550 3400
2026-05-10 03:30 3.27 585 13700 (1993) 144 (1964) 1220 164 187 325 403 628 1120 1300 2550 3400
2026-05-10 02:30 3.27 585 13700 (1993) 144 (1964) 1220 164 187 325 403 628 1120 1300 2550 3400
2026-05-10 01:30 3.28 589 13700 (1993) 144 (1964) 1220 164 187 325 403 628 1120 1300 2550 3400
2026-05-10 00:30 3.28 589 13700 (1993) 144 (1964) 1220 164 187 325 403 628 1120 1300 2550 3400
2026-05-09 23:30 3.28 589 13700 (1993) 144 (1964) 1220 164 187 325 403 628 1120 1300 2550 3400
2026-05-09 22:30 3.29 593 9850 (1995) 117 (1964) 1200 168 195 286 368 601 1200 1600 2860 5710
2026-05-09 21:30 3.29 593 9850 (1995) 117 (1964) 1200 168 195 286 368 601 1200 1600 2860 5710
2026-05-09 20:30 3.29 593 9850 (1995) 117 (1964) 1200 168 195 286 368 601 1200 1600 2860 5710
2026-05-09 19:30 3.29 593 9850 (1995) 117 (1964) 1200 168 195 286 368 601 1200 1600 2860 5710
2026-05-09 18:30 3.30 597 9850 (1995) 117 (1964) 1200 168 195 286 368 601 1200 1600 2860 5710
2026-05-09 17:30 3.30 597 9850 (1995) 117 (1964) 1200 168 195 286 368 601 1200 1600 2860 5710
2026-05-09 16:30 3.30 597 9850 (1995) 117 (1964) 1200 168 195 286 368 601 1200 1600 2860 5710
2026-05-09 15:30 3.31 601 9850 (1995) 117 (1964) 1200 168 195 286 368 601 1200 1600 2860 5710
2026-05-09 14:30 3.32 606 9850 (1995) 117 (1964) 1200 168 195 286 368 601 1200 1600 2860 5710
2026-05-09 13:30 3.31 601 9850 (1995) 117 (1964) 1200 168 195 286 368 601 1200 1600 2860 5710
2026-05-09 12:30 3.34 614 9850 (1995) 117 (1964) 1200 168 195 286 368 601 1200 1600 2860 5710
2026-05-09 11:30 3.35 619 9850 (1995) 117 (1964) 1200 168 195 286 368 601 1200 1600 2860 5710
2026-05-09 10:30 3.35 619 9850 (1995) 117 (1964) 1200 168 195 286 368 601 1200 1600 2860 5710
2026-05-09 09:30 3.36 623 9850 (1995) 117 (1964) 1200 168 195 286 368 601 1200 1600 2860 5710
2026-05-09 08:30 3.36 623 9850 (1995) 117 (1964) 1200 168 195 286 368 601 1200 1600 2860 5710
2026-05-09 07:30 3.36 623 9850 (1995) 117 (1964) 1200 168 195 286 368 601 1200 1600 2860 5710
2026-05-09 06:30 3.35 619 9850 (1995) 117 (1964) 1200 168 195 286 368 601 1200 1600 2860 5710
2026-05-09 05:30 3.35 619 9850 (1995) 117 (1964) 1200 168 195 286 368 601 1200 1600 2860 5710
2026-05-09 04:30 3.36 623 9850 (1995) 117 (1964) 1200 168 195 286 368 601 1200 1600 2860 5710
2026-05-09 03:30 3.36 623 9850 (1995) 117 (1964) 1200 168 195 286 368 601 1200 1600 2860 5710
2026-05-09 02:30 3.36 623 9850 (1995) 117 (1964) 1200 168 195 286 368 601 1200 1600 2860 5710
2026-05-09 01:30 3.36 623 9850 (1995) 117 (1964) 1200 168 195 286 368 601 1200 1600 2860 5710
2026-05-09 00:30 3.37 627 9850 (1995) 117 (1964) 1200 168 195 286 368 601 1200 1600 2860 5710
2026-05-08 23:30 3.38 632 9850 (1995) 117 (1964) 1200 168 195 286 368 601 1200 1600 2860 5710
2026-05-08 22:30 3.39 636 11300 (1961) 126 (1964) 1300 158 201 296 365 645 1340 1540 2670 6250
2026-05-08 21:30 3.40 640 11300 (1961) 126 (1964) 1300 158 201 296 365 645 1340 1540 2670 6250
2026-05-08 20:30 3.37 627 11300 (1961) 126 (1964) 1300 158 201 296 365 645 1340 1540 2670 6250
2026-05-08 19:30 3.38 632 11300 (1961) 126 (1964) 1300 158 201 296 365 645 1340 1540 2670 6250
2026-05-08 18:30 3.39 636 11300 (1961) 126 (1964) 1300 158 201 296 365 645 1340 1540 2670 6250
2026-05-08 17:30 3.40 640 11300 (1961) 126 (1964) 1300 158 201 296 365 645 1340 1540 2670 6250
2026-05-08 16:30 3.40 640 11300 (1961) 126 (1964) 1300 158 201 296 365 645 1340 1540 2670 6250
2026-05-08 15:30 3.41 645 11300 (1961) 126 (1964) 1300 158 201 296 365 645 1340 1540 2670 6250
2026-05-08 14:30 3.42 649 11300 (1961) 126 (1964) 1300 158 201 296 365 645 1340 1540 2670 6250
2026-05-08 13:30 3.43 654 11300 (1961) 126 (1964) 1300 158 201 296 365 645 1340 1540 2670 6250
2026-05-08 12:30 3.44 658 11300 (1961) 126 (1964) 1300 158 201 296 365 645 1340 1540 2670 6250
2026-05-08 11:30 3.42 649 11300 (1961) 126 (1964) 1300 158 201 296 365 645 1340 1540 2670 6250
2026-05-08 10:30 3.45 663 11300 (1961) 126 (1964) 1300 158 201 296 365 645 1340 1540 2670 6250
2026-05-08 09:30 3.46 667 11300 (1961) 126 (1964) 1300 158 201 296 365 645 1340 1540 2670 6250
2026-05-08 08:30 3.47 672 11300 (1961) 126 (1964) 1300 158 201 296 365 645 1340 1540 2670 6250
2026-05-08 07:30 3.47 672 11300 (1961) 126 (1964) 1300 158 201 296 365 645 1340 1540 2670 6250
2026-05-08 06:30 3.48 676 11300 (1961) 126 (1964) 1300 158 201 296 365 645 1340 1540 2670 6250
2026-05-08 05:30 3.48 676 11300 (1961) 126 (1964) 1300 158 201 296 365 645 1340 1540 2670 6250
2026-05-08 04:30 3.49 681 11300 (1961) 126 (1964) 1300 158 201 296 365 645 1340 1540 2670 6250
2026-05-08 03:30 3.49 681 11300 (1961) 126 (1964) 1300 158 201 296 365 645 1340 1540 2670 6250
2026-05-08 02:30 3.50 685 11300 (1961) 126 (1964) 1300 158 201 296 365 645 1340 1540 2670 6250
2026-05-08 01:30 3.51 690 11300 (1961) 126 (1964) 1300 158 201 296 365 645 1340 1540 2670 6250
2026-05-08 00:30 3.51 690 11300 (1961) 126 (1964) 1300 158 201 296 365 645 1340 1540 2670 6250
2026-05-07 23:30 3.52 695 11300 (1961) 126 (1964) 1300 158 201 296 365 645 1340 1540 2670 6250
2026-05-07 22:30 3.52 695 33400 (1961) 113 (1964) 1620 160 201 279 334 684 1520 1770 3440 5180
2026-05-07 21:30 3.53 699 33400 (1961) 113 (1964) 1620 160 201 279 334 684 1520 1770 3440 5180
2026-05-07 20:30 3.54 704 33400 (1961) 113 (1964) 1620 160 201 279 334 684 1520 1770 3440 5180
2026-05-07 19:30 3.54 704 33400 (1961) 113 (1964) 1620 160 201 279 334 684 1520 1770 3440 5180
2026-05-07 18:30 3.55 709 33400 (1961) 113 (1964) 1620 160 201 279 334 684 1520 1770 3440 5180
2026-05-07 17:30 3.56 713 33400 (1961) 113 (1964) 1620 160 201 279 334 684 1520 1770 3440 5180
2026-05-07 16:30 3.57 718 33400 (1961) 113 (1964) 1620 160 201 279 334 684 1520 1770 3440 5180
2026-05-07 15:30 3.57 718 33400 (1961) 113 (1964) 1620 160 201 279 334 684 1520 1770 3440 5180
2026-05-07 14:30 3.59 728 33400 (1961) 113 (1964) 1620 160 201 279 334 684 1520 1770 3440 5180
2026-05-07 13:30 3.61 737 33400 (1961) 113 (1964) 1620 160 201 279 334 684 1520 1770 3440 5180
2026-05-07 12:30 3.60 732 33400 (1961) 113 (1964) 1620 160 201 279 334 684 1520 1770 3440 5180
2026-05-07 11:30 3.63 747 33400 (1961) 113 (1964) 1620 160 201 279 334 684 1520 1770 3440 5180
2026-05-07 10:30 3.64 752 33400 (1961) 113 (1964) 1620 160 201 279 334 684 1520 1770 3440 5180
2026-05-07 09:30 3.66 761 33400 (1961) 113 (1964) 1620 160 201 279 334 684 1520 1770 3440 5180
2026-05-07 08:30 3.67 766 33400 (1961) 113 (1964) 1620 160 201 279 334 684 1520 1770 3440 5180
2026-05-07 07:30 3.68 771 33400 (1961) 113 (1964) 1620 160 201 279 334 684 1520 1770 3440 5180
2026-05-07 06:30 3.69 776 33400 (1961) 113 (1964) 1620 160 201 279 334 684 1520 1770 3440 5180
2026-05-07 05:30 3.70 781 33400 (1961) 113 (1964) 1620 160 201 279 334 684 1520 1770 3440 5180
2026-05-07 04:30 3.72 791 33400 (1961) 113 (1964) 1620 160 201 279 334 684 1520 1770 3440 5180
2026-05-07 03:30 3.73 796 33400 (1961) 113 (1964) 1620 160 201 279 334 684 1520 1770 3440 5180
2026-05-07 02:30 3.74 801 33400 (1961) 113 (1964) 1620 160 201 279 334 684 1520 1770 3440 5180
2026-05-07 01:30 3.75 806 33400 (1961) 113 (1964) 1620 160 201 279 334 684 1520 1770 3440 5180
2026-05-07 00:30 3.77 817 33400 (1961) 113 (1964) 1620 160 201 279 334 684 1520 1770 3440 5180
2026-05-06 23:30 3.78 822 33400 (1961) 113 (1964) 1620 160 201 279 334 684 1520 1770 3440 5180
2026-05-06 22:30 3.79 827 14600 (2022) 121 (1964) 1490 158 215 290 330 713 1270 1770 3250 7500
2026-05-06 21:30 3.81 837 14600 (2022) 121 (1964) 1490 158 215 290 330 713 1270 1770 3250 7500
2026-05-06 20:30 3.83 848 14600 (2022) 121 (1964) 1490 158 215 290 330 713 1270 1770 3250 7500
2026-05-06 19:30 3.85 858 14600 (2022) 121 (1964) 1490 158 215 290 330 713 1270 1770 3250 7500
2026-05-06 18:30 3.87 869 14600 (2022) 121 (1964) 1490 158 215 290 330 713 1270 1770 3250 7500
2026-05-06 17:30 3.89 879 14600 (2022) 121 (1964) 1490 158 215 290 330 713 1270 1770 3250 7500
2026-05-06 16:30 3.90 885 14600 (2022) 121 (1964) 1490 158 215 290 330 713 1270 1770 3250 7500
2026-05-06 15:30 3.91 890 14600 (2022) 121 (1964) 1490 158 215 290 330 713 1270 1770 3250 7500
2026-05-06 14:30 3.98 928 14600 (2022) 121 (1964) 1490 158 215 290 330 713 1270 1770 3250 7500
2026-05-06 13:30 3.59 728 14600 (2022) 121 (1964) 1490 158 215 290 330 713 1270 1770 3250 7500
2026-05-06 12:30 4.03 954 14600 (2022) 121 (1964) 1490 158 215 290 330 713 1270 1770 3250 7500
2026-05-06 11:30 4.11 991 14600 (2022) 121 (1964) 1490 158 215 290 330 713 1270 1770 3250 7500
2026-05-06 10:30 4.21 1040 14600 (2022) 121 (1964) 1490 158 215 290 330 713 1270 1770 3250 7500
2026-05-06 09:30 4.39 1130 14600 (2022) 121 (1964) 1490 158 215 290 330 713 1270 1770 3250 7500
2026-05-06 08:30 4.48 1180 14600 (2022) 121 (1964) 1490 158 215 290 330 713 1270 1770 3250 7500
2026-05-06 07:30 4.26 1060 14600 (2022) 121 (1964) 1490 158 215 290 330 713 1270 1770 3250 7500
2026-05-06 06:30 4.31 1090 14600 (2022) 121 (1964) 1490 158 215 290 330 713 1270 1770 3250 7500
2026-05-06 05:30 4.38 1130 14600 (2022) 121 (1964) 1490 158 215 290 330 713 1270 1770 3250 7500
2026-05-06 04:30 4.45 1160 14600 (2022) 121 (1964) 1490 158 215 290 330 713 1270 1770 3250 7500
2026-05-06 03:30 4.53 1210 14600 (2022) 121 (1964) 1490 158 215 290 330 713 1270 1770 3250 7500
2026-05-06 02:30 4.62 1250 14600 (2022) 121 (1964) 1490 158 215 290 330 713 1270 1770 3250 7500
2026-05-06 01:30 4.71 1300 14600 (2022) 121 (1964) 1490 158 215 290 330 713 1270 1770 3250 7500
2026-05-06 00:30 4.83 1370 14600 (2022) 121 (1964) 1490 158 215 290 330 713 1270 1770 3250 7500
2026-05-05 23:30 4.95 1440 14600 (2022) 121 (1964) 1490 158 215 290 330 713 1270 1770 3250 7500
2026-05-05 22:30 5.08 1520 52300 (2022) 128 (1981) 2090 167 210 284 337 690 1550 1770 3190 6980
2026-05-05 21:30 5.19 1590 52300 (2022) 128 (1981) 2090 167 210 284 337 690 1550 1770 3190 6980
2026-05-05 20:30 5.27 1650 52300 (2022) 128 (1981) 2090 167 210 284 337 690 1550 1770 3190 6980
2026-05-05 19:30 5.24 1630 52300 (2022) 128 (1981) 2090 167 210 284 337 690 1550 1770 3190 6980
2026-05-05 18:30 5.03 1490 52300 (2022) 128 (1981) 2090 167 210 284 337 690 1550 1770 3190 6980
2026-05-05 17:30 4.55 1220 52300 (2022) 128 (1981) 2090 167 210 284 337 690 1550 1770 3190 6980
2026-05-05 16:30 3.97 923 52300 (2022) 128 (1981) 2090 167 210 284 337 690 1550 1770 3190 6980
2026-05-05 15:30 3.70 781 52300 (2022) 128 (1981) 2090 167 210 284 337 690 1550 1770 3190 6980
2026-05-05 14:30 3.67 766 52300 (2022) 128 (1981) 2090 167 210 284 337 690 1550 1770 3190 6980
2026-05-05 13:30 3.68 771 52300 (2022) 128 (1981) 2090 167 210 284 337 690 1550 1770 3190 6980
2026-05-05 12:30 3.54 704 52300 (2022) 128 (1981) 2090 167 210 284 337 690 1550 1770 3190 6980
2026-05-05 11:30 3.19 552 52300 (2022) 128 (1981) 2090 167 210 284 337 690 1550 1770 3190 6980
2026-05-05 10:30 4.06 968 52300 (2022) 128 (1981) 2090 167 210 284 337 690 1550 1770 3190 6980
2026-05-05 09:30 3.21 560 52300 (2022) 128 (1981) 2090 167 210 284 337 690 1550 1770 3190 6980
2026-05-05 08:30 3.57 718 52300 (2022) 128 (1981) 2090 167 210 284 337 690 1550 1770 3190 6980
2026-05-05 07:30 3.57 718 52300 (2022) 128 (1981) 2090 167 210 284 337 690 1550 1770 3190 6980
2026-05-05 06:30 3.56 713 52300 (2022) 128 (1981) 2090 167 210 284 337 690 1550 1770 3190 6980
2026-05-05 05:30 3.56 713 52300 (2022) 128 (1981) 2090 167 210 284 337 690 1550 1770 3190 6980
2026-05-05 04:30 3.57 718 52300 (2022) 128 (1981) 2090 167 210 284 337 690 1550 1770 3190 6980
2026-05-05 03:30 3.58 723 52300 (2022) 128 (1981) 2090 167 210 284 337 690 1550 1770 3190 6980
2026-05-05 02:30 3.58 723 52300 (2022) 128 (1981) 2090 167 210 284 337 690 1550 1770 3190 6980
2026-05-05 01:30 3.57 718 52300 (2022) 128 (1981) 2090 167 210 284 337 690 1550 1770 3190 6980
2026-05-05 00:30 3.57 718 52300 (2022) 128 (1981) 2090 167 210 284 337 690 1550 1770 3190 6980
2026-05-04 23:30 3.57 718 52300 (2022) 128 (1981) 2090 167 210 284 337 690 1550 1770 3190 6980
2026-05-04 22:30 3.58 723 13400 (1990) 134 (1964) 1580 175 226 295 347 695 1640 2050 3900 6780
2026-05-04 21:30 3.59 728 13400 (1990) 134 (1964) 1580 175 226 295 347 695 1640 2050 3900 6780
2026-05-04 20:30 3.60 732 13400 (1990) 134 (1964) 1580 175 226 295 347 695 1640 2050 3900 6780
2026-05-04 19:30 3.60 732 13400 (1990) 134 (1964) 1580 175 226 295 347 695 1640 2050 3900 6780
2026-05-04 18:30 3.61 737 13400 (1990) 134 (1964) 1580 175 226 295 347 695 1640 2050 3900 6780
2026-05-04 17:30 3.68 771 13400 (1990) 134 (1964) 1580 175 226 295 347 695 1640 2050 3900 6780
2026-05-04 16:30 3.60 732 13400 (1990) 134 (1964) 1580 175 226 295 347 695 1640 2050 3900 6780
2026-05-04 15:30 3.49 681 13400 (1990) 134 (1964) 1580 175 226 295 347 695 1640 2050 3900 6780
2026-05-04 14:30 3.62 742 13400 (1990) 134 (1964) 1580 175 226 295 347 695 1640 2050 3900 6780
2026-05-04 13:30 3.66 761 13400 (1990) 134 (1964) 1580 175 226 295 347 695 1640 2050 3900 6780
2026-05-04 12:30 3.68 771 13400 (1990) 134 (1964) 1580 175 226 295 347 695 1640 2050 3900 6780
2026-05-04 11:30 3.74 801 13400 (1990) 134 (1964) 1580 175 226 295 347 695 1640 2050 3900 6780
2026-05-04 10:30 3.80 832 13400 (1990) 134 (1964) 1580 175 226 295 347 695 1640 2050 3900 6780
2026-05-04 09:30 3.44 658 13400 (1990) 134 (1964) 1580 175 226 295 347 695 1640 2050 3900 6780
2026-05-04 08:30 3.69 776 13400 (1990) 134 (1964) 1580 175 226 295 347 695 1640 2050 3900 6780
2026-05-04 07:30 3.70 781 13400 (1990) 134 (1964) 1580 175 226 295 347 695 1640 2050 3900 6780
2026-05-04 06:30 3.70 781 13400 (1990) 134 (1964) 1580 175 226 295 347 695 1640 2050 3900 6780
2026-05-04 05:30 3.71 786 13400 (1990) 134 (1964) 1580 175 226 295 347 695 1640 2050 3900 6780
2026-05-04 04:30 3.71 786 13400 (1990) 134 (1964) 1580 175 226 295 347 695 1640 2050 3900 6780
2026-05-04 03:30 3.71 786 13400 (1990) 134 (1964) 1580 175 226 295 347 695 1640 2050 3900 6780
2026-05-04 02:30 3.72 791 13400 (1990) 134 (1964) 1580 175 226 295 347 695 1640 2050 3900 6780
2026-05-04 01:30 3.72 791 13400 (1990) 134 (1964) 1580 175 226 295 347 695 1640 2050 3900 6780
2026-05-04 00:30 3.72 791 13400 (1990) 134 (1964) 1580 175 226 295 347 695 1640 2050 3900 6780
2026-05-03 23:30 3.73 796 13400 (1990) 134 (1964) 1580 175 226 295 347 695 1640 2050 3900 6780
2026-05-03 22:30 3.74 801 31800 (1990) 152 (1981) 1750 176 226 306 367 739 1570 2360 3620 6160
2026-05-03 21:30 3.75 806 31800 (1990) 152 (1981) 1750 176 226 306 367 739 1570 2360 3620 6160
2026-05-03 20:30 3.76 811 31800 (1990) 152 (1981) 1750 176 226 306 367 739 1570 2360 3620 6160
2026-05-03 19:30 3.78 822 31800 (1990) 152 (1981) 1750 176 226 306 367 739 1570 2360 3620 6160
2026-05-03 18:30 3.79 827 31800 (1990) 152 (1981) 1750 176 226 306 367 739 1570 2360 3620 6160
2026-05-03 17:30 3.80 832 31800 (1990) 152 (1981) 1750 176 226 306 367 739 1570 2360 3620 6160
2026-05-03 16:30 3.81 837 31800 (1990) 152 (1981) 1750 176 226 306 367 739 1570 2360 3620 6160
2026-05-03 15:30 3.82 842 31800 (1990) 152 (1981) 1750 176 226 306 367 739 1570 2360 3620 6160
2026-05-03 14:30 3.81 837 31800 (1990) 152 (1981) 1750 176 226 306 367 739 1570 2360 3620 6160
2026-05-03 13:30 3.85 858 31800 (1990) 152 (1981) 1750 176 226 306 367 739 1570 2360 3620 6160
2026-05-03 12:30 3.85 858 31800 (1990) 152 (1981) 1750 176 226 306 367 739 1570 2360 3620 6160
2026-05-03 11:30 3.87 869 31800 (1990) 152 (1981) 1750 176 226 306 367 739 1570 2360 3620 6160
2026-05-03 10:30 3.88 874 31800 (1990) 152 (1981) 1750 176 226 306 367 739 1570 2360 3620 6160
2026-05-03 09:30 3.89 879 31800 (1990) 152 (1981) 1750 176 226 306 367 739 1570 2360 3620 6160
2026-05-03 08:30 3.90 885 31800 (1990) 152 (1981) 1750 176 226 306 367 739 1570 2360 3620 6160
2026-05-03 07:30 3.91 890 31800 (1990) 152 (1981) 1750 176 226 306 367 739 1570 2360 3620 6160
2026-05-03 06:30 3.91 890 31800 (1990) 152 (1981) 1750 176 226 306 367 739 1570 2360 3620 6160
2026-05-03 05:30 3.91 890 31800 (1990) 152 (1981) 1750 176 226 306 367 739 1570 2360 3620 6160
2026-05-03 04:30 3.92 896 31800 (1990) 152 (1981) 1750 176 226 306 367 739 1570 2360 3620 6160
2026-05-03 03:30 3.93 901 31800 (1990) 152 (1981) 1750 176 226 306 367 739 1570 2360 3620 6160
2026-05-03 02:30 3.93 901 31800 (1990) 152 (1981) 1750 176 226 306 367 739 1570 2360 3620 6160
2026-05-03 01:30 3.94 907 31800 (1990) 152 (1981) 1750 176 226 306 367 739 1570 2360 3620 6160
2026-05-03 00:30 3.94 907 31800 (1990) 152 (1981) 1750 176 226 306 367 739 1570 2360 3620 6160
2026-05-02 23:30 3.96 917 31800 (1990) 152 (1981) 1750 176 226 306 367 739 1570 2360 3620 6160
2026-05-02 22:30 3.97 923 5970 (2011) 152 (1964) 1260 186 241 317 391 753 1540 1820 3740 4760
2026-05-02 21:30 3.98 928 5970 (2011) 152 (1964) 1260 186 241 317 391 753 1540 1820 3740 4760
2026-05-02 20:30 3.99 934 5970 (2011) 152 (1964) 1260 186 241 317 391 753 1540 1820 3740 4760
2026-05-02 19:30 4.00 940 5970 (2011) 152 (1964) 1260 186 241 317 391 753 1540 1820 3740 4760
2026-05-02 18:30 4.02 949 5970 (2011) 152 (1964) 1260 186 241 317 391 753 1540 1820 3740 4760
2026-05-02 17:30 4.03 954 5970 (2011) 152 (1964) 1260 186 241 317 391 753 1540 1820 3740 4760
2026-05-02 16:30 4.04 958 5970 (2011) 152 (1964) 1260 186 241 317 391 753 1540 1820 3740 4760
2026-05-02 15:30 4.04 958 5970 (2011) 152 (1964) 1260 186 241 317 391 753 1540 1820 3740 4760
2026-05-02 14:30 4.08 977 5970 (2011) 152 (1964) 1260 186 241 317 391 753 1540 1820 3740 4760
2026-05-02 13:30 4.08 977 5970 (2011) 152 (1964) 1260 186 241 317 391 753 1540 1820 3740 4760
2026-05-02 12:30 4.09 982 5970 (2011) 152 (1964) 1260 186 241 317 391 753 1540 1820 3740 4760
2026-05-02 11:30 4.13 1000 5970 (2011) 152 (1964) 1260 186 241 317 391 753 1540 1820 3740 4760
2026-05-02 10:30 4.17 1020 5970 (2011) 152 (1964) 1260 186 241 317 391 753 1540 1820 3740 4760
2026-05-02 09:30 4.14 1010 5970 (2011) 152 (1964) 1260 186 241 317 391 753 1540 1820 3740 4760
2026-05-02 08:30 4.18 1030 5970 (2011) 152 (1964) 1260 186 241 317 391 753 1540 1820 3740 4760
2026-05-02 07:30 4.19 1030 5970 (2011) 152 (1964) 1260 186 241 317 391 753 1540 1820 3740 4760
2026-05-02 06:30 4.21 1040 5970 (2011) 152 (1964) 1260 186 241 317 391 753 1540 1820 3740 4760
2026-05-02 05:30 4.22 1040 5970 (2011) 152 (1964) 1260 186 241 317 391 753 1540 1820 3740 4760
2026-05-02 04:30 4.23 1050 5970 (2011) 152 (1964) 1260 186 241 317 391 753 1540 1820 3740 4760
2026-05-02 03:30 4.24 1050 5970 (2011) 152 (1964) 1260 186 241 317 391 753 1540 1820 3740 4760
2026-05-02 02:30 4.25 1060 5970 (2011) 152 (1964) 1260 186 241 317 391 753 1540 1820 3740 4760
2026-05-02 01:30 4.26 1060 5970 (2011) 152 (1964) 1260 186 241 317 391 753 1540 1820 3740 4760
2026-05-02 00:30 4.27 1070 5970 (2011) 152 (1964) 1260 186 241 317 391 753 1540 1820 3740 4760
2026-05-01 23:30 4.28 1070 5970 (2011) 152 (1964) 1260 186 241 317 391 753 1540 1820 3740 4760
2026-05-01 22:30 4.29 1080 14100 (1970) 160 (1964) 1490 194 216 312 364 690 1510 1680 3490 6720
2026-05-01 21:30 4.31 1090 14100 (1970) 160 (1964) 1490 194 216 312 364 690 1510 1680 3490 6720
2026-05-01 20:30 4.33 1100 14100 (1970) 160 (1964) 1490 194 216 312 364 690 1510 1680 3490 6720
2026-05-01 19:30 4.34 1110 14100 (1970) 160 (1964) 1490 194 216 312 364 690 1510 1680 3490 6720
2026-05-01 18:30 4.35 1110 14100 (1970) 160 (1964) 1490 194 216 312 364 690 1510 1680 3490 6720
2026-05-01 17:30 4.39 1130 14100 (1970) 160 (1964) 1490 194 216 312 364 690 1510 1680 3490 6720
2026-05-01 16:30 4.41 1140 14100 (1970) 160 (1964) 1490 194 216 312 364 690 1510 1680 3490 6720
2026-05-01 15:30 4.42 1150 14100 (1970) 160 (1964) 1490 194 216 312 364 690 1510 1680 3490 6720
2026-05-01 14:30 4.46 1170 14100 (1970) 160 (1964) 1490 194 216 312 364 690 1510 1680 3490 6720
2026-05-01 13:30 4.47 1170 14100 (1970) 160 (1964) 1490 194 216 312 364 690 1510 1680 3490 6720
2026-05-01 12:30 4.45 1160 14100 (1970) 160 (1964) 1490 194 216 312 364 690 1510 1680 3490 6720
2026-05-01 11:30 4.51 1190 14100 (1970) 160 (1964) 1490 194 216 312 364 690 1510 1680 3490 6720
2026-05-01 10:30 4.53 1210 14100 (1970) 160 (1964) 1490 194 216 312 364 690 1510 1680 3490 6720
2026-05-01 09:30 4.47 1170 14100 (1970) 160 (1964) 1490 194 216 312 364 690 1510 1680 3490 6720
2026-05-01 08:30 4.58 1230 14100 (1970) 160 (1964) 1490 194 216 312 364 690 1510 1680 3490 6720
2026-05-01 07:30 4.60 1240 14100 (1970) 160 (1964) 1490 194 216 312 364 690 1510 1680 3490 6720
2026-05-01 06:30 4.62 1250 14100 (1970) 160 (1964) 1490 194 216 312 364 690 1510 1680 3490 6720
2026-05-01 05:30 4.64 1270 14100 (1970) 160 (1964) 1490 194 216 312 364 690 1510 1680 3490 6720
2026-05-01 04:30 4.66 1280 14100 (1970) 160 (1964) 1490 194 216 312 364 690 1510 1680 3490 6720
2026-05-01 03:30 4.69 1290 14100 (1970) 160 (1964) 1490 194 216 312 364 690 1510 1680 3490 6720
2026-05-01 02:30 4.71 1300 14100 (1970) 160 (1964) 1490 194 216 312 364 690 1510 1680 3490 6720
2026-05-01 01:30 4.73 1320 14100 (1970) 160 (1964) 1490 194 216 312 364 690 1510 1680 3490 6720
2026-05-01 00:30 4.75 1330 14100 (1970) 160 (1964) 1490 194 216 312 364 690 1510 1680 3490 6720
2026-04-30 23:30 4.78 1340 14100 (1970) 160 (1964) 1490 194 216 312 364 690 1510 1680 3490 6720
2026-04-30 22:30 4.84 1380 67300 (2017) 167 (1964) 1990 196 214 312 344 660 1530 1680 2310 3340
2026-04-30 21:30 4.92 1430 67300 (2017) 167 (1964) 1990 196 214 312 344 660 1530 1680 2310 3340
2026-04-30 20:30 4.83 1370 67300 (2017) 167 (1964) 1990 196 214 312 344 660 1530 1680 2310 3340
2026-04-30 19:30 4.86 1390 67300 (2017) 167 (1964) 1990 196 214 312 344 660 1530 1680 2310 3340
2026-04-30 18:30 4.88 1400 67300 (2017) 167 (1964) 1990 196 214 312 344 660 1530 1680 2310 3340
2026-04-30 17:30 4.90 1410 67300 (2017) 167 (1964) 1990 196 214 312 344 660 1530 1680 2310 3340
2026-04-30 16:30 4.95 1440 67300 (2017) 167 (1964) 1990 196 214 312 344 660 1530 1680 2310 3340
2026-04-30 15:30 4.98 1460 67300 (2017) 167 (1964) 1990 196 214 312 344 660 1530 1680 2310 3340
2026-04-30 14:30 5.02 1490 67300 (2017) 167 (1964) 1990 196 214 312 344 660 1530 1680 2310 3340
2026-04-30 13:30 5.06 1510 67300 (2017) 167 (1964) 1990 196 214 312 344 660 1530 1680 2310 3340
2026-04-30 12:30 5.09 1530 67300 (2017) 167 (1964) 1990 196 214 312 344 660 1530 1680 2310 3340
2026-04-30 11:30 5.12 1550 67300 (2017) 167 (1964) 1990 196 214 312 344 660 1530 1680 2310 3340
2026-04-30 10:30 5.13 1560 67300 (2017) 167 (1964) 1990 196 214 312 344 660 1530 1680 2310 3340
2026-04-30 09:30 5.01 1480 67300 (2017) 167 (1964) 1990 196 214 312 344 660 1530 1680 2310 3340
2026-04-30 08:30 5.15 1570 67300 (2017) 167 (1964) 1990 196 214 312 344 660 1530 1680 2310 3340
2026-04-30 07:30 5.33 1680 67300 (2017) 167 (1964) 1990 196 214 312 344 660 1530 1680 2310 3340
2026-04-30 06:30 5.38 1720 67300 (2017) 167 (1964) 1990 196 214 312 344 660 1530 1680 2310 3340
2026-04-30 05:30 5.43 1750 67300 (2017) 167 (1964) 1990 196 214 312 344 660 1530 1680 2310 3340
2026-04-30 04:30 5.48 1790 67300 (2017) 167 (1964) 1990 196 214 312 344 660 1530 1680 2310 3340
2026-04-30 03:30 5.54 1830 67300 (2017) 167 (1964) 1990 196 214 312 344 660 1530 1680 2310 3340
2026-04-30 02:30 5.60 1870 67300 (2017) 167 (1964) 1990 196 214 312 344 660 1530 1680 2310 3340
2026-04-30 01:30 5.67 1920 67300 (2017) 167 (1964) 1990 196 214 312 344 660 1530 1680 2310 3340
2026-04-30 00:30 5.73 1960 67300 (2017) 167 (1964) 1990 196 214 312 344 660 1530 1680 2310 3340
2026-04-29 23:30 5.80 2010 67300 (2017) 167 (1964) 1990 196 214 312 344 660 1530 1680 2310 3340
2026-04-29 22:30 5.87 2060 23200 (2021) 173 (1964) 1510 196 213 347 394 618 1280 1370 2150 3640
2026-04-29 21:30 5.95 2120 23200 (2021) 173 (1964) 1510 196 213 347 394 618 1280 1370 2150 3640
2026-04-29 20:30 6.04 2200 23200 (2021) 173 (1964) 1510 196 213 347 394 618 1280 1370 2150 3640
2026-04-29 19:30 6.14 2290 23200 (2021) 173 (1964) 1510 196 213 347 394 618 1280 1370 2150 3640
2026-04-29 18:30 6.24 2380 23200 (2021) 173 (1964) 1510 196 213 347 394 618 1280 1370 2150 3640
2026-04-29 17:30 6.36 2500 23200 (2021) 173 (1964) 1510 196 213 347 394 618 1280 1370 2150 3640
2026-04-29 16:30 6.51 2650 23200 (2021) 173 (1964) 1510 196 213 347 394 618 1280 1370 2150 3640
2026-04-29 15:30 6.67 2810 23200 (2021) 173 (1964) 1510 196 213 347 394 618 1280 1370 2150 3640
2026-04-29 14:30 6.86 3000 23200 (2021) 173 (1964) 1510 196 213 347 394 618 1280 1370 2150 3640
2026-04-29 13:30 7.08 3230 23200 (2021) 173 (1964) 1510 196 213 347 394 618 1280 1370 2150 3640
2026-04-29 12:30 7.33 3490 23200 (2021) 173 (1964) 1510 196 213 347 394 618 1280 1370 2150 3640
2026-04-29 11:30 7.61 3780 23200 (2021) 173 (1964) 1510 196 213 347 394 618 1280 1370 2150 3640
2026-04-29 10:30 7.86 4040 23200 (2021) 173 (1964) 1510 196 213 347 394 618 1280 1370 2150 3640
2026-04-29 09:30 8.05 4250 23200 (2021) 173 (1964) 1510 196 213 347 394 618 1280 1370 2150 3640
2026-04-29 08:30 8.09 4290 23200 (2021) 173 (1964) 1510 196 213 347 394 618 1280 1370 2150 3640
2026-04-29 07:30 7.90 4080 23200 (2021) 173 (1964) 1510 196 213 347 394 618 1280 1370 2150 3640
2026-04-29 06:30 7.50 3660 23200 (2021) 173 (1964) 1510 196 213 347 394 618 1280 1370 2150 3640
2026-04-29 05:30 6.89 3030 23200 (2021) 173 (1964) 1510 196 213 347 394 618 1280 1370 2150 3640
2026-04-29 04:30 6.34 2480 23200 (2021) 173 (1964) 1510 196 213 347 394 618 1280 1370 2150 3640
2026-04-29 03:30 6.18 2330 23200 (2021) 173 (1964) 1510 196 213 347 394 618 1280 1370 2150 3640
2026-04-29 02:30 6.25 2390 23200 (2021) 173 (1964) 1510 196 213 347 394 618 1280 1370 2150 3640
2026-04-29 01:30 6.33 2470 23200 (2021) 173 (1964) 1510 196 213 347 394 618 1280 1370 2150 3640
2026-04-29 00:30 6.27 2410 23200 (2021) 173 (1964) 1510 196 213 347 394 618 1280 1370 2150 3640
2026-04-28 23:30 5.95 2120 23200 (2021) 173 (1964) 1510 196 213 347 394 618 1280 1370 2150 3640
2026-04-28 22:30 5.60 1870 21300 (2021) 110 (1956) 1280 188 214 325 362 653 1120 1460 2470 3770
2026-04-28 21:30 5.26 1640 21300 (2021) 110 (1956) 1280 188 214 325 362 653 1120 1460 2470 3770
2026-04-28 20:30 5.01 1480 21300 (2021) 110 (1956) 1280 188 214 325 362 653 1120 1460 2470 3770
2026-04-28 19:30 4.96 1450 21300 (2021) 110 (1956) 1280 188 214 325 362 653 1120 1460 2470 3770
2026-04-28 18:30 4.95 1440 21300 (2021) 110 (1956) 1280 188 214 325 362 653 1120 1460 2470 3770
2026-04-28 17:30 4.93 1430 21300 (2021) 110 (1956) 1280 188 214 325 362 653 1120 1460 2470 3770
2026-04-28 16:30 4.76 1330 21300 (2021) 110 (1956) 1280 188 214 325 362 653 1120 1460 2470 3770
2026-04-28 15:30 4.91 1420 21300 (2021) 110 (1956) 1280 188 214 325 362 653 1120 1460 2470 3770
2026-04-28 14:30 4.90 1410 21300 (2021) 110 (1956) 1280 188 214 325 362 653 1120 1460 2470 3770
2026-04-28 13:30 4.95 1440 21300 (2021) 110 (1956) 1280 188 214 325 362 653 1120 1460 2470 3770
2026-04-28 12:30 5.21 1610 21300 (2021) 110 (1956) 1280 188 214 325 362 653 1120 1460 2470 3770
2026-04-28 11:30 4.64 1270 21300 (2021) 110 (1956) 1280 188 214 325 362 653 1120 1460 2470 3770
2026-04-28 10:30 5.17 1580 21300 (2021) 110 (1956) 1280 188 214 325 362 653 1120 1460 2470 3770
2026-04-28 09:30 4.58 1230 21300 (2021) 110 (1956) 1280 188 214 325 362 653 1120 1460 2470 3770
2026-04-28 08:30 5.01 1480 21300 (2021) 110 (1956) 1280 188 214 325 362 653 1120 1460 2470 3770
2026-04-28 07:30 5.04 1500 21300 (2021) 110 (1956) 1280 188 214 325 362 653 1120 1460 2470 3770
2026-04-28 06:30 5.08 1520 21300 (2021) 110 (1956) 1280 188 214 325 362 653 1120 1460 2470 3770
2026-04-28 05:30 5.11 1540 21300 (2021) 110 (1956) 1280 188 214 325 362 653 1120 1460 2470 3770
2026-04-28 04:30 5.15 1570 21300 (2021) 110 (1956) 1280 188 214 325 362 653 1120 1460 2470 3770
2026-04-28 03:30 5.18 1590 21300 (2021) 110 (1956) 1280 188 214 325 362 653 1120 1460 2470 3770
2026-04-28 02:30 5.22 1610 21300 (2021) 110 (1956) 1280 188 214 325 362 653 1120 1460 2470 3770
2026-04-28 01:30 5.26 1640 21300 (2021) 110 (1956) 1280 188 214 325 362 653 1120 1460 2470 3770
2026-04-28 00:30 5.29 1660 21300 (2021) 110 (1956) 1280 188 214 325 362 653 1120 1460 2470 3770
2026-04-27 23:30 5.33 1680 21300 (2021) 110 (1956) 1280 188 214 325 362 653 1120 1460 2470 3770
2026-04-27 22:30 5.36 1700 11800 (2017) 137 (1956) 1170 197 238 336 365 612 1100 1240 2640 3690
2026-04-27 21:30 5.40 1730 11800 (2017) 137 (1956) 1170 197 238 336 365 612 1100 1240 2640 3690
2026-04-27 20:30 5.43 1750 11800 (2017) 137 (1956) 1170 197 238 336 365 612 1100 1240 2640 3690
2026-04-27 19:30 5.47 1780 11800 (2017) 137 (1956) 1170 197 238 336 365 612 1100 1240 2640 3690
2026-04-27 18:30 5.52 1810 11800 (2017) 137 (1956) 1170 197 238 336 365 612 1100 1240 2640 3690
2026-04-27 17:30 5.56 1840 11800 (2017) 137 (1956) 1170 197 238 336 365 612 1100 1240 2640 3690
2026-04-27 16:30 5.62 1880 11800 (2017) 137 (1956) 1170 197 238 336 365 612 1100 1240 2640 3690
2026-04-27 15:30 5.68 1920 11800 (2017) 137 (1956) 1170 197 238 336 365 612 1100 1240 2640 3690
2026-04-27 14:30 5.79 2000 11800 (2017) 137 (1956) 1170 197 238 336 365 612 1100 1240 2640 3690
2026-04-27 13:30 5.89 2080 11800 (2017) 137 (1956) 1170 197 238 336 365 612 1100 1240 2640 3690
2026-04-27 12:30 5.86 2050 11800 (2017) 137 (1956) 1170 197 238 336 365 612 1100 1240 2640 3690
2026-04-27 11:30 5.95 2120 11800 (2017) 137 (1956) 1170 197 238 336 365 612 1100 1240 2640 3690
2026-04-27 10:30 5.99 2150 11800 (2017) 137 (1956) 1170 197 238 336 365 612 1100 1240 2640 3690
2026-04-27 09:30 6.06 2210 11800 (2017) 137 (1956) 1170 197 238 336 365 612 1100 1240 2640 3690
2026-04-27 08:30 6.14 2290 11800 (2017) 137 (1956) 1170 197 238 336 365 612 1100 1240 2640 3690
2026-04-27 07:30 6.22 2360 11800 (2017) 137 (1956) 1170 197 238 336 365 612 1100 1240 2640 3690
2026-04-27 06:30 6.31 2450 11800 (2017) 137 (1956) 1170 197 238 336 365 612 1100 1240 2640 3690
2026-04-27 05:30 6.39 2530 11800 (2017) 137 (1956) 1170 197 238 336 365 612 1100 1240 2640 3690
2026-04-27 04:30 6.48 2620 11800 (2017) 137 (1956) 1170 197 238 336 365 612 1100 1240 2640 3690
2026-04-27 03:30 6.58 2720 11800 (2017) 137 (1956) 1170 197 238 336 365 612 1100 1240 2640 3690
2026-04-27 02:30 6.68 2820 11800 (2017) 137 (1956) 1170 197 238 336 365 612 1100 1240 2640 3690
2026-04-27 01:30 6.77 2910 11800 (2017) 137 (1956) 1170 197 238 336 365 612 1100 1240 2640 3690
2026-04-27 00:30 6.88 3020 11800 (2017) 137 (1956) 1170 197 238 336 365 612 1100 1240 2640 3690
2026-04-26 23:30 7.02 3170 11800 (2017) 137 (1956) 1170 197 238 336 365 612 1100 1240 2640 3690
2026-04-26 22:30 7.18 3330 47500 (2011) 144 (1956) 1760 194 232 324 374 616 1230 1310 3530 5330
2026-04-26 21:30 7.35 3510 47500 (2011) 144 (1956) 1760 194 232 324 374 616 1230 1310 3530 5330
2026-04-26 20:30 7.56 3720 47500 (2011) 144 (1956) 1760 194 232 324 374 616 1230 1310 3530 5330
2026-04-26 19:30 7.84 4020 47500 (2011) 144 (1956) 1760 194 232 324 374 616 1230 1310 3530 5330
2026-04-26 18:30 8.20 4410 47500 (2011) 144 (1956) 1760 194 232 324 374 616 1230 1310 3530 5330
2026-04-26 17:30 8.66 4940 47500 (2011) 144 (1956) 1760 194 232 324 374 616 1230 1310 3530 5330
2026-04-26 16:30 9.20 5590 47500 (2011) 144 (1956) 1760 194 232 324 374 616 1230 1310 3530 5330
2026-04-26 15:30 9.73 6270 47500 (2011) 144 (1956) 1760 194 232 324 374 616 1230 1310 3530 5330
2026-04-26 14:30 10.10 6760 47500 (2011) 144 (1956) 1760 194 232 324 374 616 1230 1310 3530 5330
2026-04-26 13:30 10.18 6870 47500 (2011) 144 (1956) 1760 194 232 324 374 616 1230 1310 3530 5330
2026-04-26 12:30 10.02 6650 47500 (2011) 144 (1956) 1760 194 232 324 374 616 1230 1310 3530 5330
2026-04-26 11:30 9.71 6240 47500 (2011) 144 (1956) 1760 194 232 324 374 616 1230 1310 3530 5330
2026-04-26 10:30 9.21 5610 47500 (2011) 144 (1956) 1760 194 232 324 374 616 1230 1310 3530 5330
2026-04-26 09:30 8.60 4870 47500 (2011) 144 (1956) 1760 194 232 324 374 616 1230 1310 3530 5330
2026-04-26 08:30 7.95 4140 47500 (2011) 144 (1956) 1760 194 232 324 374 616 1230 1310 3530 5330
2026-04-26 07:30 7.48 3640 47500 (2011) 144 (1956) 1760 194 232 324 374 616 1230 1310 3530 5330
2026-04-26 06:30 7.46 3620 47500 (2011) 144 (1956) 1760 194 232 324 374 616 1230 1310 3530 5330
2026-04-26 05:30 7.54 3700 47500 (2011) 144 (1956) 1760 194 232 324 374 616 1230 1310 3530 5330
2026-04-26 04:30 7.35 3510 47500 (2011) 144 (1956) 1760 194 232 324 374 616 1230 1310 3530 5330
2026-04-26 03:30 6.87 3010 47500 (2011) 144 (1956) 1760 194 232 324 374 616 1230 1310 3530 5330
2026-04-26 02:30 6.48 2620 47500 (2011) 144 (1956) 1760 194 232 324 374 616 1230 1310 3530 5330
2026-04-26 01:30 5.86 2050 47500 (2011) 144 (1956) 1760 194 232 324 374 616 1230 1310 3530 5330
2026-04-26 00:30 5.58 1850 47500 (2011) 144 (1956) 1760 194 232 324 374 616 1230 1310 3530 5330
2026-04-25 23:30 5.52 1810 47500 (2011) 144 (1956) 1760 194 232 324 374 616 1230 1310 3530 5330
2026-04-25 22:30 5.49 1790 53100 (2011) 142 (1963) 1960 194 222 329 377 633 1500 1570 2930 6600
2026-04-25 21:30 5.37 1710 53100 (2011) 142 (1963) 1960 194 222 329 377 633 1500 1570 2930 6600
2026-04-25 20:30 5.45 1770 53100 (2011) 142 (1963) 1960 194 222 329 377 633 1500 1570 2930 6600
2026-04-25 19:30 5.47 1780 53100 (2011) 142 (1963) 1960 194 222 329 377 633 1500 1570 2930 6600
2026-04-25 18:30 5.53 1820 53100 (2011) 142 (1963) 1960 194 222 329 377 633 1500 1570 2930 6600
2026-04-25 17:30 5.58 1850 53100 (2011) 142 (1963) 1960 194 222 329 377 633 1500 1570 2930 6600
2026-04-25 16:30 5.64 1900 53100 (2011) 142 (1963) 1960 194 222 329 377 633 1500 1570 2930 6600
2026-04-25 15:30 5.72 1950 53100 (2011) 142 (1963) 1960 194 222 329 377 633 1500 1570 2930 6600
2026-04-25 14:30 5.80 2010 53100 (2011) 142 (1963) 1960 194 222 329 377 633 1500 1570 2930 6600
2026-04-25 13:30 5.88 2070 53100 (2011) 142 (1963) 1960 194 222 329 377 633 1500 1570 2930 6600
2026-04-25 12:30 5.97 2140 53100 (2011) 142 (1963) 1960 194 222 329 377 633 1500 1570 2930 6600
2026-04-25 11:30 6.07 2220 53100 (2011) 142 (1963) 1960 194 222 329 377 633 1500 1570 2930 6600
2026-04-25 10:30 6.18 2330 53100 (2011) 142 (1963) 1960 194 222 329 377 633 1500 1570 2930 6600
2026-04-25 09:30 6.29 2430 53100 (2011) 142 (1963) 1960 194 222 329 377 633 1500 1570 2930 6600
2026-04-25 08:30 6.42 2560 53100 (2011) 142 (1963) 1960 194 222 329 377 633 1500 1570 2930 6600
2026-04-25 07:30 6.56 2700 53100 (2011) 142 (1963) 1960 194 222 329 377 633 1500 1570 2930 6600
2026-04-25 06:30 6.71 2850 53100 (2011) 142 (1963) 1960 194 222 329 377 633 1500 1570 2930 6600
2026-04-25 05:30 6.89 3030 53100 (2011) 142 (1963) 1960 194 222 329 377 633 1500 1570 2930 6600
2026-04-25 04:30 7.08 3230 53100 (2011) 142 (1963) 1960 194 222 329 377 633 1500 1570 2930 6600
2026-04-25 03:30 7.30 3460 53100 (2011) 142 (1963) 1960 194 222 329 377 633 1500 1570 2930 6600
2026-04-25 02:30 7.58 3750 53100 (2011) 142 (1963) 1960 194 222 329 377 633 1500 1570 2930 6600
2026-04-25 01:30 7.91 4090 53100 (2011) 142 (1963) 1960 194 222 329 377 633 1500 1570 2930 6600
2026-04-25 00:30 8.32 4550 53100 (2011) 142 (1963) 1960 194 222 329 377 633 1500 1570 2930 6600
2026-04-24 23:30 8.82 5130 53100 (2011) 142 (1963) 1960 194 222 329 377 633 1500 1570 2930 6600
2026-04-24 22:30 9.36 5790 21800 (2011) 110 (2006) 1760 167 230 325 396 654 1820 1940 3940 7040
2026-04-24 21:30 9.87 6450 21800 (2011) 110 (2006) 1760 167 230 325 396 654 1820 1940 3940 7040
2026-04-24 20:30 10.20 6890 21800 (2011) 110 (2006) 1760 167 230 325 396 654 1820 1940 3940 7040
2026-04-24 19:30 10.26 6980 21800 (2011) 110 (2006) 1760 167 230 325 396 654 1820 1940 3940 7040
2026-04-24 18:30 10.03 6660 21800 (2011) 110 (2006) 1760 167 230 325 396 654 1820 1940 3940 7040
2026-04-24 17:30 9.52 6000 21800 (2011) 110 (2006) 1760 167 230 325 396 654 1820 1940 3940 7040
2026-04-24 16:30 8.72 5010 21800 (2011) 110 (2006) 1760 167 230 325 396 654 1820 1940 3940 7040
2026-04-24 15:30 7.82 4000 21800 (2011) 110 (2006) 1760 167 230 325 396 654 1820 1940 3940 7040
2026-04-24 14:30 6.66 2800 21800 (2011) 110 (2006) 1760 167 230 325 396 654 1820 1940 3940 7040
2026-04-24 13:30 5.96 2130 21800 (2011) 110 (2006) 1760 167 230 325 396 654 1820 1940 3940 7040
2026-04-24 12:30 6.01 2170 21800 (2011) 110 (2006) 1760 167 230 325 396 654 1820 1940 3940 7040
2026-04-24 11:30 6.03 2190 21800 (2011) 110 (2006) 1760 167 230 325 396 654 1820 1940 3940 7040
2026-04-24 10:30 5.71 1950 21800 (2011) 110 (2006) 1760 167 230 325 396 654 1820 1940 3940 7040
2026-04-24 09:30 4.93 1430 21800 (2011) 110 (2006) 1760 167 230 325 396 654 1820 1940 3940 7040
2026-04-24 08:30 4.09 982 21800 (2011) 110 (2006) 1760 167 230 325 396 654 1820 1940 3940 7040
2026-04-24 07:30 3.52 695 21800 (2011) 110 (2006) 1760 167 230 325 396 654 1820 1940 3940 7040
2026-04-24 06:30 3.37 627 21800 (2011) 110 (2006) 1760 167 230 325 396 654 1820 1940 3940 7040
2026-04-24 05:30 3.26 580 21800 (2011) 110 (2006) 1760 167 230 325 396 654 1820 1940 3940 7040
2026-04-24 04:30 3.18 548 21800 (2011) 110 (2006) 1760 167 230 325 396 654 1820 1940 3940 7040
2026-04-24 03:30 3.08 509 21800 (2011) 110 (2006) 1760 167 230 325 396 654 1820 1940 3940 7040
2026-04-24 02:30 2.97 467 21800 (2011) 110 (2006) 1760 167 230 325 396 654 1820 1940 3940 7040
2026-04-24 01:30 2.99 475 21800 (2011) 110 (2006) 1760 167 230 325 396 654 1820 1940 3940 7040
2026-04-24 00:30 2.99 475 21800 (2011) 110 (2006) 1760 167 230 325 396 654 1820 1940 3940 7040
2026-04-23 23:30 3.00 478 21800 (2011) 110 (2006) 1760 167 230 325 396 654 1820 1940 3940 7040
2026-04-23 22:30 3.01 482 11500 (1973) 113 (2006) 1400 165 224 334 404 670 1420 2010 2770 5690
2026-04-23 21:30 3.01 482 11500 (1973) 113 (2006) 1400 165 224 334 404 670 1420 2010 2770 5690
2026-04-23 20:30 3.01 482 11500 (1973) 113 (2006) 1400 165 224 334 404 670 1420 2010 2770 5690
2026-04-23 19:30 2.99 475 11500 (1973) 113 (2006) 1400 165 224 334 404 670 1420 2010 2770 5690
2026-04-23 18:30 2.99 475 11500 (1973) 113 (2006) 1400 165 224 334 404 670 1420 2010 2770 5690
2026-04-23 17:30 2.99 475 11500 (1973) 113 (2006) 1400 165 224 334 404 670 1420 2010 2770 5690
2026-04-23 16:30 2.99 475 11500 (1973) 113 (2006) 1400 165 224 334 404 670 1420 2010 2770 5690
2026-04-23 15:30 2.99 475 11500 (1973) 113 (2006) 1400 165 224 334 404 670 1420 2010 2770 5690
2026-04-23 14:30 3.00 478 11500 (1973) 113 (2006) 1400 165 224 334 404 670 1420 2010 2770 5690
2026-04-23 13:30 3.03 490 11500 (1973) 113 (2006) 1400 165 224 334 404 670 1420 2010 2770 5690
2026-04-23 12:30 3.04 493 11500 (1973) 113 (2006) 1400 165 224 334 404 670 1420 2010 2770 5690
2026-04-23 11:30 3.03 490 11500 (1973) 113 (2006) 1400 165 224 334 404 670 1420 2010 2770 5690
2026-04-23 10:30 2.99 475 11500 (1973) 113 (2006) 1400 165 224 334 404 670 1420 2010 2770 5690
2026-04-23 09:30 3.05 497 11500 (1973) 113 (2006) 1400 165 224 334 404 670 1420 2010 2770 5690
2026-04-23 08:30 3.05 497 11500 (1973) 113 (2006) 1400 165 224 334 404 670 1420 2010 2770 5690
2026-04-23 07:30 3.05 497 11500 (1973) 113 (2006) 1400 165 224 334 404 670 1420 2010 2770 5690
2026-04-23 06:30 3.05 497 11500 (1973) 113 (2006) 1400 165 224 334 404 670 1420 2010 2770 5690
2026-04-23 05:30 3.05 497 11500 (1973) 113 (2006) 1400 165 224 334 404 670 1420 2010 2770 5690
2026-04-23 04:30 3.05 497 11500 (1973) 113 (2006) 1400 165 224 334 404 670 1420 2010 2770 5690
2026-04-23 03:30 3.06 501 11500 (1973) 113 (2006) 1400 165 224 334 404 670 1420 2010 2770 5690
2026-04-23 02:30 3.06 501 11500 (1973) 113 (2006) 1400 165 224 334 404 670 1420 2010 2770 5690
2026-04-23 01:30 3.06 501 11500 (1973) 113 (2006) 1400 165 224 334 404 670 1420 2010 2770 5690
2026-04-23 00:30 3.07 505 11500 (1973) 113 (2006) 1400 165 224 334 404 670 1420 2010 2770 5690
2026-04-22 23:30 3.07 505 11500 (1973) 113 (2006) 1400 165 224 334 404 670 1420 2010 2770 5690
2026-04-22 22:30 3.08 509 18700 (2017) 117 (2006) 1350 179 237 351 414 616 1170 1560 3550 5340
2026-04-22 21:30 3.09 512 18700 (2017) 117 (2006) 1350 179 237 351 414 616 1170 1560 3550 5340
2026-04-22 20:30 3.09 512 18700 (2017) 117 (2006) 1350 179 237 351 414 616 1170 1560 3550 5340
2026-04-22 19:30 3.09 512 18700 (2017) 117 (2006) 1350 179 237 351 414 616 1170 1560 3550 5340
2026-04-22 18:30 3.10 516 18700 (2017) 117 (2006) 1350 179 237 351 414 616 1170 1560 3550 5340
2026-04-22 17:30 3.09 512 18700 (2017) 117 (2006) 1350 179 237 351 414 616 1170 1560 3550 5340
2026-04-22 16:30 3.10 516 18700 (2017) 117 (2006) 1350 179 237 351 414 616 1170 1560 3550 5340
2026-04-22 15:30 3.11 520 18700 (2017) 117 (2006) 1350 179 237 351 414 616 1170 1560 3550 5340
2026-04-22 14:30 3.11 520 18700 (2017) 117 (2006) 1350 179 237 351 414 616 1170 1560 3550 5340
2026-04-22 13:30 3.12 524 18700 (2017) 117 (2006) 1350 179 237 351 414 616 1170 1560 3550 5340
2026-04-22 12:30 3.13 528 18700 (2017) 117 (2006) 1350 179 237 351 414 616 1170 1560 3550 5340
2026-04-22 11:30 3.13 528 18700 (2017) 117 (2006) 1350 179 237 351 414 616 1170 1560 3550 5340
2026-04-22 10:30 3.13 528 18700 (2017) 117 (2006) 1350 179 237 351 414 616 1170 1560 3550 5340
2026-04-22 09:30 3.14 532 18700 (2017) 117 (2006) 1350 179 237 351 414 616 1170 1560 3550 5340
2026-04-22 08:30 3.14 532 18700 (2017) 117 (2006) 1350 179 237 351 414 616 1170 1560 3550 5340
2026-04-22 07:30 3.15 536 18700 (2017) 117 (2006) 1350 179 237 351 414 616 1170 1560 3550 5340
2026-04-22 06:30 3.15 536 18700 (2017) 117 (2006) 1350 179 237 351 414 616 1170 1560 3550 5340
2026-04-22 05:30 3.16 540 18700 (2017) 117 (2006) 1350 179 237 351 414 616 1170 1560 3550 5340
2026-04-22 04:30 3.16 540 18700 (2017) 117 (2006) 1350 179 237 351 414 616 1170 1560 3550 5340
2026-04-22 03:30 3.17 544 18700 (2017) 117 (2006) 1350 179 237 351 414 616 1170 1560 3550 5340
2026-04-22 02:30 3.17 544 18700 (2017) 117 (2006) 1350 179 237 351 414 616 1170 1560 3550 5340
2026-04-22 01:30 3.18 548 18700 (2017) 117 (2006) 1350 179 237 351 414 616 1170 1560 3550 5340
2026-04-22 00:30 3.18 548 18700 (2017) 117 (2006) 1350 179 237 351 414 616 1170 1560 3550 5340
2026-04-21 23:30 3.19 552 18700 (2017) 117 (2006) 1350 179 237 351 414 616 1170 1560 3550 5340
2026-04-21 22:30 3.19 552 12100 (1976) 119 (2006) 1350 172 245 314 371 564 1220 1450 3030 6230
2026-04-21 21:30 3.20 556 12100 (1976) 119 (2006) 1350 172 245 314 371 564 1220 1450 3030 6230
2026-04-21 20:30 3.21 560 12100 (1976) 119 (2006) 1350 172 245 314 371 564 1220 1450 3030 6230
2026-04-21 19:30 3.22 564 12100 (1976) 119 (2006) 1350 172 245 314 371 564 1220 1450 3030 6230
2026-04-21 18:30 3.20 556 12100 (1976) 119 (2006) 1350 172 245 314 371 564 1220 1450 3030 6230
2026-04-21 17:30 3.25 576 12100 (1976) 119 (2006) 1350 172 245 314 371 564 1220 1450 3030 6230
2026-04-21 16:30 3.29 593 12100 (1976) 119 (2006) 1350 172 245 314 371 564 1220 1450 3030 6230
2026-04-21 15:30 3.20 556 12100 (1976) 119 (2006) 1350 172 245 314 371 564 1220 1450 3030 6230
2026-04-21 14:30 3.25 576 12100 (1976) 119 (2006) 1350 172 245 314 371 564 1220 1450 3030 6230
2026-04-21 13:30 3.24 572 12100 (1976) 119 (2006) 1350 172 245 314 371 564 1220 1450 3030 6230
2026-04-21 12:30 3.26 580 12100 (1976) 119 (2006) 1350 172 245 314 371 564 1220 1450 3030 6230
2026-04-21 11:30 3.27 585 12100 (1976) 119 (2006) 1350 172 245 314 371 564 1220 1450 3030 6230
2026-04-21 10:30 3.27 585 12100 (1976) 119 (2006) 1350 172 245 314 371 564 1220 1450 3030 6230
2026-04-21 09:30 3.25 576 12100 (1976) 119 (2006) 1350 172 245 314 371 564 1220 1450 3030 6230
2026-04-21 08:30 3.31 601 12100 (1976) 119 (2006) 1350 172 245 314 371 564 1220 1450 3030 6230
2026-04-21 07:30 3.32 606 12100 (1976) 119 (2006) 1350 172 245 314 371 564 1220 1450 3030 6230
2026-04-21 06:30 3.32 606 12100 (1976) 119 (2006) 1350 172 245 314 371 564 1220 1450 3030 6230
2026-04-21 05:30 3.33 610 12100 (1976) 119 (2006) 1350 172 245 314 371 564 1220 1450 3030 6230
2026-04-21 04:30 3.33 610 12100 (1976) 119 (2006) 1350 172 245 314 371 564 1220 1450 3030 6230
2026-04-21 03:30 3.34 614 12100 (1976) 119 (2006) 1350 172 245 314 371 564 1220 1450 3030 6230
2026-04-21 02:30 3.35 619 12100 (1976) 119 (2006) 1350 172 245 314 371 564 1220 1450 3030 6230
2026-04-21 01:30 3.35 619 12100 (1976) 119 (2006) 1350 172 245 314 371 564 1220 1450 3030 6230
2026-04-21 00:30 3.36 623 12100 (1976) 119 (2006) 1350 172 245 314 371 564 1220 1450 3030 6230
2026-04-20 23:30 3.37 627 12100 (1976) 119 (2006) 1350 172 245 314 371 564 1220 1450 3030 6230
2026-04-20 22:30 3.37 627 19400 (1976) 121 (2006) 1400 189 215 312 332 557 956 1290 3330 6190
2026-04-20 21:30 3.39 636 19400 (1976) 121 (2006) 1400 189 215 312 332 557 956 1290 3330 6190
2026-04-20 20:30 3.39 636 19400 (1976) 121 (2006) 1400 189 215 312 332 557 956 1290 3330 6190
2026-04-20 19:30 3.40 640 19400 (1976) 121 (2006) 1400 189 215 312 332 557 956 1290 3330 6190
2026-04-20 18:30 3.42 649 19400 (1976) 121 (2006) 1400 189 215 312 332 557 956 1290 3330 6190
2026-04-20 17:30 3.42 649 19400 (1976) 121 (2006) 1400 189 215 312 332 557 956 1290 3330 6190
2026-04-20 16:30 3.43 654 19400 (1976) 121 (2006) 1400 189 215 312 332 557 956 1290 3330 6190
2026-04-20 15:30 3.45 663 19400 (1976) 121 (2006) 1400 189 215 312 332 557 956 1290 3330 6190
2026-04-20 14:30 3.46 667 19400 (1976) 121 (2006) 1400 189 215 312 332 557 956 1290 3330 6190
2026-04-20 13:30 3.47 672 19400 (1976) 121 (2006) 1400 189 215 312 332 557 956 1290 3330 6190
2026-04-20 12:30 3.48 676 19400 (1976) 121 (2006) 1400 189 215 312 332 557 956 1290 3330 6190
2026-04-20 11:30 3.49 681 19400 (1976) 121 (2006) 1400 189 215 312 332 557 956 1290 3330 6190
2026-04-20 10:30 3.51 690 19400 (1976) 121 (2006) 1400 189 215 312 332 557 956 1290 3330 6190
2026-04-20 09:30 3.53 699 19400 (1976) 121 (2006) 1400 189 215 312 332 557 956 1290 3330 6190
2026-04-20 08:30 3.54 704 19400 (1976) 121 (2006) 1400 189 215 312 332 557 956 1290 3330 6190
2026-04-20 07:30 3.55 709 19400 (1976) 121 (2006) 1400 189 215 312 332 557 956 1290 3330 6190
2026-04-20 06:30 3.56 713 19400 (1976) 121 (2006) 1400 189 215 312 332 557 956 1290 3330 6190
2026-04-20 05:30 3.57 718 19400 (1976) 121 (2006) 1400 189 215 312 332 557 956 1290 3330 6190
2026-04-20 04:30 3.58 723 19400 (1976) 121 (2006) 1400 189 215 312 332 557 956 1290 3330 6190
2026-04-20 03:30 3.60 732 19400 (1976) 121 (2006) 1400 189 215 312 332 557 956 1290 3330 6190
2026-04-20 02:30 3.61 737 19400 (1976) 121 (2006) 1400 189 215 312 332 557 956 1290 3330 6190
2026-04-20 01:30 3.62 742 19400 (1976) 121 (2006) 1400 189 215 312 332 557 956 1290 3330 6190
2026-04-20 00:30 3.64 752 19400 (1976) 121 (2006) 1400 189 215 312 332 557 956 1290 3330 6190
2026-04-19 23:30 3.66 761 19400 (1976) 121 (2006) 1400 189 215 312 332 557 956 1290 3330 6190
2026-04-19 22:30 3.68 771 7160 (2013) 126 (2006) 935 168 218 293 337 535 978 1020 1960 3420
2026-04-19 21:30 3.70 781 7160 (2013) 126 (2006) 935 168 218 293 337 535 978 1020 1960 3420
2026-04-19 20:30 3.73 796 7160 (2013) 126 (2006) 935 168 218 293 337 535 978 1020 1960 3420
2026-04-19 19:30 3.76 811 7160 (2013) 126 (2006) 935 168 218 293 337 535 978 1020 1960 3420
2026-04-19 18:30 3.78 822 7160 (2013) 126 (2006) 935 168 218 293 337 535 978 1020 1960 3420
2026-04-19 17:30 3.81 837 7160 (2013) 126 (2006) 935 168 218 293 337 535 978 1020 1960 3420
2026-04-19 16:30 3.84 853 7160 (2013) 126 (2006) 935 168 218 293 337 535 978 1020 1960 3420
2026-04-19 15:30 3.87 869 7160 (2013) 126 (2006) 935 168 218 293 337 535 978 1020 1960 3420
2026-04-19 14:30 3.90 885 7160 (2013) 126 (2006) 935 168 218 293 337 535 978 1020 1960 3420
2026-04-19 13:30 3.93 901 7160 (2013) 126 (2006) 935 168 218 293 337 535 978 1020 1960 3420
2026-04-19 12:30 3.96 917 7160 (2013) 126 (2006) 935 168 218 293 337 535 978 1020 1960 3420
2026-04-19 11:30 4.00 940 7160 (2013) 126 (2006) 935 168 218 293 337 535 978 1020 1960 3420
2026-04-19 10:30 4.02 949 7160 (2013) 126 (2006) 935 168 218 293 337 535 978 1020 1960 3420
2026-04-19 09:30 4.04 958 7160 (2013) 126 (2006) 935 168 218 293 337 535 978 1020 1960 3420
2026-04-19 08:30 4.08 977 7160 (2013) 126 (2006) 935 168 218 293 337 535 978 1020 1960 3420
2026-04-19 07:30 4.14 1010 7160 (2013) 126 (2006) 935 168 218 293 337 535 978 1020 1960 3420
2026-04-19 06:30 4.18 1030 7160 (2013) 126 (2006) 935 168 218 293 337 535 978 1020 1960 3420
2026-04-19 05:30 4.22 1040 7160 (2013) 126 (2006) 935 168 218 293 337 535 978 1020 1960 3420
2026-04-19 04:30 4.28 1070 7160 (2013) 126 (2006) 935 168 218 293 337 535 978 1020 1960 3420
2026-04-19 03:30 4.33 1100 7160 (2013) 126 (2006) 935 168 218 293 337 535 978 1020 1960 3420
2026-04-19 02:30 4.39 1130 7160 (2013) 126 (2006) 935 168 218 293 337 535 978 1020 1960 3420
2026-04-19 01:30 4.45 1160 7160 (2013) 126 (2006) 935 168 218 293 337 535 978 1020 1960 3420
2026-04-19 00:30 4.51 1190 7160 (2013) 126 (2006) 935 168 218 293 337 535 978 1020 1960 3420
2026-04-18 23:30 4.54 1210 7160 (2013) 126 (2006) 935 168 218 293 337 535 978 1020 1960 3420
2026-04-18 22:30 4.56 1220 5910 (1990) 113 (1981) 807 171 228 320 360 559 883 972 1730 2370
2026-04-18 21:30 4.53 1210 5910 (1990) 113 (1981) 807 171 228 320 360 559 883 972 1730 2370
2026-04-18 20:30 4.35 1110 5910 (1990) 113 (1981) 807 171 228 320 360 559 883 972 1730 2370
2026-04-18 19:30 4.11 991 5910 (1990) 113 (1981) 807 171 228 320 360 559 883 972 1730 2370
2026-04-18 18:30 3.82 842 5910 (1990) 113 (1981) 807 171 228 320 360 559 883 972 1730 2370
2026-04-18 17:30 3.57 718 5910 (1990) 113 (1981) 807 171 228 320 360 559 883 972 1730 2370
2026-04-18 16:30 3.43 654 5910 (1990) 113 (1981) 807 171 228 320 360 559 883 972 1730 2370
2026-04-18 15:30 3.39 636 5910 (1990) 113 (1981) 807 171 228 320 360 559 883 972 1730 2370
2026-04-18 14:30 3.38 632 5910 (1990) 113 (1981) 807 171 228 320 360 559 883 972 1730 2370
2026-04-18 13:30 3.38 632 5910 (1990) 113 (1981) 807 171 228 320 360 559 883 972 1730 2370
2026-04-18 12:30 3.37 627 5910 (1990) 113 (1981) 807 171 228 320 360 559 883 972 1730 2370
2026-04-18 11:30 3.36 623 5910 (1990) 113 (1981) 807 171 228 320 360 559 883 972 1730 2370
2026-04-18 10:30 3.38 632 5910 (1990) 113 (1981) 807 171 228 320 360 559 883 972 1730 2370
2026-04-18 09:30 3.38 632 5910 (1990) 113 (1981) 807 171 228 320 360 559 883 972 1730 2370
2026-04-18 08:30 3.38 632 5910 (1990) 113 (1981) 807 171 228 320 360 559 883 972 1730 2370
2026-04-18 07:30 3.38 632 5910 (1990) 113 (1981) 807 171 228 320 360 559 883 972 1730 2370
2026-04-18 06:30 3.38 632 5910 (1990) 113 (1981) 807 171 228 320 360 559 883 972 1730 2370
2026-04-18 05:30 3.38 632 5910 (1990) 113 (1981) 807 171 228 320 360 559 883 972 1730 2370
2026-04-18 04:30 3.36 623 5910 (1990) 113 (1981) 807 171 228 320 360 559 883 972 1730 2370
2026-04-18 03:30 3.34 614 5910 (1990) 113 (1981) 807 171 228 320 360 559 883 972 1730 2370
2026-04-18 02:30 3.35 619 5910 (1990) 113 (1981) 807 171 228 320 360 559 883 972 1730 2370
2026-04-18 01:30 3.36 623 5910 (1990) 113 (1981) 807 171 228 320 360 559 883 972 1730 2370
2026-04-18 00:30 3.28 589 5910 (1990) 113 (1981) 807 171 228 320 360 559 883 972 1730 2370
2026-04-17 23:30 3.32 606 5910 (1990) 113 (1981) 807 171 228 320 360 559 883 972 1730 2370
2026-04-17 22:30 3.33 610 7380 (1990) 117 (1981) 816 179 219 340 389 572 850 1040 1330 2310
2026-04-17 21:30 3.35 619 7380 (1990) 117 (1981) 816 179 219 340 389 572 850 1040 1330 2310
2026-04-17 20:30 3.36 623 7380 (1990) 117 (1981) 816 179 219 340 389 572 850 1040 1330 2310
2026-04-17 19:30 3.36 623 7380 (1990) 117 (1981) 816 179 219 340 389 572 850 1040 1330 2310
2026-04-17 18:30 3.36 623 7380 (1990) 117 (1981) 816 179 219 340 389 572 850 1040 1330 2310
2026-04-17 17:30 3.34 614 7380 (1990) 117 (1981) 816 179 219 340 389 572 850 1040 1330 2310
2026-04-17 16:30 3.36 623 7380 (1990) 117 (1981) 816 179 219 340 389 572 850 1040 1330 2310
2026-04-17 15:30 3.36 623 7380 (1990) 117 (1981) 816 179 219 340 389 572 850 1040 1330 2310
2026-04-17 14:30 3.37 627 7380 (1990) 117 (1981) 816 179 219 340 389 572 850 1040 1330 2310
2026-04-17 13:30 3.39 636 7380 (1990) 117 (1981) 816 179 219 340 389 572 850 1040 1330 2310
2026-04-17 12:30 3.41 645 7380 (1990) 117 (1981) 816 179 219 340 389 572 850 1040 1330 2310
2026-04-17 11:30 3.45 663 7380 (1990) 117 (1981) 816 179 219 340 389 572 850 1040 1330 2310
2026-04-17 10:30 3.42 649 7380 (1990) 117 (1981) 816 179 219 340 389 572 850 1040 1330 2310
2026-04-17 09:30 3.46 667 7380 (1990) 117 (1981) 816 179 219 340 389 572 850 1040 1330 2310
2026-04-17 08:30 3.49 681 7380 (1990) 117 (1981) 816 179 219 340 389 572 850 1040 1330 2310
2026-04-17 07:30 3.55 709 7380 (1990) 117 (1981) 816 179 219 340 389 572 850 1040 1330 2310
2026-04-17 06:30 3.58 723 7380 (1990) 117 (1981) 816 179 219 340 389 572 850 1040 1330 2310
2026-04-17 05:30 3.59 728 7380 (1990) 117 (1981) 816 179 219 340 389 572 850 1040 1330 2310
2026-04-17 04:30 3.62 742 7380 (1990) 117 (1981) 816 179 219 340 389 572 850 1040 1330 2310
2026-04-17 03:30 3.64 752 7380 (1990) 117 (1981) 816 179 219 340 389 572 850 1040 1330 2310
2026-04-17 02:30 3.66 761 7380 (1990) 117 (1981) 816 179 219 340 389 572 850 1040 1330 2310
2026-04-17 01:30 3.68 771 7380 (1990) 117 (1981) 816 179 219 340 389 572 850 1040 1330 2310
2026-04-17 00:30 3.70 781 7380 (1990) 117 (1981) 816 179 219 340 389 572 850 1040 1330 2310
2026-04-16 23:30 3.72 791 7380 (1990) 117 (1981) 816 179 219 340 389 572 850 1040 1330 2310
2026-04-16 22:30 3.75 806 5940 (1973) 109 (1981) 828 193 219 317 371 607 930 1070 1470 2400
2026-04-16 21:30 3.78 822 5940 (1973) 109 (1981) 828 193 219 317 371 607 930 1070 1470 2400
2026-04-16 20:30 3.81 837 5940 (1973) 109 (1981) 828 193 219 317 371 607 930 1070 1470 2400
2026-04-16 19:30 3.85 858 5940 (1973) 109 (1981) 828 193 219 317 371 607 930 1070 1470 2400
2026-04-16 18:30 3.90 885 5940 (1973) 109 (1981) 828 193 219 317 371 607 930 1070 1470 2400
2026-04-16 17:30 3.96 917 5940 (1973) 109 (1981) 828 193 219 317 371 607 930 1070 1470 2400
2026-04-16 16:30 4.02 949 5940 (1973) 109 (1981) 828 193 219 317 371 607 930 1070 1470 2400
2026-04-16 15:30 4.07 972 5940 (1973) 109 (1981) 828 193 219 317 371 607 930 1070 1470 2400
2026-04-16 14:30 4.12 996 5940 (1973) 109 (1981) 828 193 219 317 371 607 930 1070 1470 2400
2026-04-16 13:30 4.14 1010 5940 (1973) 109 (1981) 828 193 219 317 371 607 930 1070 1470 2400
2026-04-16 12:30 4.15 1010 5940 (1973) 109 (1981) 828 193 219 317 371 607 930 1070 1470 2400
2026-04-16 11:30 4.14 1010 5940 (1973) 109 (1981) 828 193 219 317 371 607 930 1070 1470 2400
2026-04-16 10:30 4.04 958 5940 (1973) 109 (1981) 828 193 219 317 371 607 930 1070 1470 2400
2026-04-16 09:30 3.88 874 5940 (1973) 109 (1981) 828 193 219 317 371 607 930 1070 1470 2400
2026-04-16 08:30 3.74 801 5940 (1973) 109 (1981) 828 193 219 317 371 607 930 1070 1470 2400
2026-04-16 07:30 3.68 771 5940 (1973) 109 (1981) 828 193 219 317 371 607 930 1070 1470 2400
2026-04-16 06:30 3.70 781 5940 (1973) 109 (1981) 828 193 219 317 371 607 930 1070 1470 2400
2026-04-16 05:30 3.75 806 5940 (1973) 109 (1981) 828 193 219 317 371 607 930 1070 1470 2400
2026-04-16 04:30 3.78 822 5940 (1973) 109 (1981) 828 193 219 317 371 607 930 1070 1470 2400
2026-04-16 03:30 3.80 832 5940 (1973) 109 (1981) 828 193 219 317 371 607 930 1070 1470 2400
2026-04-16 02:30 3.80 832 5940 (1973) 109 (1981) 828 193 219 317 371 607 930 1070 1470 2400
2026-04-16 01:30 3.74 801 5940 (1973) 109 (1981) 828 193 219 317 371 607 930 1070 1470 2400
2026-04-16 00:30 3.59 728 5940 (1973) 109 (1981) 828 193 219 317 371 607 930 1070 1470 2400
2026-04-15 23:30 3.32 606 5940 (1973) 109 (1981) 828 193 219 317 371 607 930 1070 1470 2400
2026-04-15 22:30 3.12 524 8630 (1993) 109 (1981) 943 181 218 302 358 629 1030 1200 1810 2610
2026-04-15 21:30 3.08 509 8630 (1993) 109 (1981) 943 181 218 302 358 629 1030 1200 1810 2610
2026-04-15 20:30 3.07 505 8630 (1993) 109 (1981) 943 181 218 302 358 629 1030 1200 1810 2610
2026-04-15 19:30 3.08 509 8630 (1993) 109 (1981) 943 181 218 302 358 629 1030 1200 1810 2610
2026-04-15 18:30 3.05 497 8630 (1993) 109 (1981) 943 181 218 302 358 629 1030 1200 1810 2610
2026-04-15 17:30 3.00 478 8630 (1993) 109 (1981) 943 181 218 302 358 629 1030 1200 1810 2610
2026-04-15 16:30 2.99 475 8630 (1993) 109 (1981) 943 181 218 302 358 629 1030 1200 1810 2610
2026-04-15 15:30 2.99 475 8630 (1993) 109 (1981) 943 181 218 302 358 629 1030 1200 1810 2610
2026-04-15 14:30 2.99 475 8630 (1993) 109 (1981) 943 181 218 302 358 629 1030 1200 1810 2610
2026-04-15 13:30 3.00 478 8630 (1993) 109 (1981) 943 181 218 302 358 629 1030 1200 1810 2610
2026-04-15 12:30 3.02 486 8630 (1993) 109 (1981) 943 181 218 302 358 629 1030 1200 1810 2610
2026-04-15 11:30 3.07 505 8630 (1993) 109 (1981) 943 181 218 302 358 629 1030 1200 1810 2610
2026-04-15 10:30 3.12 524 8630 (1993) 109 (1981) 943 181 218 302 358 629 1030 1200 1810 2610
2026-04-15 09:30 2.96 464 8630 (1993) 109 (1981) 943 181 218 302 358 629 1030 1200 1810 2610
2026-04-15 08:30 2.96 464 8630 (1993) 109 (1981) 943 181 218 302 358 629 1030 1200 1810 2610
2026-04-15 07:30 2.96 464 8630 (1993) 109 (1981) 943 181 218 302 358 629 1030 1200 1810 2610
2026-04-15 06:30 2.93 453 8630 (1993) 109 (1981) 943 181 218 302 358 629 1030 1200 1810 2610
2026-04-15 05:30 2.93 453 8630 (1993) 109 (1981) 943 181 218 302 358 629 1030 1200 1810 2610
2026-04-15 04:30 2.93 453 8630 (1993) 109 (1981) 943 181 218 302 358 629 1030 1200 1810 2610
2026-04-15 03:30 2.93 453 8630 (1993) 109 (1981) 943 181 218 302 358 629 1030 1200 1810 2610
2026-04-15 02:30 2.87 432 8630 (1993) 109 (1981) 943 181 218 302 358 629 1030 1200 1810 2610
2026-04-15 01:30 2.87 432 8630 (1993) 109 (1981) 943 181 218 302 358 629 1030 1200 1810 2610
2026-04-15 00:30 2.84 422 8630 (1993) 109 (1981) 943 181 218 302 358 629 1030 1200 1810 2610
2026-04-14 23:30 2.84 422 8630 (1993) 109 (1981) 943 181 218 302 358 629 1030 1200 1810 2610
2026-04-14 22:30 2.84 422 7760 (1991) 102 (1981) 1070 159 213 322 351 632 1050 1250 2190 4490
2026-04-14 21:30 2.85 425 7760 (1991) 102 (1981) 1070 159 213 322 351 632 1050 1250 2190 4490
2026-04-14 20:30 2.85 425 7760 (1991) 102 (1981) 1070 159 213 322 351 632 1050 1250 2190 4490
2026-04-14 19:30 2.81 411 7760 (1991) 102 (1981) 1070 159 213 322 351 632 1050 1250 2190 4490
2026-04-14 18:30 2.86 428 7760 (1991) 102 (1981) 1070 159 213 322 351 632 1050 1250 2190 4490
2026-04-14 17:30 2.85 425 7760 (1991) 102 (1981) 1070 159 213 322 351 632 1050 1250 2190 4490
2026-04-14 16:30 2.83 418 7760 (1991) 102 (1981) 1070 159 213 322 351 632 1050 1250 2190 4490
2026-04-14 15:30 2.86 428 7760 (1991) 102 (1981) 1070 159 213 322 351 632 1050 1250 2190 4490
2026-04-14 14:30 2.86 428 7760 (1991) 102 (1981) 1070 159 213 322 351 632 1050 1250 2190 4490
2026-04-14 13:30 2.86 428 7760 (1991) 102 (1981) 1070 159 213 322 351 632 1050 1250 2190 4490
2026-04-14 12:30 2.83 418 7760 (1991) 102 (1981) 1070 159 213 322 351 632 1050 1250 2190 4490
2026-04-14 11:30 2.85 425 7760 (1991) 102 (1981) 1070 159 213 322 351 632 1050 1250 2190 4490
2026-04-14 09:30 2.84 422 7760 (1991) 102 (1981) 1070 159 213 322 351 632 1050 1250 2190 4490
2026-04-14 08:30 2.86 428 7760 (1991) 102 (1981) 1070 159 213 322 351 632 1050 1250 2190 4490
2026-04-14 07:30 2.87 432 7760 (1991) 102 (1981) 1070 159 213 322 351 632 1050 1250 2190 4490
2026-04-14 06:30 2.87 432 7760 (1991) 102 (1981) 1070 159 213 322 351 632 1050 1250 2190 4490
2026-04-14 05:30 2.85 425 7760 (1991) 102 (1981) 1070 159 213 322 351 632 1050 1250 2190 4490
2026-04-14 04:30 2.87 432 7760 (1991) 102 (1981) 1070 159 213 322 351 632 1050 1250 2190 4490
2026-04-14 03:30 2.88 435 7760 (1991) 102 (1981) 1070 159 213 322 351 632 1050 1250 2190 4490
2026-04-14 02:30 2.88 435 7760 (1991) 102 (1981) 1070 159 213 322 351 632 1050 1250 2190 4490
2026-04-14 01:30 2.86 428 7760 (1991) 102 (1981) 1070 159 213 322 351 632 1050 1250 2190 4490
2026-04-14 00:30 2.86 428 7760 (1991) 102 (1981) 1070 159 213 322 351 632 1050 1250 2190 4490
2026-04-13 23:30 2.84 422 7760 (1991) 102 (1981) 1070 159 213 322 351 632 1050 1250 2190 4490
2026-04-13 22:30 2.78 401 6110 (2022) 108 (1981) 974 153 216 308 348 618 1140 1260 2210 3480
2026-04-13 21:30 2.77 398 6110 (2022) 108 (1981) 974 153 216 308 348 618 1140 1260 2210 3480
2026-04-13 20:30 2.89 439 6110 (2022) 108 (1981) 974 153 216 308 348 618 1140 1260 2210 3480
2026-04-13 19:30 2.90 442 6110 (2022) 108 (1981) 974 153 216 308 348 618 1140 1260 2210 3480
2026-04-13 18:30 2.87 432 6110 (2022) 108 (1981) 974 153 216 308 348 618 1140 1260 2210 3480
2026-04-13 17:30 2.86 428 6110 (2022) 108 (1981) 974 153 216 308 348 618 1140 1260 2210 3480
2026-04-13 16:30 2.86 428 6110 (2022) 108 (1981) 974 153 216 308 348 618 1140 1260 2210 3480
2026-04-13 15:30 2.89 439 6110 (2022) 108 (1981) 974 153 216 308 348 618 1140 1260 2210 3480
2026-04-13 14:30 2.88 435 6110 (2022) 108 (1981) 974 153 216 308 348 618 1140 1260 2210 3480
2026-04-13 13:30 2.89 439 6110 (2022) 108 (1981) 974 153 216 308 348 618 1140 1260 2210 3480
2026-04-13 12:30 2.95 460 6110 (2022) 108 (1981) 974 153 216 308 348 618 1140 1260 2210 3480
2026-04-13 11:30 2.98 471 6110 (2022) 108 (1981) 974 153 216 308 348 618 1140 1260 2210 3480
2026-04-13 10:30 3.00 478 6110 (2022) 108 (1981) 974 153 216 308 348 618 1140 1260 2210 3480
2026-04-13 09:30 2.97 467 6110 (2022) 108 (1981) 974 153 216 308 348 618 1140 1260 2210 3480
2026-04-13 08:30 2.89 439 6110 (2022) 108 (1981) 974 153 216 308 348 618 1140 1260 2210 3480
2026-04-13 07:30 2.92 449 6110 (2022) 108 (1981) 974 153 216 308 348 618 1140 1260 2210 3480
2026-04-13 06:30 2.92 449 6110 (2022) 108 (1981) 974 153 216 308 348 618 1140 1260 2210 3480
2026-04-13 05:30 2.92 449 6110 (2022) 108 (1981) 974 153 216 308 348 618 1140 1260 2210 3480
2026-04-13 04:30 2.93 453 6110 (2022) 108 (1981) 974 153 216 308 348 618 1140 1260 2210 3480
2026-04-13 03:30 2.93 453 6110 (2022) 108 (1981) 974 153 216 308 348 618 1140 1260 2210 3480
2026-04-13 02:30 2.93 453 6110 (2022) 108 (1981) 974 153 216 308 348 618 1140 1260 2210 3480
2026-04-13 01:30 2.94 457 6110 (2022) 108 (1981) 974 153 216 308 348 618 1140 1260 2210 3480
2026-04-13 00:30 2.94 457 6110 (2022) 108 (1981) 974 153 216 308 348 618 1140 1260 2210 3480
2026-04-12 23:30 2.95 460 6110 (2022) 108 (1981) 974 153 216 308 348 618 1140 1260 2210 3480
2026-04-12 22:30 2.95 460 12100 (1979) 115 (1981) 1010 151 218 282 327 631 1240 1330 1790 3040
2026-04-12 21:30 2.94 457 12100 (1979) 115 (1981) 1010 151 218 282 327 631 1240 1330 1790 3040
2026-04-12 20:30 2.94 457 12100 (1979) 115 (1981) 1010 151 218 282 327 631 1240 1330 1790 3040
2026-04-12 19:30 2.92 449 12100 (1979) 115 (1981) 1010 151 218 282 327 631 1240 1330 1790 3040
2026-04-12 18:30 2.94 457 12100 (1979) 115 (1981) 1010 151 218 282 327 631 1240 1330 1790 3040
2026-04-12 17:30 2.95 460 12100 (1979) 115 (1981) 1010 151 218 282 327 631 1240 1330 1790 3040
2026-04-12 16:30 2.99 475 12100 (1979) 115 (1981) 1010 151 218 282 327 631 1240 1330 1790 3040
2026-04-12 15:30 2.99 475 12100 (1979) 115 (1981) 1010 151 218 282 327 631 1240 1330 1790 3040
2026-04-12 14:30 3.01 482 12100 (1979) 115 (1981) 1010 151 218 282 327 631 1240 1330 1790 3040
2026-04-12 13:30 2.97 467 12100 (1979) 115 (1981) 1010 151 218 282 327 631 1240 1330 1790 3040
2026-04-12 12:30 3.03 490 12100 (1979) 115 (1981) 1010 151 218 282 327 631 1240 1330 1790 3040
2026-04-12 11:30 3.01 482 12100 (1979) 115 (1981) 1010 151 218 282 327 631 1240 1330 1790 3040
2026-04-12 10:30 3.08 509 12100 (1979) 115 (1981) 1010 151 218 282 327 631 1240 1330 1790 3040
2026-04-12 09:30 3.05 497 12100 (1979) 115 (1981) 1010 151 218 282 327 631 1240 1330 1790 3040
2026-04-12 08:30 3.02 486 12100 (1979) 115 (1981) 1010 151 218 282 327 631 1240 1330 1790 3040
2026-04-12 07:30 3.01 482 12100 (1979) 115 (1981) 1010 151 218 282 327 631 1240 1330 1790 3040
2026-04-12 06:30 3.01 482 12100 (1979) 115 (1981) 1010 151 218 282 327 631 1240 1330 1790 3040
2026-04-12 05:30 3.01 482 12100 (1979) 115 (1981) 1010 151 218 282 327 631 1240 1330 1790 3040
2026-04-12 04:30 3.01 482 12100 (1979) 115 (1981) 1010 151 218 282 327 631 1240 1330 1790 3040
2026-04-12 03:30 3.01 482 12100 (1979) 115 (1981) 1010 151 218 282 327 631 1240 1330 1790 3040
2026-04-12 02:30 3.02 486 12100 (1979) 115 (1981) 1010 151 218 282 327 631 1240 1330 1790 3040
2026-04-12 01:30 3.02 486 12100 (1979) 115 (1981) 1010 151 218 282 327 631 1240 1330 1790 3040
2026-04-12 00:30 3.02 486 12100 (1979) 115 (1981) 1010 151 218 282 327 631 1240 1330 1790 3040
2026-04-11 23:30 3.02 486 12100 (1979) 115 (1981) 1010 151 218 282 327 631 1240 1330 1790 3040
2026-04-11 22:30 3.02 486 12000 (2008) 99 (1967) 1010 129 209 296 333 608 1080 1380 1920 3440
2026-04-11 21:30 3.02 486 12000 (2008) 99 (1967) 1010 129 209 296 333 608 1080 1380 1920 3440
2026-04-11 20:30 3.00 478 12000 (2008) 99 (1967) 1010 129 209 296 333 608 1080 1380 1920 3440
2026-04-11 19:30 2.97 467 12000 (2008) 99 (1967) 1010 129 209 296 333 608 1080 1380 1920 3440
2026-04-11 18:30 2.99 475 12000 (2008) 99 (1967) 1010 129 209 296 333 608 1080 1380 1920 3440
2026-04-11 17:30 3.06 501 12000 (2008) 99 (1967) 1010 129 209 296 333 608 1080 1380 1920 3440
2026-04-11 16:30 3.06 501 12000 (2008) 99 (1967) 1010 129 209 296 333 608 1080 1380 1920 3440
2026-04-11 15:30 3.05 497 12000 (2008) 99 (1967) 1010 129 209 296 333 608 1080 1380 1920 3440
2026-04-11 14:30 3.05 497 12000 (2008) 99 (1967) 1010 129 209 296 333 608 1080 1380 1920 3440
2026-04-11 13:30 3.07 505 12000 (2008) 99 (1967) 1010 129 209 296 333 608 1080 1380 1920 3440
2026-04-11 12:30 3.07 505 12000 (2008) 99 (1967) 1010 129 209 296 333 608 1080 1380 1920 3440
2026-04-11 11:30 3.08 509 12000 (2008) 99 (1967) 1010 129 209 296 333 608 1080 1380 1920 3440
2026-04-11 10:30 3.10 516 12000 (2008) 99 (1967) 1010 129 209 296 333 608 1080 1380 1920 3440
2026-04-11 09:30 3.14 532 12000 (2008) 99 (1967) 1010 129 209 296 333 608 1080 1380 1920 3440
2026-04-11 08:30 3.16 540 12000 (2008) 99 (1967) 1010 129 209 296 333 608 1080 1380 1920 3440
2026-04-11 07:30 3.09 512 12000 (2008) 99 (1967) 1010 129 209 296 333 608 1080 1380 1920 3440
2026-04-11 06:30 3.10 516 12000 (2008) 99 (1967) 1010 129 209 296 333 608 1080 1380 1920 3440
2026-04-11 05:30 3.10 516 12000 (2008) 99 (1967) 1010 129 209 296 333 608 1080 1380 1920 3440
2026-04-11 04:30 3.10 516 12000 (2008) 99 (1967) 1010 129 209 296 333 608 1080 1380 1920 3440
2026-04-11 03:30 3.11 520 12000 (2008) 99 (1967) 1010 129 209 296 333 608 1080 1380 1920 3440
2026-04-11 02:30 3.11 520 12000 (2008) 99 (1967) 1010 129 209 296 333 608 1080 1380 1920 3440
2026-04-11 01:30 3.12 524 12000 (2008) 99 (1967) 1010 129 209 296 333 608 1080 1380 1920 3440
2026-04-11 00:30 3.13 528 12000 (2008) 99 (1967) 1010 129 209 296 333 608 1080 1380 1920 3440
2026-04-10 23:30 3.13 528 12000 (2008) 99 (1967) 1010 129 209 296 333 608 1080 1380 1920 3440
2026-04-10 22:30 3.14 532 18700 (2008) 82 (1967) 972 127 205 283 313 568 873 1100 1700 2400
2026-04-10 21:30 3.14 532 18700 (2008) 82 (1967) 972 127 205 283 313 568 873 1100 1700 2400
2026-04-10 20:30 3.13 528 18700 (2008) 82 (1967) 972 127 205 283 313 568 873 1100 1700 2400
2026-04-10 19:30 3.15 536 18700 (2008) 82 (1967) 972 127 205 283 313 568 873 1100 1700 2400
2026-04-10 18:30 3.14 532 18700 (2008) 82 (1967) 972 127 205 283 313 568 873 1100 1700 2400
2026-04-10 17:30 3.12 524 18700 (2008) 82 (1967) 972 127 205 283 313 568 873 1100 1700 2400
2026-04-10 16:30 3.10 516 18700 (2008) 82 (1967) 972 127 205 283 313 568 873 1100 1700 2400
2026-04-10 15:30 3.11 520 18700 (2008) 82 (1967) 972 127 205 283 313 568 873 1100 1700 2400
2026-04-10 14:30 3.09 512 18700 (2008) 82 (1967) 972 127 205 283 313 568 873 1100 1700 2400
2026-04-10 13:30 3.10 516 18700 (2008) 82 (1967) 972 127 205 283 313 568 873 1100 1700 2400
2026-04-10 12:30 3.10 516 18700 (2008) 82 (1967) 972 127 205 283 313 568 873 1100 1700 2400
2026-04-10 11:30 3.17 544 18700 (2008) 82 (1967) 972 127 205 283 313 568 873 1100 1700 2400
2026-04-10 10:30 3.19 552 18700 (2008) 82 (1967) 972 127 205 283 313 568 873 1100 1700 2400
2026-04-10 09:30 3.21 560 18700 (2008) 82 (1967) 972 127 205 283 313 568 873 1100 1700 2400
2026-04-10 08:30 3.21 560 18700 (2008) 82 (1967) 972 127 205 283 313 568 873 1100 1700 2400
2026-04-10 07:30 3.18 548 18700 (2008) 82 (1967) 972 127 205 283 313 568 873 1100 1700 2400
2026-04-10 06:30 3.18 548 18700 (2008) 82 (1967) 972 127 205 283 313 568 873 1100 1700 2400
2026-04-10 05:30 3.18 548 18700 (2008) 82 (1967) 972 127 205 283 313 568 873 1100 1700 2400
2026-04-10 04:30 3.19 552 18700 (2008) 82 (1967) 972 127 205 283 313 568 873 1100 1700 2400
2026-04-10 03:30 3.19 552 18700 (2008) 82 (1967) 972 127 205 283 313 568 873 1100 1700 2400
2026-04-10 02:30 3.20 556 18700 (2008) 82 (1967) 972 127 205 283 313 568 873 1100 1700 2400
2026-04-10 01:30 3.20 556 18700 (2008) 82 (1967) 972 127 205 283 313 568 873 1100 1700 2400
2026-04-10 00:30 3.20 556 18700 (2008) 82 (1967) 972 127 205 283 313 568 873 1100 1700 2400
2026-04-09 23:30 3.21 560 18700 (2008) 82 (1967) 972 127 205 283 313 568 873 1100 1700 2400
2026-04-09 22:30 3.22 564 5300 (2002) 72 (1956) 877 129 204 284 317 578 923 1070 1980 3730
2026-04-09 21:30 3.23 568 5300 (2002) 72 (1956) 877 129 204 284 317 578 923 1070 1980 3730
2026-04-09 20:30 3.24 572 5300 (2002) 72 (1956) 877 129 204 284 317 578 923 1070 1980 3730
2026-04-09 19:30 3.24 572 5300 (2002) 72 (1956) 877 129 204 284 317 578 923 1070 1980 3730
2026-04-09 18:30 3.25 576 5300 (2002) 72 (1956) 877 129 204 284 317 578 923 1070 1980 3730
2026-04-09 17:30 3.23 568 5300 (2002) 72 (1956) 877 129 204 284 317 578 923 1070 1980 3730
2026-04-09 16:30 3.25 576 5300 (2002) 72 (1956) 877 129 204 284 317 578 923 1070 1980 3730
2026-04-09 15:30 3.27 585 5300 (2002) 72 (1956) 877 129 204 284 317 578 923 1070 1980 3730
2026-04-09 14:30 3.26 580 5300 (2002) 72 (1956) 877 129 204 284 317 578 923 1070 1980 3730
2026-04-09 13:30 3.26 580 5300 (2002) 72 (1956) 877 129 204 284 317 578 923 1070 1980 3730
2026-04-09 12:30 3.31 601 5300 (2002) 72 (1956) 877 129 204 284 317 578 923 1070 1980 3730
2026-04-09 11:30 3.27 585 5300 (2002) 72 (1956) 877 129 204 284 317 578 923 1070 1980 3730
2026-04-09 10:30 3.29 593 5300 (2002) 72 (1956) 877 129 204 284 317 578 923 1070 1980 3730
2026-04-09 09:30 3.32 606 5300 (2002) 72 (1956) 877 129 204 284 317 578 923 1070 1980 3730
2026-04-09 08:30 3.33 610 5300 (2002) 72 (1956) 877 129 204 284 317 578 923 1070 1980 3730
2026-04-09 07:30 3.34 614 5300 (2002) 72 (1956) 877 129 204 284 317 578 923 1070 1980 3730
2026-04-09 06:30 3.34 614 5300 (2002) 72 (1956) 877 129 204 284 317 578 923 1070 1980 3730
2026-04-09 05:30 3.35 619 5300 (2002) 72 (1956) 877 129 204 284 317 578 923 1070 1980 3730
2026-04-09 04:30 3.35 619 5300 (2002) 72 (1956) 877 129 204 284 317 578 923 1070 1980 3730
2026-04-09 03:30 3.35 619 5300 (2002) 72 (1956) 877 129 204 284 317 578 923 1070 1980 3730
2026-04-09 02:30 3.36 623 5300 (2002) 72 (1956) 877 129 204 284 317 578 923 1070 1980 3730
2026-04-09 01:30 3.37 627 5300 (2002) 72 (1956) 877 129 204 284 317 578 923 1070 1980 3730
2026-04-09 00:30 3.37 627 5300 (2002) 72 (1956) 877 129 204 284 317 578 923 1070 1980 3730
2026-04-08 23:30 3.38 632 5300 (2002) 72 (1956) 877 129 204 284 317 578 923 1070 1980 3730
2026-04-08 22:30 3.38 632 12800 (2002) 38 (1956) 1070 128 204 296 332 601 967 1240 1730 2500
2026-04-08 21:30 3.39 636 12800 (2002) 38 (1956) 1070 128 204 296 332 601 967 1240 1730 2500
2026-04-08 20:30 3.40 640 12800 (2002) 38 (1956) 1070 128 204 296 332 601 967 1240 1730 2500
2026-04-08 19:30 3.39 636 12800 (2002) 38 (1956) 1070 128 204 296 332 601 967 1240 1730 2500
2026-04-08 18:30 3.37 627 12800 (2002) 38 (1956) 1070 128 204 296 332 601 967 1240 1730 2500
2026-04-08 17:30 3.40 640 12800 (2002) 38 (1956) 1070 128 204 296 332 601 967 1240 1730 2500
2026-04-08 16:30 3.43 654 12800 (2002) 38 (1956) 1070 128 204 296 332 601 967 1240 1730 2500
2026-04-08 15:30 3.40 640 12800 (2002) 38 (1956) 1070 128 204 296 332 601 967 1240 1730 2500
2026-04-08 14:30 3.44 658 12800 (2002) 38 (1956) 1070 128 204 296 332 601 967 1240 1730 2500
2026-04-08 13:30 3.47 672 12800 (2002) 38 (1956) 1070 128 204 296 332 601 967 1240 1730 2500
2026-04-08 12:30 3.44 658 12800 (2002) 38 (1956) 1070 128 204 296 332 601 967 1240 1730 2500
2026-04-08 11:30 3.50 685 12800 (2002) 38 (1956) 1070 128 204 296 332 601 967 1240 1730 2500
2026-04-08 10:30 3.51 690 12800 (2002) 38 (1956) 1070 128 204 296 332 601 967 1240 1730 2500
2026-04-08 09:30 3.53 699 12800 (2002) 38 (1956) 1070 128 204 296 332 601 967 1240 1730 2500
2026-04-08 08:30 3.54 704 12800 (2002) 38 (1956) 1070 128 204 296 332 601 967 1240 1730 2500
2026-04-08 07:30 3.55 709 12800 (2002) 38 (1956) 1070 128 204 296 332 601 967 1240 1730 2500
2026-04-08 06:30 3.56 713 12800 (2002) 38 (1956) 1070 128 204 296 332 601 967 1240 1730 2500
2026-04-08 05:30 3.56 713 12800 (2002) 38 (1956) 1070 128 204 296 332 601 967 1240 1730 2500
2026-04-08 04:30 3.57 718 12800 (2002) 38 (1956) 1070 128 204 296 332 601 967 1240 1730 2500
2026-04-08 03:30 3.58 723 12800 (2002) 38 (1956) 1070 128 204 296 332 601 967 1240 1730 2500
2026-04-08 02:30 3.59 728 12800 (2002) 38 (1956) 1070 128 204 296 332 601 967 1240 1730 2500
2026-04-08 01:30 3.59 728 12800 (2002) 38 (1956) 1070 128 204 296 332 601 967 1240 1730 2500
2026-04-08 00:30 3.60 732 12800 (2002) 38 (1956) 1070 128 204 296 332 601 967 1240 1730 2500
2026-04-07 23:30 3.61 737 12800 (2002) 38 (1956) 1070 128 204 296 332 601 967 1240 1730 2500
2026-04-07 22:30 3.62 742 3530 (1965) 18 (1956) 807 137 206 290 343 643 996 1110 1830 2000
2026-04-07 21:30 3.63 747 3530 (1965) 18 (1956) 807 137 206 290 343 643 996 1110 1830 2000
2026-04-07 20:30 3.64 752 3530 (1965) 18 (1956) 807 137 206 290 343 643 996 1110 1830 2000
2026-04-07 19:30 3.65 757 3530 (1965) 18 (1956) 807 137 206 290 343 643 996 1110 1830 2000
2026-04-07 18:30 3.66 761 3530 (1965) 18 (1956) 807 137 206 290 343 643 996 1110 1830 2000
2026-04-07 17:30 3.68 771 3530 (1965) 18 (1956) 807 137 206 290 343 643 996 1110 1830 2000
2026-04-07 16:30 3.69 776 3530 (1965) 18 (1956) 807 137 206 290 343 643 996 1110 1830 2000
2026-04-07 15:30 3.73 796 3530 (1965) 18 (1956) 807 137 206 290 343 643 996 1110 1830 2000
2026-04-07 14:30 3.71 786 3530 (1965) 18 (1956) 807 137 206 290 343 643 996 1110 1830 2000
2026-04-07 13:30 3.72 791 3530 (1965) 18 (1956) 807 137 206 290 343 643 996 1110 1830 2000
2026-04-07 12:30 3.75 806 3530 (1965) 18 (1956) 807 137 206 290 343 643 996 1110 1830 2000
2026-04-07 11:30 3.77 793 3530 (1965) 18 (1956) 807 137 206 290 343 643 996 1110 1830 2000
2026-04-07 10:30 3.77 793 3530 (1965) 18 (1956) 807 137 206 290 343 643 996 1110 1830 2000
2026-04-07 09:30 3.75 785 3530 (1965) 18 (1956) 807 137 206 290 343 643 996 1110 1830 2000
2026-04-07 08:30 3.81 810 3530 (1965) 18 (1956) 807 137 206 290 343 643 996 1110 1830 2000
2026-04-07 07:30 3.82 814 3530 (1965) 18 (1956) 807 137 206 290 343 643 996 1110 1830 2000
2026-04-07 06:30 3.83 819 3530 (1965) 18 (1956) 807 137 206 290 343 643 996 1110 1830 2000
2026-04-07 05:30 3.85 827 3530 (1965) 18 (1956) 807 137 206 290 343 643 996 1110 1830 2000
2026-04-07 04:30 3.87 836 3530 (1965) 18 (1956) 807 137 206 290 343 643 996 1110 1830 2000
2026-04-07 03:30 3.87 836 3530 (1965) 18 (1956) 807 137 206 290 343 643 996 1110 1830 2000
2026-04-07 02:30 3.88 840 3530 (1965) 18 (1956) 807 137 206 290 343 643 996 1110 1830 2000
2026-04-07 01:30 3.89 844 3530 (1965) 18 (1956) 807 137 206 290 343 643 996 1110 1830 2000
2026-04-07 00:30 3.91 853 3530 (1965) 18 (1956) 807 137 206 290 343 643 996 1110 1830 2000
2026-04-06 23:30 3.92 857 3530 (1965) 18 (1956) 807 137 206 290 343 643 996 1110 1830 2000
2026-04-06 22:30 3.93 862 11500 (2025) 15 (1956) 1070 149 201 276 350 698 1100 1310 2110 2690
2026-04-06 21:30 3.95 871 11500 (2025) 15 (1956) 1070 149 201 276 350 698 1100 1310 2110 2690
2026-04-06 20:30 3.97 880 11500 (2025) 15 (1956) 1070 149 201 276 350 698 1100 1310 2110 2690
2026-04-06 19:30 3.98 884 11500 (2025) 15 (1956) 1070 149 201 276 350 698 1100 1310 2110 2690
2026-04-06 18:30 4.01 897 11500 (2025) 15 (1956) 1070 149 201 276 350 698 1100 1310 2110 2690
2026-04-06 17:30 4.03 906 11500 (2025) 15 (1956) 1070 149 201 276 350 698 1100 1310 2110 2690
2026-04-06 16:30 4.04 911 11500 (2025) 15 (1956) 1070 149 201 276 350 698 1100 1310 2110 2690
2026-04-06 15:30 4.00 893 11500 (2025) 15 (1956) 1070 149 201 276 350 698 1100 1310 2110 2690
2026-04-06 14:30 3.89 844 11500 (2025) 15 (1956) 1070 149 201 276 350 698 1100 1310 2110 2690
2026-04-06 13:30 4.15 962 11500 (2025) 15 (1956) 1070 149 201 276 350 698 1100 1310 2110 2690
2026-04-06 12:30 4.31 1040 11500 (2025) 15 (1956) 1070 149 201 276 350 698 1100 1310 2110 2690
2026-04-06 11:30 4.19 981 11500 (2025) 15 (1956) 1070 149 201 276 350 698 1100 1310 2110 2690
2026-04-06 10:30 4.18 976 11500 (2025) 15 (1956) 1070 149 201 276 350 698 1100 1310 2110 2690
2026-04-06 09:30 4.07 925 11500 (2025) 15 (1956) 1070 149 201 276 350 698 1100 1310 2110 2690
2026-04-06 08:30 4.04 911 11500 (2025) 15 (1956) 1070 149 201 276 350 698 1100 1310 2110 2690
2026-04-06 07:30 4.35 1060 11500 (2025) 15 (1956) 1070 149 201 276 350 698 1100 1310 2110 2690
2026-04-06 06:30 4.38 1070 11500 (2025) 15 (1956) 1070 149 201 276 350 698 1100 1310 2110 2690
2026-04-06 05:30 4.41 1090 11500 (2025) 15 (1956) 1070 149 201 276 350 698 1100 1310 2110 2690
2026-04-06 04:30 4.45 1110 11500 (2025) 15 (1956) 1070 149 201 276 350 698 1100 1310 2110 2690
2026-04-06 03:30 4.49 1130 11500 (2025) 15 (1956) 1070 149 201 276 350 698 1100 1310 2110 2690
2026-04-06 02:30 4.52 1150 11500 (2025) 15 (1956) 1070 149 201 276 350 698 1100 1310 2110 2690
2026-04-06 01:30 4.56 1170 11500 (2025) 15 (1956) 1070 149 201 276 350 698 1100 1310 2110 2690
2026-04-06 00:30 4.60 1190 11500 (2025) 15 (1956) 1070 149 201 276 350 698 1100 1310 2110 2690
2026-04-05 23:30 4.64 1210 11500 (2025) 15 (1956) 1070 149 201 276 350 698 1100 1310 2110 2690
2026-04-05 22:30 4.69 1240 15300 (2025) 15 (1956) 1180 150 207 291 359 686 1130 1230 2510 4140
2026-04-05 21:30 4.74 1260 15300 (2025) 15 (1956) 1180 150 207 291 359 686 1130 1230 2510 4140
2026-04-05 20:30 4.79 1290 15300 (2025) 15 (1956) 1180 150 207 291 359 686 1130 1230 2510 4140
2026-04-05 19:30 4.85 1330 15300 (2025) 15 (1956) 1180 150 207 291 359 686 1130 1230 2510 4140
2026-04-05 18:30 4.90 1350 15300 (2025) 15 (1956) 1180 150 207 291 359 686 1130 1230 2510 4140
2026-04-05 17:30 4.97 1400 15300 (2025) 15 (1956) 1180 150 207 291 359 686 1130 1230 2510 4140
2026-04-05 16:30 5.04 1440 15300 (2025) 15 (1956) 1180 150 207 291 359 686 1130 1230 2510 4140
2026-04-05 15:30 5.12 1490 15300 (2025) 15 (1956) 1180 150 207 291 359 686 1130 1230 2510 4140
2026-04-05 14:30 5.20 1540 15300 (2025) 15 (1956) 1180 150 207 291 359 686 1130 1230 2510 4140
2026-04-05 13:30 5.29 1590 15300 (2025) 15 (1956) 1180 150 207 291 359 686 1130 1230 2510 4140
2026-04-05 12:30 5.39 1660 15300 (2025) 15 (1956) 1180 150 207 291 359 686 1130 1230 2510 4140
2026-04-05 11:30 5.49 1720 15300 (2025) 15 (1956) 1180 150 207 291 359 686 1130 1230 2510 4140
2026-04-05 10:30 5.62 1830 15300 (2025) 15 (1956) 1180 150 207 291 359 686 1130 1230 2510 4140
2026-04-05 09:30 5.75 1940 15300 (2025) 15 (1956) 1180 150 207 291 359 686 1130 1230 2510 4140
2026-04-05 08:30 5.91 2080 15300 (2025) 15 (1956) 1180 150 207 291 359 686 1130 1230 2510 4140
2026-04-05 07:30 6.06 2210 15300 (2025) 15 (1956) 1180 150 207 291 359 686 1130 1230 2510 4140
2026-04-05 06:30 6.23 2370 15300 (2025) 15 (1956) 1180 150 207 291 359 686 1130 1230 2510 4140
2026-04-05 05:30 6.43 2570 15300 (2025) 15 (1956) 1180 150 207 291 359 686 1130 1230 2510 4140
2026-04-05 04:30 6.66 2800 15300 (2025) 15 (1956) 1180 150 207 291 359 686 1130 1230 2510 4140
2026-04-05 03:30 6.90 3050 15300 (2025) 15 (1956) 1180 150 207 291 359 686 1130 1230 2510 4140
2026-04-05 02:30 7.18 3330 15300 (2025) 15 (1956) 1180 150 207 291 359 686 1130 1230 2510 4140
2026-04-05 01:30 7.50 3660 15300 (2025) 15 (1956) 1180 150 207 291 359 686 1130 1230 2510 4140
2026-04-05 00:30 7.87 4050 15300 (2025) 15 (1956) 1180 150 207 291 359 686 1130 1230 2510 4140
2026-04-04 23:30 8.21 4420 15300 (2025) 15 (1956) 1180 150 207 291 359 686 1130 1230 2510 4140
2026-04-04 22:30 8.48 4730 16000 (1957) 14 (1956) 1220 145 206 300 372 721 1180 1400 2910 4040
2026-04-04 21:30 8.61 4880 16000 (1957) 14 (1956) 1220 145 206 300 372 721 1180 1400 2910 4040
2026-04-04 20:30 8.56 4820 16000 (1957) 14 (1956) 1220 145 206 300 372 721 1180 1400 2910 4040
2026-04-04 19:30 8.33 4560 16000 (1957) 14 (1956) 1220 145 206 300 372 721 1180 1400 2910 4040
2026-04-04 18:30 7.98 4170 16000 (1957) 14 (1956) 1220 145 206 300 372 721 1180 1400 2910 4040
2026-04-04 17:30 7.51 3670 16000 (1957) 14 (1956) 1220 145 206 300 372 721 1180 1400 2910 4040
2026-04-04 16:30 6.88 3020 16000 (1957) 14 (1956) 1220 145 206 300 372 721 1180 1400 2910 4040
2026-04-04 15:30 5.82 2000 16000 (1957) 14 (1956) 1220 145 206 300 372 721 1180 1400 2910 4040
2026-04-04 14:30 4.27 1020 16000 (1957) 14 (1956) 1220 145 206 300 372 721 1180 1400 2910 4040
2026-04-04 13:30 3.50 685 16000 (1957) 14 (1956) 1220 145 206 300 372 721 1180 1400 2910 4040
2026-04-04 12:30 3.19 552 16000 (1957) 14 (1956) 1220 145 206 300 372 721 1180 1400 2910 4040
2026-04-04 11:30 3.15 536 16000 (1957) 14 (1956) 1220 145 206 300 372 721 1180 1400 2910 4040
2026-04-04 10:30 2.96 464 16000 (1957) 14 (1956) 1220 145 206 300 372 721 1180 1400 2910 4040
2026-04-04 09:30 2.92 449 16000 (1957) 14 (1956) 1220 145 206 300 372 721 1180 1400 2910 4040
2026-04-04 08:30 2.91 446 16000 (1957) 14 (1956) 1220 145 206 300 372 721 1180 1400 2910 4040
2026-04-04 07:30 2.82 415 16000 (1957) 14 (1956) 1220 145 206 300 372 721 1180 1400 2910 4040
2026-04-04 06:30 2.81 411 16000 (1957) 14 (1956) 1220 145 206 300 372 721 1180 1400 2910 4040
2026-04-04 05:30 2.78 401 16000 (1957) 14 (1956) 1220 145 206 300 372 721 1180 1400 2910 4040
2026-04-04 04:30 2.81 411 16000 (1957) 14 (1956) 1220 145 206 300 372 721 1180 1400 2910 4040
2026-04-04 03:30 2.76 395 16000 (1957) 14 (1956) 1220 145 206 300 372 721 1180 1400 2910 4040
2026-04-04 02:30 2.70 375 16000 (1957) 14 (1956) 1220 145 206 300 372 721 1180 1400 2910 4040
2026-04-04 01:30 2.66 363 16000 (1957) 14 (1956) 1220 145 206 300 372 721 1180 1400 2910 4040
2026-04-04 00:30 2.65 360 16000 (1957) 14 (1956) 1220 145 206 300 372 721 1180 1400 2910 4040
2026-04-03 23:30 2.63 354 16000 (1957) 14 (1956) 1220 145 206 300 372 721 1180 1400 2910 4040
2026-04-03 22:30 2.60 344 22800 (1957) 14 (1956) 1240 122 206 319 358 728 1270 1350 2420 2760
2026-04-03 21:30 2.54 327 22800 (1957) 14 (1956) 1240 122 206 319 358 728 1270 1350 2420 2760
2026-04-03 20:30 2.47 307 22800 (1957) 14 (1956) 1240 122 206 319 358 728 1270 1350 2420 2760
2026-04-03 19:30 2.43 295 22800 (1957) 14 (1956) 1240 122 206 319 358 728 1270 1350 2420 2760
2026-04-03 18:30 2.54 327 22800 (1957) 14 (1956) 1240 122 206 319 358 728 1270 1350 2420 2760
2026-04-03 17:30 2.74 388 22800 (1957) 14 (1956) 1240 122 206 319 358 728 1270 1350 2420 2760
2026-04-03 16:30 2.77 398 22800 (1957) 14 (1956) 1240 122 206 319 358 728 1270 1350 2420 2760
2026-04-03 15:30 2.65 360 22800 (1957) 14 (1956) 1240 122 206 319 358 728 1270 1350 2420 2760
2026-04-03 14:30 2.64 357 22800 (1957) 14 (1956) 1240 122 206 319 358 728 1270 1350 2420 2760
2026-04-03 13:30 2.65 360 22800 (1957) 14 (1956) 1240 122 206 319 358 728 1270 1350 2420 2760
2026-04-03 12:30 2.68 369 22800 (1957) 14 (1956) 1240 122 206 319 358 728 1270 1350 2420 2760
2026-04-03 11:30 2.74 388 22800 (1957) 14 (1956) 1240 122 206 319 358 728 1270 1350 2420 2760
2026-04-03 10:30 2.79 405 22800 (1957) 14 (1956) 1240 122 206 319 358 728 1270 1350 2420 2760
2026-04-03 09:30 2.80 408 22800 (1957) 14 (1956) 1240 122 206 319 358 728 1270 1350 2420 2760
2026-04-03 08:30 2.78 401 22800 (1957) 14 (1956) 1240 122 206 319 358 728 1270 1350 2420 2760
2026-04-03 07:30 2.69 372 22800 (1957) 14 (1956) 1240 122 206 319 358 728 1270 1350 2420 2760
2026-04-03 06:30 2.70 375 22800 (1957) 14 (1956) 1240 122 206 319 358 728 1270 1350 2420 2760
2026-04-03 05:30 2.70 375 22800 (1957) 14 (1956) 1240 122 206 319 358 728 1270 1350 2420 2760
2026-04-03 04:30 2.70 375 22800 (1957) 14 (1956) 1240 122 206 319 358 728 1270 1350 2420 2760
2026-04-03 03:30 2.71 379 22800 (1957) 14 (1956) 1240 122 206 319 358 728 1270 1350 2420 2760
2026-04-03 02:30 2.71 379 22800 (1957) 14 (1956) 1240 122 206 319 358 728 1270 1350 2420 2760
2026-04-03 01:30 2.71 379 22800 (1957) 14 (1956) 1240 122 206 319 358 728 1270 1350 2420 2760
2026-04-03 00:30 2.71 379 22800 (1957) 14 (1956) 1240 122 206 319 358 728 1270 1350 2420 2760
2026-04-02 23:30 2.71 379 22800 (1957) 14 (1956) 1240 122 206 319 358 728 1270 1350 2420 2760
2026-04-02 22:30 2.71 379 4250 (1988) 14 (1956) 878 127 212 328 349 679 1080 1160 1650 2600
2026-04-02 21:30 2.69 372 4250 (1988) 14 (1956) 878 127 212 328 349 679 1080 1160 1650 2600
2026-04-02 20:30 2.68 369 4250 (1988) 14 (1956) 878 127 212 328 349 679 1080 1160 1650 2600
2026-04-02 19:30 2.67 366 4250 (1988) 14 (1956) 878 127 212 328 349 679 1080 1160 1650 2600
2026-04-02 18:30 2.65 360 4250 (1988) 14 (1956) 878 127 212 328 349 679 1080 1160 1650 2600
2026-04-02 17:30 2.68 369 4250 (1988) 14 (1956) 878 127 212 328 349 679 1080 1160 1650 2600
2026-04-02 16:30 2.69 372 4250 (1988) 14 (1956) 878 127 212 328 349 679 1080 1160 1650 2600
2026-04-02 15:30 2.68 369 4250 (1988) 14 (1956) 878 127 212 328 349 679 1080 1160 1650 2600
2026-04-02 14:30 2.69 372 4250 (1988) 14 (1956) 878 127 212 328 349 679 1080 1160 1650 2600
2026-04-02 13:30 2.72 382 4250 (1988) 14 (1956) 878 127 212 328 349 679 1080 1160 1650 2600
2026-04-02 12:30 2.72 382 4250 (1988) 14 (1956) 878 127 212 328 349 679 1080 1160 1650 2600
2026-04-02 11:30 2.75 392 4250 (1988) 14 (1956) 878 127 212 328 349 679 1080 1160 1650 2600
2026-04-02 09:30 2.72 382 4250 (1988) 14 (1956) 878 127 212 328 349 679 1080 1160 1650 2600
2026-04-02 08:30 2.71 379 4250 (1988) 14 (1956) 878 127 212 328 349 679 1080 1160 1650 2600
2026-04-02 07:30 2.77 398 4250 (1988) 14 (1956) 878 127 212 328 349 679 1080 1160 1650 2600
2026-04-02 06:30 2.76 395 4250 (1988) 14 (1956) 878 127 212 328 349 679 1080 1160 1650 2600
2026-04-02 05:30 2.72 382 4250 (1988) 14 (1956) 878 127 212 328 349 679 1080 1160 1650 2600
2026-04-02 04:30 2.74 388 4250 (1988) 14 (1956) 878 127 212 328 349 679 1080 1160 1650 2600
2026-04-02 03:30 2.73 385 4250 (1988) 14 (1956) 878 127 212 328 349 679 1080 1160 1650 2600
2026-04-02 02:30 2.69 372 4250 (1988) 14 (1956) 878 127 212 328 349 679 1080 1160 1650 2600
2026-04-02 01:30 2.71 379 4250 (1988) 14 (1956) 878 127 212 328 349 679 1080 1160 1650 2600
2026-04-02 00:30 2.68 369 4250 (1988) 14 (1956) 878 127 212 328 349 679 1080 1160 1650 2600
2026-04-01 23:30 2.70 375 4250 (1988) 14 (1956) 878 127 212 328 349 679 1080 1160 1650 2600
2026-04-01 22:30 2.67 366 11600 (2008) 14 (1956) 1030 122 199 280 340 716 1170 1310 2040 2770
2026-04-01 21:30 2.68 369 11600 (2008) 14 (1956) 1030 122 199 280 340 716 1170 1310 2040 2770
2026-04-01 20:30 2.65 360 11600 (2008) 14 (1956) 1030 122 199 280 340 716 1170 1310 2040 2770
2026-04-01 19:30 2.60 344 11600 (2008) 14 (1956) 1030 122 199 280 340 716 1170 1310 2040 2770
2026-04-01 18:30 2.57 335 11600 (2008) 14 (1956) 1030 122 199 280 340 716 1170 1310 2040 2770
2026-04-01 17:30 2.69 372 11600 (2008) 14 (1956) 1030 122 199 280 340 716 1170 1310 2040 2770
2026-04-01 16:30 2.71 379 11600 (2008) 14 (1956) 1030 122 199 280 340 716 1170 1310 2040 2770
2026-04-01 15:30 2.73 385 11600 (2008) 14 (1956) 1030 122 199 280 340 716 1170 1310 2040 2770
2026-04-01 14:30 2.79 405 11600 (2008) 14 (1956) 1030 122 199 280 340 716 1170 1310 2040 2770
2026-04-01 13:30 2.86 428 11600 (2008) 14 (1956) 1030 122 199 280 340 716 1170 1310 2040 2770
2026-04-01 12:30 2.88 435 11600 (2008) 14 (1956) 1030 122 199 280 340 716 1170 1310 2040 2770
2026-04-01 11:30 2.66 363 11600 (2008) 14 (1956) 1030 122 199 280 340 716 1170 1310 2040 2770
2026-04-01 10:30 2.68 369 11600 (2008) 14 (1956) 1030 122 199 280 340 716 1170 1310 2040 2770
2026-04-01 09:30 2.68 369 11600 (2008) 14 (1956) 1030 122 199 280 340 716 1170 1310 2040 2770
2026-04-01 08:30 2.72 382 11600 (2008) 14 (1956) 1030 122 199 280 340 716 1170 1310 2040 2770
2026-04-01 07:30 2.72 382 11600 (2008) 14 (1956) 1030 122 199 280 340 716 1170 1310 2040 2770
2026-04-01 06:30 2.72 382 11600 (2008) 14 (1956) 1030 122 199 280 340 716 1170 1310 2040 2770
2026-04-01 05:30 2.72 382 11600 (2008) 14 (1956) 1030 122 199 280 340 716 1170 1310 2040 2770
2026-04-01 04:30 2.72 382 11600 (2008) 14 (1956) 1030 122 199 280 340 716 1170 1310 2040 2770
2026-04-01 03:30 2.72 382 11600 (2008) 14 (1956) 1030 122 199 280 340 716 1170 1310 2040 2770
2026-04-01 02:30 2.72 382 11600 (2008) 14 (1956) 1030 122 199 280 340 716 1170 1310 2040 2770
2026-04-01 01:30 2.72 382 11600 (2008) 14 (1956) 1030 122 199 280 340 716 1170 1310 2040 2770
2026-04-01 00:30 2.71 379 11600 (2008) 14 (1956) 1030 122 199 280 340 716 1170 1310 2040 2770
2026-03-31 23:30 2.71 379 11600 (2008) 14 (1956) 1030 122 199 280 340 716 1170 1310 2040 2770
2026-03-31 22:30 2.70 375 8330 (1985) 14 (1956) 1100 127 216 311 342 712 1360 1550 2910 3450
2026-03-31 21:30 2.67 366 8330 (1985) 14 (1956) 1100 127 216 311 342 712 1360 1550 2910 3450
2026-03-31 20:30 2.60 344 8330 (1985) 14 (1956) 1100 127 216 311 342 712 1360 1550 2910 3450
2026-03-31 19:30 2.49 312 8330 (1985) 14 (1956) 1100 127 216 311 342 712 1360 1550 2910 3450
2026-03-31 18:30 2.54 327 8330 (1985) 14 (1956) 1100 127 216 311 342 712 1360 1550 2910 3450
2026-03-31 17:30 2.72 382 8330 (1985) 14 (1956) 1100 127 216 311 342 712 1360 1550 2910 3450
2026-03-31 16:30 2.76 395 8330 (1985) 14 (1956) 1100 127 216 311 342 712 1360 1550 2910 3450
2026-03-31 15:30 2.78 401 8330 (1985) 14 (1956) 1100 127 216 311 342 712 1360 1550 2910 3450
2026-03-31 14:30 2.80 408 8330 (1985) 14 (1956) 1100 127 216 311 342 712 1360 1550 2910 3450
2026-03-31 13:30 2.68 369 8330 (1985) 14 (1956) 1100 127 216 311 342 712 1360 1550 2910 3450
2026-03-31 12:30 2.70 375 8330 (1985) 14 (1956) 1100 127 216 311 342 712 1360 1550 2910 3450
2026-03-31 11:30 2.71 379 8330 (1985) 14 (1956) 1100 127 216 311 342 712 1360 1550 2910 3450
2026-03-31 10:30 2.70 375 8330 (1985) 14 (1956) 1100 127 216 311 342 712 1360 1550 2910 3450
2026-03-31 09:30 2.70 375 8330 (1985) 14 (1956) 1100 127 216 311 342 712 1360 1550 2910 3450
2026-03-31 08:30 2.74 388 8330 (1985) 14 (1956) 1100 127 216 311 342 712 1360 1550 2910 3450
2026-03-31 07:30 2.74 388 8330 (1985) 14 (1956) 1100 127 216 311 342 712 1360 1550 2910 3450
2026-03-31 06:30 2.74 388 8330 (1985) 14 (1956) 1100 127 216 311 342 712 1360 1550 2910 3450
2026-03-31 05:30 2.74 388 8330 (1985) 14 (1956) 1100 127 216 311 342 712 1360 1550 2910 3450
2026-03-31 04:30 2.70 375 8330 (1985) 14 (1956) 1100 127 216 311 342 712 1360 1550 2910 3450
2026-03-31 03:30 2.71 379 8330 (1985) 14 (1956) 1100 127 216 311 342 712 1360 1550 2910 3450
2026-03-31 02:30 2.70 375 8330 (1985) 14 (1956) 1100 127 216 311 342 712 1360 1550 2910 3450
2026-03-31 01:30 2.72 382 8330 (1985) 14 (1956) 1100 127 216 311 342 712 1360 1550 2910 3450
2026-03-31 00:30 2.74 388 8330 (1985) 14 (1956) 1100 127 216 311 342 712 1360 1550 2910 3450
2026-03-30 23:30 2.73 385 8330 (1985) 14 (1956) 1100 127 216 311 342 712 1360 1550 2910 3450
2026-03-30 22:30 2.72 382 13900 (1985) 14 (1956) 1260 145 219 295 354 762 1400 1520 2110 4090
2026-03-30 21:30 2.70 375 13900 (1985) 14 (1956) 1260 145 219 295 354 762 1400 1520 2110 4090
2026-03-30 20:30 2.69 372 13900 (1985) 14 (1956) 1260 145 219 295 354 762 1400 1520 2110 4090
2026-03-30 19:30 2.68 369 13900 (1985) 14 (1956) 1260 145 219 295 354 762 1400 1520 2110 4090
2026-03-30 18:30 2.94 457 13900 (1985) 14 (1956) 1260 145 219 295 354 762 1400 1520 2110 4090
2026-03-30 17:30 2.95 460 13900 (1985) 14 (1956) 1260 145 219 295 354 762 1400 1520 2110 4090
2026-03-30 16:30 2.49 312 13900 (1985) 14 (1956) 1260 145 219 295 354 762 1400 1520 2110 4090
2026-03-30 15:30 2.79 405 13900 (1985) 14 (1956) 1260 145 219 295 354 762 1400 1520 2110 4090
2026-03-30 14:30 2.40 287 13900 (1985) 14 (1956) 1260 145 219 295 354 762 1400 1520 2110 4090
2026-03-30 13:30 2.44 298 13900 (1985) 14 (1956) 1260 145 219 295 354 762 1400 1520 2110 4090
2026-03-30 12:30 2.72 382 13900 (1985) 14 (1956) 1260 145 219 295 354 762 1400 1520 2110 4090
2026-03-30 11:30 2.73 385 13900 (1985) 14 (1956) 1260 145 219 295 354 762 1400 1520 2110 4090
2026-03-30 10:30 2.79 405 13900 (1985) 14 (1956) 1260 145 219 295 354 762 1400 1520 2110 4090
2026-03-30 09:30 2.81 411 13900 (1985) 14 (1956) 1260 145 219 295 354 762 1400 1520 2110 4090
2026-03-30 08:30 2.75 392 13900 (1985) 14 (1956) 1260 145 219 295 354 762 1400 1520 2110 4090
2026-03-30 07:30 2.75 392 13900 (1985) 14 (1956) 1260 145 219 295 354 762 1400 1520 2110 4090
2026-03-30 06:30 2.75 392 13900 (1985) 14 (1956) 1260 145 219 295 354 762 1400 1520 2110 4090
2026-03-30 05:30 2.75 392 13900 (1985) 14 (1956) 1260 145 219 295 354 762 1400 1520 2110 4090
2026-03-30 04:30 2.75 392 13900 (1985) 14 (1956) 1260 145 219 295 354 762 1400 1520 2110 4090
2026-03-30 03:30 2.75 392 13900 (1985) 14 (1956) 1260 145 219 295 354 762 1400 1520 2110 4090
2026-03-30 02:30 2.75 392 13900 (1985) 14 (1956) 1260 145 219 295 354 762 1400 1520 2110 4090
2026-03-30 01:30 2.76 395 13900 (1985) 14 (1956) 1260 145 219 295 354 762 1400 1520 2110 4090
2026-03-30 00:30 2.76 395 13900 (1985) 14 (1956) 1260 145 219 295 354 762 1400 1520 2110 4090
2026-03-29 23:30 2.75 392 13900 (1985) 14 (1956) 1260 145 219 295 354 762 1400 1520 2110 4090
2026-03-29 22:30 2.75 392 11200 (1988) 14 (1956) 1180 142 210 295 357 752 1280 1460 2460 4050
2026-03-29 21:30 2.73 385 11200 (1988) 14 (1956) 1180 142 210 295 357 752 1280 1460 2460 4050
2026-03-29 20:30 2.68 369 11200 (1988) 14 (1956) 1180 142 210 295 357 752 1280 1460 2460 4050
2026-03-29 19:30 2.62 350 11200 (1988) 14 (1956) 1180 142 210 295 357 752 1280 1460 2460 4050
2026-03-29 18:30 2.75 392 11200 (1988) 14 (1956) 1180 142 210 295 357 752 1280 1460 2460 4050
2026-03-29 17:30 2.79 405 11200 (1988) 14 (1956) 1180 142 210 295 357 752 1280 1460 2460 4050
2026-03-29 16:30 2.79 405 11200 (1988) 14 (1956) 1180 142 210 295 357 752 1280 1460 2460 4050
2026-03-29 15:30 2.84 422 11200 (1988) 14 (1956) 1180 142 210 295 357 752 1280 1460 2460 4050
2026-03-29 14:30 2.75 392 11200 (1988) 14 (1956) 1180 142 210 295 357 752 1280 1460 2460 4050
2026-03-29 13:30 2.77 398 11200 (1988) 14 (1956) 1180 142 210 295 357 752 1280 1460 2460 4050
2026-03-29 12:30 2.81 411 11200 (1988) 14 (1956) 1180 142 210 295 357 752 1280 1460 2460 4050
2026-03-29 11:30 2.81 411 11200 (1988) 14 (1956) 1180 142 210 295 357 752 1280 1460 2460 4050
2026-03-29 10:30 2.82 415 11200 (1988) 14 (1956) 1180 142 210 295 357 752 1280 1460 2460 4050
2026-03-29 09:30 2.84 422 11200 (1988) 14 (1956) 1180 142 210 295 357 752 1280 1460 2460 4050
2026-03-29 08:30 2.84 422 11200 (1988) 14 (1956) 1180 142 210 295 357 752 1280 1460 2460 4050
2026-03-29 07:30 2.80 408 11200 (1988) 14 (1956) 1180 142 210 295 357 752 1280 1460 2460 4050
2026-03-29 06:30 2.79 405 11200 (1988) 14 (1956) 1180 142 210 295 357 752 1280 1460 2460 4050
2026-03-29 05:30 2.79 405 11200 (1988) 14 (1956) 1180 142 210 295 357 752 1280 1460 2460 4050
2026-03-29 04:30 2.79 405 11200 (1988) 14 (1956) 1180 142 210 295 357 752 1280 1460 2460 4050
2026-03-29 03:30 2.79 405 11200 (1988) 14 (1956) 1180 142 210 295 357 752 1280 1460 2460 4050
2026-03-29 02:30 2.79 405 11200 (1988) 14 (1956) 1180 142 210 295 357 752 1280 1460 2460 4050
2026-03-29 01:30 2.78 401 11200 (1988) 14 (1956) 1180 142 210 295 357 752 1280 1460 2460 4050
2026-03-29 00:30 2.78 401 11200 (1988) 14 (1956) 1180 142 210 295 357 752 1280 1460 2460 4050
2026-03-28 23:30 2.76 395 11200 (1988) 14 (1956) 1180 142 210 295 357 752 1280 1460 2460 4050
2026-03-28 22:30 2.73 385 12800 (2018) 15 (1956) 1220 128 204 296 351 740 1400 1550 1900 5240
2026-03-28 21:30 2.74 388 12800 (2018) 15 (1956) 1220 128 204 296 351 740 1400 1550 1900 5240
2026-03-28 20:30 2.80 408 12800 (2018) 15 (1956) 1220 128 204 296 351 740 1400 1550 1900 5240
2026-03-28 19:30 2.80 408 12800 (2018) 15 (1956) 1220 128 204 296 351 740 1400 1550 1900 5240
2026-03-28 18:30 2.81 411 12800 (2018) 15 (1956) 1220 128 204 296 351 740 1400 1550 1900 5240
2026-03-28 17:30 2.81 411 12800 (2018) 15 (1956) 1220 128 204 296 351 740 1400 1550 1900 5240
2026-03-28 16:30 2.81 411 12800 (2018) 15 (1956) 1220 128 204 296 351 740 1400 1550 1900 5240
2026-03-28 15:30 2.80 408 12800 (2018) 15 (1956) 1220 128 204 296 351 740 1400 1550 1900 5240
2026-03-28 14:30 2.80 408 12800 (2018) 15 (1956) 1220 128 204 296 351 740 1400 1550 1900 5240
2026-03-28 13:30 2.77 398 12800 (2018) 15 (1956) 1220 128 204 296 351 740 1400 1550 1900 5240
2026-03-28 12:30 2.84 422 12800 (2018) 15 (1956) 1220 128 204 296 351 740 1400 1550 1900 5240
2026-03-28 11:30 2.81 411 12800 (2018) 15 (1956) 1220 128 204 296 351 740 1400 1550 1900 5240
2026-03-28 10:30 2.80 408 12800 (2018) 15 (1956) 1220 128 204 296 351 740 1400 1550 1900 5240
2026-03-28 09:30 2.83 418 12800 (2018) 15 (1956) 1220 128 204 296 351 740 1400 1550 1900 5240
2026-03-28 08:30 2.85 425 12800 (2018) 15 (1956) 1220 128 204 296 351 740 1400 1550 1900 5240
2026-03-28 07:30 2.85 425 12800 (2018) 15 (1956) 1220 128 204 296 351 740 1400 1550 1900 5240
2026-03-28 06:30 2.85 425 12800 (2018) 15 (1956) 1220 128 204 296 351 740 1400 1550 1900 5240
2026-03-28 05:30 2.85 425 12800 (2018) 15 (1956) 1220 128 204 296 351 740 1400 1550 1900 5240
2026-03-28 04:30 2.85 425 12800 (2018) 15 (1956) 1220 128 204 296 351 740 1400 1550 1900 5240
2026-03-28 03:30 2.85 425 12800 (2018) 15 (1956) 1220 128 204 296 351 740 1400 1550 1900 5240
2026-03-28 02:30 2.85 425 12800 (2018) 15 (1956) 1220 128 204 296 351 740 1400 1550 1900 5240
2026-03-28 01:30 2.86 428 12800 (2018) 15 (1956) 1220 128 204 296 351 740 1400 1550 1900 5240
2026-03-28 00:30 2.86 428 12800 (2018) 15 (1956) 1220 128 204 296 351 740 1400 1550 1900 5240
2026-03-27 23:30 2.86 428 12800 (2018) 15 (1956) 1220 128 204 296 351 740 1400 1550 1900 5240
2026-03-27 22:30 2.86 428 5170 (2018) 17 (1956) 1020 142 189 274 326 816 1220 1740 2230 2950
2026-03-27 21:30 2.87 432 5170 (2018) 17 (1956) 1020 142 189 274 326 816 1220 1740 2230 2950
2026-03-27 20:30 2.87 432 5170 (2018) 17 (1956) 1020 142 189 274 326 816 1220 1740 2230 2950
2026-03-27 19:30 2.88 435 5170 (2018) 17 (1956) 1020 142 189 274 326 816 1220 1740 2230 2950
2026-03-27 18:30 2.89 439 5170 (2018) 17 (1956) 1020 142 189 274 326 816 1220 1740 2230 2950
2026-03-27 17:30 2.89 439 5170 (2018) 17 (1956) 1020 142 189 274 326 816 1220 1740 2230 2950
2026-03-27 16:30 2.89 439 5170 (2018) 17 (1956) 1020 142 189 274 326 816 1220 1740 2230 2950
2026-03-27 15:30 2.90 442 5170 (2018) 17 (1956) 1020 142 189 274 326 816 1220 1740 2230 2950
2026-03-27 14:30 2.90 442 5170 (2018) 17 (1956) 1020 142 189 274 326 816 1220 1740 2230 2950
2026-03-27 13:30 2.89 439 5170 (2018) 17 (1956) 1020 142 189 274 326 816 1220 1740 2230 2950
2026-03-27 12:30 2.90 442 5170 (2018) 17 (1956) 1020 142 189 274 326 816 1220 1740 2230 2950
2026-03-27 11:30 2.89 439 5170 (2018) 17 (1956) 1020 142 189 274 326 816 1220 1740 2230 2950
2026-03-27 10:30 2.89 439 5170 (2018) 17 (1956) 1020 142 189 274 326 816 1220 1740 2230 2950
2026-03-27 09:30 2.89 439 5170 (2018) 17 (1956) 1020 142 189 274 326 816 1220 1740 2230 2950
2026-03-27 08:30 2.89 439 5170 (2018) 17 (1956) 1020 142 189 274 326 816 1220 1740 2230 2950
2026-03-27 07:30 2.89 439 5170 (2018) 17 (1956) 1020 142 189 274 326 816 1220 1740 2230 2950
2026-03-27 06:30 2.89 439 5170 (2018) 17 (1956) 1020 142 189 274 326 816 1220 1740 2230 2950
2026-03-27 05:30 2.89 439 5170 (2018) 17 (1956) 1020 142 189 274 326 816 1220 1740 2230 2950
2026-03-27 04:30 2.89 439 5170 (2018) 17 (1956) 1020 142 189 274 326 816 1220 1740 2230 2950
2026-03-27 03:30 2.89 439 5170 (2018) 17 (1956) 1020 142 189 274 326 816 1220 1740 2230 2950
2026-03-27 02:30 2.90 442 5170 (2018) 17 (1956) 1020 142 189 274 326 816 1220 1740 2230 2950
2026-03-27 01:30 2.90 442 5170 (2018) 17 (1956) 1020 142 189 274 326 816 1220 1740 2230 2950
2026-03-27 00:30 2.90 442 5170 (2018) 17 (1956) 1020 142 189 274 326 816 1220 1740 2230 2950
2026-03-26 23:30 2.91 446 5170 (2018) 17 (1956) 1020 142 189 274 326 816 1220 1740 2230 2950
2026-03-26 22:30 2.91 446 5060 (1973) 18 (1956) 1050 146 182 278 292 749 1330 1520 2450 3260
2026-03-26 21:30 2.91 446 5060 (1973) 18 (1956) 1050 146 182 278 292 749 1330 1520 2450 3260
2026-03-26 20:30 2.92 449 5060 (1973) 18 (1956) 1050 146 182 278 292 749 1330 1520 2450 3260
2026-03-26 19:30 2.88 435 5060 (1973) 18 (1956) 1050 146 182 278 292 749 1330 1520 2450 3260
2026-03-26 18:30 2.64 357 5060 (1973) 18 (1956) 1050 146 182 278 292 749 1330 1520 2450 3260
2026-03-26 17:30 2.86 428 5060 (1973) 18 (1956) 1050 146 182 278 292 749 1330 1520 2450 3260
2026-03-26 16:30 2.88 435 5060 (1973) 18 (1956) 1050 146 182 278 292 749 1330 1520 2450 3260
2026-03-26 15:30 2.86 428 5060 (1973) 18 (1956) 1050 146 182 278 292 749 1330 1520 2450 3260
2026-03-26 14:30 2.86 428 5060 (1973) 18 (1956) 1050 146 182 278 292 749 1330 1520 2450 3260
2026-03-26 13:30 2.86 428 5060 (1973) 18 (1956) 1050 146 182 278 292 749 1330 1520 2450 3260
2026-03-26 12:30 2.87 432 5060 (1973) 18 (1956) 1050 146 182 278 292 749 1330 1520 2450 3260
2026-03-26 11:30 2.87 432 5060 (1973) 18 (1956) 1050 146 182 278 292 749 1330 1520 2450 3260
2026-03-26 10:30 2.87 432 5060 (1973) 18 (1956) 1050 146 182 278 292 749 1330 1520 2450 3260
2026-03-26 09:30 2.88 435 5060 (1973) 18 (1956) 1050 146 182 278 292 749 1330 1520 2450 3260
2026-03-26 08:30 2.93 453 5060 (1973) 18 (1956) 1050 146 182 278 292 749 1330 1520 2450 3260
2026-03-26 07:30 2.93 453 5060 (1973) 18 (1956) 1050 146 182 278 292 749 1330 1520 2450 3260
2026-03-26 06:30 2.92 449 5060 (1973) 18 (1956) 1050 146 182 278 292 749 1330 1520 2450 3260
2026-03-26 05:30 2.93 453 5060 (1973) 18 (1956) 1050 146 182 278 292 749 1330 1520 2450 3260
2026-03-26 04:30 2.92 449 5060 (1973) 18 (1956) 1050 146 182 278 292 749 1330 1520 2450 3260
2026-03-26 03:30 2.93 453 5060 (1973) 18 (1956) 1050 146 182 278 292 749 1330 1520 2450 3260
2026-03-26 02:30 2.93 453 5060 (1973) 18 (1956) 1050 146 182 278 292 749 1330 1520 2450 3260
2026-03-26 01:30 2.93 453 5060 (1973) 18 (1956) 1050 146 182 278 292 749 1330 1520 2450 3260
2026-03-26 00:30 2.93 453 5060 (1973) 18 (1956) 1050 146 182 278 292 749 1330 1520 2450 3260
2026-03-25 23:30 2.93 453 5060 (1973) 18 (1956) 1050 146 182 278 292 749 1330 1520 2450 3260
2026-03-25 22:30 2.93 453 11100 (1973) 20 (1956) 1290 145 183 273 300 721 1300 1690 3030 5230
2026-03-25 21:30 2.93 453 11100 (1973) 20 (1956) 1290 145 183 273 300 721 1300 1690 3030 5230
2026-03-25 20:30 2.94 457 11100 (1973) 20 (1956) 1290 145 183 273 300 721 1300 1690 3030 5230
2026-03-25 19:30 2.94 457 11100 (1973) 20 (1956) 1290 145 183 273 300 721 1300 1690 3030 5230
2026-03-25 18:30 2.94 457 11100 (1973) 20 (1956) 1290 145 183 273 300 721 1300 1690 3030 5230
2026-03-25 17:30 2.87 432 11100 (1973) 20 (1956) 1290 145 183 273 300 721 1300 1690 3030 5230
2026-03-25 16:30 2.89 439 11100 (1973) 20 (1956) 1290 145 183 273 300 721 1300 1690 3030 5230
2026-03-25 15:30 2.89 439 11100 (1973) 20 (1956) 1290 145 183 273 300 721 1300 1690 3030 5230
2026-03-25 14:30 2.88 392 11100 (1973) 20 (1956) 1290 145 183 273 300 721 1300 1690 3030 5230
2026-03-25 13:30 2.88 392 11100 (1973) 20 (1956) 1290 145 183 273 300 721 1300 1690 3030 5230
2026-03-25 12:30 2.92 405 11100 (1973) 20 (1956) 1290 145 183 273 300 721 1300 1690 3030 5230
2026-03-25 11:30 2.93 408 11100 (1973) 20 (1956) 1290 145 183 273 300 721 1300 1690 3030 5230
2026-03-25 10:30 2.92 405 11100 (1973) 20 (1956) 1290 145 183 273 300 721 1300 1690 3030 5230
2026-03-25 09:30 2.96 418 11100 (1973) 20 (1956) 1290 145 183 273 300 721 1300 1690 3030 5230
2026-03-25 08:30 2.96 418 11100 (1973) 20 (1956) 1290 145 183 273 300 721 1300 1690 3030 5230
2026-03-25 07:30 2.96 418 11100 (1973) 20 (1956) 1290 145 183 273 300 721 1300 1690 3030 5230
2026-03-25 06:30 2.96 418 11100 (1973) 20 (1956) 1290 145 183 273 300 721 1300 1690 3030 5230
2026-03-25 05:30 2.96 418 11100 (1973) 20 (1956) 1290 145 183 273 300 721 1300 1690 3030 5230
2026-03-25 04:30 2.96 418 11100 (1973) 20 (1956) 1290 145 183 273 300 721 1300 1690 3030 5230
2026-03-25 03:30 2.96 418 11100 (1973) 20 (1956) 1290 145 183 273 300 721 1300 1690 3030 5230
2026-03-25 02:30 2.96 418 11100 (1973) 20 (1956) 1290 145 183 273 300 721 1300 1690 3030 5230
2026-03-25 01:30 2.97 422 11100 (1973) 20 (1956) 1290 145 183 273 300 721 1300 1690 3030 5230
2026-03-25 00:30 2.97 422 11100 (1973) 20 (1956) 1290 145 183 273 300 721 1300 1690 3030 5230
2026-03-24 23:30 2.97 422 11100 (1973) 20 (1956) 1290 145 183 273 300 721 1300 1690 3030 5230
2026-03-24 22:30 2.97 422 12500 (1978) 23 (1956) 1280 147 203 274 298 649 1320 1610 2800 5550
2026-03-24 21:30 2.96 418 12500 (1978) 23 (1956) 1280 147 203 274 298 649 1320 1610 2800 5550
2026-03-24 20:30 2.97 422 12500 (1978) 23 (1956) 1280 147 203 274 298 649 1320 1610 2800 5550
2026-03-24 19:30 2.99 428 12500 (1978) 23 (1956) 1280 147 203 274 298 649 1320 1610 2800 5550
2026-03-24 18:30 2.99 428 12500 (1978) 23 (1956) 1280 147 203 274 298 649 1320 1610 2800 5550
2026-03-24 17:30 2.99 428 12500 (1978) 23 (1956) 1280 147 203 274 298 649 1320 1610 2800 5550
2026-03-24 16:30 2.99 428 12500 (1978) 23 (1956) 1280 147 203 274 298 649 1320 1610 2800 5550
2026-03-24 15:30 3.00 432 12500 (1978) 23 (1956) 1280 147 203 274 298 649 1320 1610 2800 5550
2026-03-24 14:30 2.99 428 12500 (1978) 23 (1956) 1280 147 203 274 298 649 1320 1610 2800 5550
2026-03-24 13:30 3.03 442 12500 (1978) 23 (1956) 1280 147 203 274 298 649 1320 1610 2800 5550
2026-03-24 12:30 3.01 435 12500 (1978) 23 (1956) 1280 147 203 274 298 649 1320 1610 2800 5550
2026-03-24 11:30 2.98 425 12500 (1978) 23 (1956) 1280 147 203 274 298 649 1320 1610 2800 5550
2026-03-24 10:30 2.99 428 12500 (1978) 23 (1956) 1280 147 203 274 298 649 1320 1610 2800 5550
2026-03-24 09:30 3.01 435 12500 (1978) 23 (1956) 1280 147 203 274 298 649 1320 1610 2800 5550
2026-03-24 08:30 3.02 439 12500 (1978) 23 (1956) 1280 147 203 274 298 649 1320 1610 2800 5550
2026-03-24 07:30 3.02 439 12500 (1978) 23 (1956) 1280 147 203 274 298 649 1320 1610 2800 5550
2026-03-24 06:30 3.01 435 12500 (1978) 23 (1956) 1280 147 203 274 298 649 1320 1610 2800 5550
2026-03-24 05:30 3.02 439 12500 (1978) 23 (1956) 1280 147 203 274 298 649 1320 1610 2800 5550
2026-03-24 04:30 3.02 439 12500 (1978) 23 (1956) 1280 147 203 274 298 649 1320 1610 2800 5550
2026-03-24 03:30 3.02 439 12500 (1978) 23 (1956) 1280 147 203 274 298 649 1320 1610 2800 5550
2026-03-24 02:30 3.01 435 12500 (1978) 23 (1956) 1280 147 203 274 298 649 1320 1610 2800 5550
2026-03-24 01:30 3.03 442 12500 (1978) 23 (1956) 1280 147 203 274 298 649 1320 1610 2800 5550
2026-03-24 00:30 3.03 442 12500 (1978) 23 (1956) 1280 147 203 274 298 649 1320 1610 2800 5550
2026-03-23 23:30 3.03 442 12500 (1978) 23 (1956) 1280 147 203 274 298 649 1320 1610 2800 5550
2026-03-23 22:30 3.04 446 3430 (2012) 30 (1956) 904 141 211 266 319 638 1160 1510 2380 2980
2026-03-23 21:30 3.04 446 3430 (2012) 30 (1956) 904 141 211 266 319 638 1160 1510 2380 2980
2026-03-23 20:30 3.05 449 3430 (2012) 30 (1956) 904 141 211 266 319 638 1160 1510 2380 2980
2026-03-23 19:30 3.05 449 3430 (2012) 30 (1956) 904 141 211 266 319 638 1160 1510 2380 2980
2026-03-23 18:30 3.02 439 3430 (2012) 30 (1956) 904 141 211 266 319 638 1160 1510 2380 2980
2026-03-23 17:30 3.06 453 3430 (2012) 30 (1956) 904 141 211 266 319 638 1160 1510 2380 2980
2026-03-23 16:30 3.02 439 3430 (2012) 30 (1956) 904 141 211 266 319 638 1160 1510 2380 2980
2026-03-23 15:30 3.02 439 3430 (2012) 30 (1956) 904 141 211 266 319 638 1160 1510 2380 2980
2026-03-23 14:30 3.01 435 3430 (2012) 30 (1956) 904 141 211 266 319 638 1160 1510 2380 2980
2026-03-23 13:30 3.07 457 3430 (2012) 30 (1956) 904 141 211 266 319 638 1160 1510 2380 2980
2026-03-23 12:30 3.04 446 3430 (2012) 30 (1956) 904 141 211 266 319 638 1160 1510 2380 2980
2026-03-23 11:30 3.06 453 3430 (2012) 30 (1956) 904 141 211 266 319 638 1160 1510 2380 2980
2026-03-23 10:30 3.06 453 3430 (2012) 30 (1956) 904 141 211 266 319 638 1160 1510 2380 2980
2026-03-23 09:30 3.07 457 3430 (2012) 30 (1956) 904 141 211 266 319 638 1160 1510 2380 2980
2026-03-23 08:30 3.10 467 3430 (2012) 30 (1956) 904 141 211 266 319 638 1160 1510 2380 2980
2026-03-23 07:30 3.10 467 3430 (2012) 30 (1956) 904 141 211 266 319 638 1160 1510 2380 2980
2026-03-23 06:30 3.10 467 3430 (2012) 30 (1956) 904 141 211 266 319 638 1160 1510 2380 2980
2026-03-23 05:30 3.11 471 3430 (2012) 30 (1956) 904 141 211 266 319 638 1160 1510 2380 2980
2026-03-23 04:30 3.11 471 3430 (2012) 30 (1956) 904 141 211 266 319 638 1160 1510 2380 2980
2026-03-23 03:30 3.11 471 3430 (2012) 30 (1956) 904 141 211 266 319 638 1160 1510 2380 2980
2026-03-23 02:30 3.11 471 3430 (2012) 30 (1956) 904 141 211 266 319 638 1160 1510 2380 2980
2026-03-23 01:30 3.12 475 3430 (2012) 30 (1956) 904 141 211 266 319 638 1160 1510 2380 2980
2026-03-23 00:30 3.13 478 3430 (2012) 30 (1956) 904 141 211 266 319 638 1160 1510 2380 2980
2026-03-22 23:30 3.13 478 3430 (2012) 30 (1956) 904 141 211 266 319 638 1160 1510 2380 2980
2026-03-22 22:30 3.14 482 5700 (2012) 44 (1956) 945 137 215 282 341 584 1140 1390 2060 3230
2026-03-22 21:30 3.14 482 5700 (2012) 44 (1956) 945 137 215 282 341 584 1140 1390 2060 3230
2026-03-22 20:30 3.15 486 5700 (2012) 44 (1956) 945 137 215 282 341 584 1140 1390 2060 3230
2026-03-22 19:30 3.15 486 5700 (2012) 44 (1956) 945 137 215 282 341 584 1140 1390 2060 3230
2026-03-22 18:30 3.14 482 5700 (2012) 44 (1956) 945 137 215 282 341 584 1140 1390 2060 3230
2026-03-22 17:30 3.16 490 5700 (2012) 44 (1956) 945 137 215 282 341 584 1140 1390 2060 3230
2026-03-22 16:30 3.14 482 5700 (2012) 44 (1956) 945 137 215 282 341 584 1140 1390 2060 3230
2026-03-22 15:30 3.17 493 5700 (2012) 44 (1956) 945 137 215 282 341 584 1140 1390 2060 3230
2026-03-22 14:30 3.15 486 5700 (2012) 44 (1956) 945 137 215 282 341 584 1140 1390 2060 3230
2026-03-22 13:30 3.17 493 5700 (2012) 44 (1956) 945 137 215 282 341 584 1140 1390 2060 3230
2026-03-22 12:30 3.17 493 5700 (2012) 44 (1956) 945 137 215 282 341 584 1140 1390 2060 3230
2026-03-22 11:30 3.18 497 5700 (2012) 44 (1956) 945 137 215 282 341 584 1140 1390 2060 3230
2026-03-22 10:30 3.16 490 5700 (2012) 44 (1956) 945 137 215 282 341 584 1140 1390 2060 3230
2026-03-22 09:30 3.17 493 5700 (2012) 44 (1956) 945 137 215 282 341 584 1140 1390 2060 3230
2026-03-22 08:30 3.19 501 5700 (2012) 44 (1956) 945 137 215 282 341 584 1140 1390 2060 3230
2026-03-22 07:30 3.19 501 5700 (2012) 44 (1956) 945 137 215 282 341 584 1140 1390 2060 3230
2026-03-22 06:30 3.19 501 5700 (2012) 44 (1956) 945 137 215 282 341 584 1140 1390 2060 3230
2026-03-22 05:30 3.19 501 5700 (2012) 44 (1956) 945 137 215 282 341 584 1140 1390 2060 3230
2026-03-22 04:30 3.20 505 5700 (2012) 44 (1956) 945 137 215 282 341 584 1140 1390 2060 3230
2026-03-22 03:30 3.19 501 5700 (2012) 44 (1956) 945 137 215 282 341 584 1140 1390 2060 3230
2026-03-22 02:30 3.20 505 5700 (2012) 44 (1956) 945 137 215 282 341 584 1140 1390 2060 3230
2026-03-22 01:30 3.20 505 5700 (2012) 44 (1956) 945 137 215 282 341 584 1140 1390 2060 3230
2026-03-22 00:30 3.20 505 5700 (2012) 44 (1956) 945 137 215 282 341 584 1140 1390 2060 3230
2026-03-21 23:30 3.20 505 5700 (2012) 44 (1956) 945 137 215 282 341 584 1140 1390 2060 3230
2026-03-21 22:30 3.20 505 8020 (1968) 75 (1956) 1080 146 221 278 319 525 1220 1360 2250 4220
2026-03-21 21:30 3.20 505 8020 (1968) 75 (1956) 1080 146 221 278 319 525 1220 1360 2250 4220
2026-03-21 20:30 3.18 497 8020 (1968) 75 (1956) 1080 146 221 278 319 525 1220 1360 2250 4220
2026-03-21 19:30 3.13 478 8020 (1968) 75 (1956) 1080 146 221 278 319 525 1220 1360 2250 4220
2026-03-21 18:30 3.16 490 8020 (1968) 75 (1956) 1080 146 221 278 319 525 1220 1360 2250 4220
2026-03-21 17:30 3.23 516 8020 (1968) 75 (1956) 1080 146 221 278 319 525 1220 1360 2250 4220
2026-03-21 16:30 3.23 516 8020 (1968) 75 (1956) 1080 146 221 278 319 525 1220 1360 2250 4220
2026-03-21 15:30 3.24 520 8020 (1968) 75 (1956) 1080 146 221 278 319 525 1220 1360 2250 4220
2026-03-21 14:30 3.25 524 8020 (1968) 75 (1956) 1080 146 221 278 319 525 1220 1360 2250 4220
2026-03-21 13:30 3.28 536 8020 (1968) 75 (1956) 1080 146 221 278 319 525 1220 1360 2250 4220
2026-03-21 12:30 3.33 556 8020 (1968) 75 (1956) 1080 146 221 278 319 525 1220 1360 2250 4220
2026-03-21 11:30 3.30 544 8020 (1968) 75 (1956) 1080 146 221 278 319 525 1220 1360 2250 4220
2026-03-21 10:30 3.23 516 8020 (1968) 75 (1956) 1080 146 221 278 319 525 1220 1360 2250 4220
2026-03-21 09:30 3.20 505 8020 (1968) 75 (1956) 1080 146 221 278 319 525 1220 1360 2250 4220
2026-03-21 08:30 3.27 532 8020 (1968) 75 (1956) 1080 146 221 278 319 525 1220 1360 2250 4220
2026-03-21 07:30 3.27 532 8020 (1968) 75 (1956) 1080 146 221 278 319 525 1220 1360 2250 4220
2026-03-21 06:30 3.27 532 8020 (1968) 75 (1956) 1080 146 221 278 319 525 1220 1360 2250 4220
2026-03-21 05:30 3.28 536 8020 (1968) 75 (1956) 1080 146 221 278 319 525 1220 1360 2250 4220
2026-03-21 04:30 3.28 536 8020 (1968) 75 (1956) 1080 146 221 278 319 525 1220 1360 2250 4220
2026-03-21 03:30 3.28 536 8020 (1968) 75 (1956) 1080 146 221 278 319 525 1220 1360 2250 4220
2026-03-21 02:30 3.28 536 8020 (1968) 75 (1956) 1080 146 221 278 319 525 1220 1360 2250 4220
2026-03-21 01:30 3.28 536 8020 (1968) 75 (1956) 1080 146 221 278 319 525 1220 1360 2250 4220
2026-03-21 00:30 3.28 536 8020 (1968) 75 (1956) 1080 146 221 278 319 525 1220 1360 2250 4220
2026-03-20 23:30 3.29 540 8020 (1968) 75 (1956) 1080 146 221 278 319 525 1220 1360 2250 4220
2026-03-20 22:30 3.29 540 18500 (2020) 114 (1967) 1460 144 230 280 304 527 1300 1560 3580 7320
2026-03-20 21:30 3.30 544 18500 (2020) 114 (1967) 1460 144 230 280 304 527 1300 1560 3580 7320
2026-03-20 20:30 3.30 544 18500 (2020) 114 (1967) 1460 144 230 280 304 527 1300 1560 3580 7320
2026-03-20 19:30 3.29 540 18500 (2020) 114 (1967) 1460 144 230 280 304 527 1300 1560 3580 7320
2026-03-20 18:30 3.28 536 18500 (2020) 114 (1967) 1460 144 230 280 304 527 1300 1560 3580 7320
2026-03-20 17:30 3.27 532 18500 (2020) 114 (1967) 1460 144 230 280 304 527 1300 1560 3580 7320
2026-03-20 16:30 3.32 552 18500 (2020) 114 (1967) 1460 144 230 280 304 527 1300 1560 3580 7320
2026-03-20 15:30 3.32 552 18500 (2020) 114 (1967) 1460 144 230 280 304 527 1300 1560 3580 7320
2026-03-20 14:30 3.32 552 18500 (2020) 114 (1967) 1460 144 230 280 304 527 1300 1560 3580 7320
2026-03-20 13:30 3.32 552 18500 (2020) 114 (1967) 1460 144 230 280 304 527 1300 1560 3580 7320
2026-03-20 12:30 3.32 552 18500 (2020) 114 (1967) 1460 144 230 280 304 527 1300 1560 3580 7320
2026-03-20 11:30 3.30 544 18500 (2020) 114 (1967) 1460 144 230 280 304 527 1300 1560 3580 7320
2026-03-20 10:30 3.28 536 18500 (2020) 114 (1967) 1460 144 230 280 304 527 1300 1560 3580 7320
2026-03-20 09:30 3.36 568 18500 (2020) 114 (1967) 1460 144 230 280 304 527 1300 1560 3580 7320
2026-03-20 08:30 3.37 572 18500 (2020) 114 (1967) 1460 144 230 280 304 527 1300 1560 3580 7320
2026-03-20 07:30 3.36 568 18500 (2020) 114 (1967) 1460 144 230 280 304 527 1300 1560 3580 7320
2026-03-20 06:30 3.36 568 18500 (2020) 114 (1967) 1460 144 230 280 304 527 1300 1560 3580 7320
2026-03-20 05:30 3.37 572 18500 (2020) 114 (1967) 1460 144 230 280 304 527 1300 1560 3580 7320
2026-03-20 04:30 3.37 572 18500 (2020) 114 (1967) 1460 144 230 280 304 527 1300 1560 3580 7320
2026-03-20 03:30 3.37 572 18500 (2020) 114 (1967) 1460 144 230 280 304 527 1300 1560 3580 7320
2026-03-20 02:30 3.37 572 18500 (2020) 114 (1967) 1460 144 230 280 304 527 1300 1560 3580 7320
2026-03-20 01:30 3.38 576 18500 (2020) 114 (1967) 1460 144 230 280 304 527 1300 1560 3580 7320
2026-03-20 00:30 3.38 576 18500 (2020) 114 (1967) 1460 144 230 280 304 527 1300 1560 3580 7320
2026-03-19 23:30 3.39 580 18500 (2020) 114 (1967) 1460 144 230 280 304 527 1300 1560 3580 7320
2026-03-19 22:30 3.40 585 37200 (2008) 125 (1956) 1670 146 208 290 307 541 1150 1570 3050 6690
2026-03-19 21:30 3.40 585 37200 (2008) 125 (1956) 1670 146 208 290 307 541 1150 1570 3050 6690
2026-03-19 20:30 3.41 589 37200 (2008) 125 (1956) 1670 146 208 290 307 541 1150 1570 3050 6690
2026-03-19 19:30 3.43 597 37200 (2008) 125 (1956) 1670 146 208 290 307 541 1150 1570 3050 6690
2026-03-19 18:30 3.47 614 37200 (2008) 125 (1956) 1670 146 208 290 307 541 1150 1570 3050 6690
2026-03-19 17:30 3.47 614 37200 (2008) 125 (1956) 1670 146 208 290 307 541 1150 1570 3050 6690
2026-03-19 16:30 3.41 589 37200 (2008) 125 (1956) 1670 146 208 290 307 541 1150 1570 3050 6690
2026-03-19 15:30 3.42 593 37200 (2008) 125 (1956) 1670 146 208 290 307 541 1150 1570 3050 6690
2026-03-19 14:30 3.43 597 37200 (2008) 125 (1956) 1670 146 208 290 307 541 1150 1570 3050 6690
2026-03-19 13:30 3.43 597 37200 (2008) 125 (1956) 1670 146 208 290 307 541 1150 1570 3050 6690
2026-03-19 12:30 3.44 601 37200 (2008) 125 (1956) 1670 146 208 290 307 541 1150 1570 3050 6690
2026-03-19 11:30 3.45 606 37200 (2008) 125 (1956) 1670 146 208 290 307 541 1150 1570 3050 6690
2026-03-19 10:30 3.47 614 37200 (2008) 125 (1956) 1670 146 208 290 307 541 1150 1570 3050 6690
2026-03-19 09:30 3.50 627 37200 (2008) 125 (1956) 1670 146 208 290 307 541 1150 1570 3050 6690
2026-03-19 08:30 3.47 614 37200 (2008) 125 (1956) 1670 146 208 290 307 541 1150 1570 3050 6690
2026-03-19 07:30 3.47 614 37200 (2008) 125 (1956) 1670 146 208 290 307 541 1150 1570 3050 6690
2026-03-19 06:30 3.47 614 37200 (2008) 125 (1956) 1670 146 208 290 307 541 1150 1570 3050 6690
2026-03-19 05:30 3.48 619 37200 (2008) 125 (1956) 1670 146 208 290 307 541 1150 1570 3050 6690
2026-03-19 04:30 3.48 619 37200 (2008) 125 (1956) 1670 146 208 290 307 541 1150 1570 3050 6690
2026-03-19 03:30 3.48 619 37200 (2008) 125 (1956) 1670 146 208 290 307 541 1150 1570 3050 6690
2026-03-19 02:30 3.49 623 37200 (2008) 125 (1956) 1670 146 208 290 307 541 1150 1570 3050 6690
2026-03-19 01:30 3.49 623 37200 (2008) 125 (1956) 1670 146 208 290 307 541 1150 1570 3050 6690
2026-03-19 00:30 3.49 623 37200 (2008) 125 (1956) 1670 146 208 290 307 541 1150 1570 3050 6690
2026-03-18 23:30 3.50 627 37200 (2008) 125 (1956) 1670 146 208 290 307 541 1150 1570 3050 6690
2026-03-18 22:30 3.50 627 8810 (1987) 125 (1967) 1040 139 200 290 313 541 1160 1280 2080 3750
2026-03-18 21:30 3.51 632 8810 (1987) 125 (1967) 1040 139 200 290 313 541 1160 1280 2080 3750
2026-03-18 20:30 3.51 632 8810 (1987) 125 (1967) 1040 139 200 290 313 541 1160 1280 2080 3750
2026-03-18 19:30 3.52 636 8810 (1987) 125 (1967) 1040 139 200 290 313 541 1160 1280 2080 3750
2026-03-18 18:30 3.52 636 8810 (1987) 125 (1967) 1040 139 200 290 313 541 1160 1280 2080 3750
2026-03-18 17:30 3.57 658 8810 (1987) 125 (1967) 1040 139 200 290 313 541 1160 1280 2080 3750
2026-03-18 16:30 3.69 713 8810 (1987) 125 (1967) 1040 139 200 290 313 541 1160 1280 2080 3750
2026-03-18 15:30 3.61 676 8810 (1987) 125 (1967) 1040 139 200 290 313 541 1160 1280 2080 3750
2026-03-18 14:30 3.31 548 8810 (1987) 125 (1967) 1040 139 200 290 313 541 1160 1280 2080 3750
2026-03-18 13:30 3.84 786 8810 (1987) 125 (1967) 1040 139 200 290 313 541 1160 1280 2080 3750
2026-03-18 12:30 3.27 532 8810 (1987) 125 (1967) 1040 139 200 290 313 541 1160 1280 2080 3750
2026-03-18 11:30 3.79 761 8810 (1987) 125 (1967) 1040 139 200 290 313 541 1160 1280 2080 3750
2026-03-18 10:30 3.25 524 8810 (1987) 125 (1967) 1040 139 200 290 313 541 1160 1280 2080 3750
2026-03-18 09:30 4.08 912 8810 (1987) 125 (1967) 1040 139 200 290 313 541 1160 1280 2080 3750
2026-03-18 08:30 3.20 505 8810 (1987) 125 (1967) 1040 139 200 290 313 541 1160 1280 2080 3750
2026-03-18 07:30 3.08 460 8810 (1987) 125 (1967) 1040 139 200 290 313 541 1160 1280 2080 3750
2026-03-18 06:30 3.66 699 8810 (1987) 125 (1967) 1040 139 200 290 313 541 1160 1280 2080 3750
2026-03-18 05:30 3.61 676 8810 (1987) 125 (1967) 1040 139 200 290 313 541 1160 1280 2080 3750
2026-03-18 04:30 3.62 681 8810 (1987) 125 (1967) 1040 139 200 290 313 541 1160 1280 2080 3750
2026-03-18 03:30 3.62 681 8810 (1987) 125 (1967) 1040 139 200 290 313 541 1160 1280 2080 3750
2026-03-18 02:30 3.63 685 8810 (1987) 125 (1967) 1040 139 200 290 313 541 1160 1280 2080 3750
2026-03-18 01:30 3.63 685 8810 (1987) 125 (1967) 1040 139 200 290 313 541 1160 1280 2080 3750
2026-03-18 00:30 3.64 690 8810 (1987) 125 (1967) 1040 139 200 290 313 541 1160 1280 2080 3750
2026-03-17 23:30 3.65 695 8810 (1987) 125 (1967) 1040 139 200 290 313 541 1160 1280 2080 3750
2026-03-17 22:30 3.65 695 5500 (2014) 128 (1967) 878 143 219 286 313 536 1210 1380 2040 3010
2026-03-17 21:30 3.66 699 5500 (2014) 128 (1967) 878 143 219 286 313 536 1210 1380 2040 3010
2026-03-17 20:30 3.68 709 5500 (2014) 128 (1967) 878 143 219 286 313 536 1210 1380 2040 3010
2026-03-17 19:30 3.71 723 5500 (2014) 128 (1967) 878 143 219 286 313 536 1210 1380 2040 3010
2026-03-17 18:30 3.77 752 5500 (2014) 128 (1967) 878 143 219 286 313 536 1210 1380 2040 3010
2026-03-17 17:30 3.89 811 5500 (2014) 128 (1967) 878 143 219 286 313 536 1210 1380 2040 3010
2026-03-17 16:30 3.71 723 5500 (2014) 128 (1967) 878 143 219 286 313 536 1210 1380 2040 3010
2026-03-17 15:30 3.65 695 5500 (2014) 128 (1967) 878 143 219 286 313 536 1210 1380 2040 3010
2026-03-17 14:30 3.77 752 5500 (2014) 128 (1967) 878 143 219 286 313 536 1210 1380 2040 3010
2026-03-17 13:30 3.70 718 5500 (2014) 128 (1967) 878 143 219 286 313 536 1210 1380 2040 3010
2026-03-17 12:30 3.67 704 5500 (2014) 128 (1967) 878 143 219 286 313 536 1210 1380 2040 3010
2026-03-17 11:30 3.71 723 5500 (2014) 128 (1967) 878 143 219 286 313 536 1210 1380 2040 3010
2026-03-17 10:30 3.61 676 5500 (2014) 128 (1967) 878 143 219 286 313 536 1210 1380 2040 3010
2026-03-17 09:30 3.66 699 5500 (2014) 128 (1967) 878 143 219 286 313 536 1210 1380 2040 3010
2026-03-17 08:30 3.82 776 5500 (2014) 128 (1967) 878 143 219 286 313 536 1210 1380 2040 3010
2026-03-17 07:30 3.80 766 5500 (2014) 128 (1967) 878 143 219 286 313 536 1210 1380 2040 3010
2026-03-17 06:30 3.81 771 5500 (2014) 128 (1967) 878 143 219 286 313 536 1210 1380 2040 3010
2026-03-17 05:30 3.82 776 5500 (2014) 128 (1967) 878 143 219 286 313 536 1210 1380 2040 3010
2026-03-17 04:30 3.83 781 5500 (2014) 128 (1967) 878 143 219 286 313 536 1210 1380 2040 3010
2026-03-17 03:30 3.84 786 5500 (2014) 128 (1967) 878 143 219 286 313 536 1210 1380 2040 3010
2026-03-17 02:30 3.85 791 5500 (2014) 128 (1967) 878 143 219 286 313 536 1210 1380 2040 3010
2026-03-17 01:30 3.86 796 5500 (2014) 128 (1967) 878 143 219 286 313 536 1210 1380 2040 3010
2026-03-17 00:30 3.85 791 5500 (2014) 128 (1967) 878 143 219 286 313 536 1210 1380 2040 3010
2026-03-16 23:30 3.82 776 5500 (2014) 128 (1967) 878 143 219 286 313 536 1210 1380 2040 3010
2026-03-16 22:30 3.74 737 4530 (1990) 133 (1981) 875 143 230 294 299 570 1170 1460 2080 2680
2026-03-16 21:30 3.96 848 4530 (1990) 133 (1981) 875 143 230 294 299 570 1170 1460 2080 2680
2026-03-16 20:30 4.02 879 4530 (1990) 133 (1981) 875 143 230 294 299 570 1170 1460 2080 2680
2026-03-16 19:30 4.11 928 4530 (1990) 133 (1981) 875 143 230 294 299 570 1170 1460 2080 2680
2026-03-16 18:30 4.24 1000 4530 (1990) 133 (1981) 875 143 230 294 299 570 1170 1460 2080 2680
2026-03-16 17:30 4.20 979 4530 (1990) 133 (1981) 875 143 230 294 299 570 1170 1460 2080 2680
2026-03-16 16:30 3.95 842 4530 (1990) 133 (1981) 875 143 230 294 299 570 1170 1460 2080 2680
2026-03-16 15:30 4.42 1110 4530 (1990) 133 (1981) 875 143 230 294 299 570 1170 1460 2080 2680
2026-03-16 14:30 4.05 896 4530 (1990) 133 (1981) 875 143 230 294 299 570 1170 1460 2080 2680
2026-03-16 13:30 4.20 979 4530 (1990) 133 (1981) 875 143 230 294 299 570 1170 1460 2080 2680
2026-03-16 12:30 4.16 956 4530 (1990) 133 (1981) 875 143 230 294 299 570 1170 1460 2080 2680
2026-03-16 11:30 4.25 1010 4530 (1990) 133 (1981) 875 143 230 294 299 570 1170 1460 2080 2680
2026-03-16 10:30 4.28 1030 4530 (1990) 133 (1981) 875 143 230 294 299 570 1170 1460 2080 2680
2026-03-16 09:30 4.23 996 4530 (1990) 133 (1981) 875 143 230 294 299 570 1170 1460 2080 2680
2026-03-16 08:30 4.19 973 4530 (1990) 133 (1981) 875 143 230 294 299 570 1170 1460 2080 2680
2026-03-16 07:30 4.16 956 4530 (1990) 133 (1981) 875 143 230 294 299 570 1170 1460 2080 2680
2026-03-16 06:30 4.07 907 4530 (1990) 133 (1981) 875 143 230 294 299 570 1170 1460 2080 2680
2026-03-16 05:30 4.04 890 4530 (1990) 133 (1981) 875 143 230 294 299 570 1170 1460 2080 2680
2026-03-16 04:30 3.97 853 4530 (1990) 133 (1981) 875 143 230 294 299 570 1170 1460 2080 2680
2026-03-16 03:30 3.92 827 4530 (1990) 133 (1981) 875 143 230 294 299 570 1170 1460 2080 2680
2026-03-16 02:30 3.89 811 4530 (1990) 133 (1981) 875 143 230 294 299 570 1170 1460 2080 2680
2026-03-16 01:30 3.87 801 4530 (1990) 133 (1981) 875 143 230 294 299 570 1170 1460 2080 2680
2026-03-16 00:30 3.85 791 4530 (1990) 133 (1981) 875 143 230 294 299 570 1170 1460 2080 2680
2026-03-15 23:30 3.86 796 4530 (1990) 133 (1981) 875 143 230 294 299 570 1170 1460 2080 2680
2026-03-15 22:30 3.84 786 14000 (1990) 138 (1981) 1090 147 240 306 331 553 1050 1360 2160 3830
2026-03-15 21:30 3.85 791 14000 (1990) 138 (1981) 1090 147 240 306 331 553 1050 1360 2160 3830
2026-03-15 20:30 3.84 786 14000 (1990) 138 (1981) 1090 147 240 306 331 553 1050 1360 2160 3830
2026-03-15 19:30 3.86 796 14000 (1990) 138 (1981) 1090 147 240 306 331 553 1050 1360 2160 3830
2026-03-15 18:30 3.81 771 14000 (1990) 138 (1981) 1090 147 240 306 331 553 1050 1360 2160 3830
2026-03-15 17:30 3.81 771 14000 (1990) 138 (1981) 1090 147 240 306 331 553 1050 1360 2160 3830
2026-03-15 16:30 3.88 806 14000 (1990) 138 (1981) 1090 147 240 306 331 553 1050 1360 2160 3830
2026-03-15 15:30 3.88 806 14000 (1990) 138 (1981) 1090 147 240 306 331 553 1050 1360 2160 3830
2026-03-15 14:30 3.89 811 14000 (1990) 138 (1981) 1090 147 240 306 331 553 1050 1360 2160 3830
2026-03-15 13:30 3.90 817 14000 (1990) 138 (1981) 1090 147 240 306 331 553 1050 1360 2160 3830
2026-03-15 12:30 3.94 837 14000 (1990) 138 (1981) 1090 147 240 306 331 553 1050 1360 2160 3830
2026-03-15 11:30 3.95 842 14000 (1990) 138 (1981) 1090 147 240 306 331 553 1050 1360 2160 3830
2026-03-15 10:30 3.93 832 14000 (1990) 138 (1981) 1090 147 240 306 331 553 1050 1360 2160 3830
2026-03-15 09:30 3.93 832 14000 (1990) 138 (1981) 1090 147 240 306 331 553 1050 1360 2160 3830
2026-03-15 08:30 3.94 837 14000 (1990) 138 (1981) 1090 147 240 306 331 553 1050 1360 2160 3830
2026-03-15 07:30 3.95 842 14000 (1990) 138 (1981) 1090 147 240 306 331 553 1050 1360 2160 3830
2026-03-15 06:30 3.96 848 14000 (1990) 138 (1981) 1090 147 240 306 331 553 1050 1360 2160 3830
2026-03-15 05:30 3.97 853 14000 (1990) 138 (1981) 1090 147 240 306 331 553 1050 1360 2160 3830
2026-03-15 04:30 3.96 848 14000 (1990) 138 (1981) 1090 147 240 306 331 553 1050 1360 2160 3830
2026-03-15 03:30 3.99 863 14000 (1990) 138 (1981) 1090 147 240 306 331 553 1050 1360 2160 3830
2026-03-15 02:30 4.02 879 14000 (1990) 138 (1981) 1090 147 240 306 331 553 1050 1360 2160 3830
2026-03-15 01:30 4.04 890 14000 (1990) 138 (1981) 1090 147 240 306 331 553 1050 1360 2160 3830
2026-03-15 00:30 4.04 890 14000 (1990) 138 (1981) 1090 147 240 306 331 553 1050 1360 2160 3830
2026-03-14 23:30 4.05 896 14000 (1990) 138 (1981) 1090 147 240 306 331 553 1050 1360 2160 3830
2026-03-14 22:30 4.06 901 7310 (1990) 132 (1956) 1010 155 265 325 359 544 1190 1390 2330 3970
2026-03-14 21:30 4.07 907 7310 (1990) 132 (1956) 1010 155 265 325 359 544 1190 1390 2330 3970
2026-03-14 20:30 4.09 917 7310 (1990) 132 (1956) 1010 155 265 325 359 544 1190 1390 2330 3970
2026-03-14 19:30 4.10 923 7310 (1990) 132 (1956) 1010 155 265 325 359 544 1190 1390 2330 3970
2026-03-14 18:30 4.12 934 7310 (1990) 132 (1956) 1010 155 265 325 359 544 1190 1390 2330 3970
2026-03-14 17:30 4.08 912 7310 (1990) 132 (1956) 1010 155 265 325 359 544 1190 1390 2330 3970
2026-03-14 16:30 4.09 917 7310 (1990) 132 (1956) 1010 155 265 325 359 544 1190 1390 2330 3970
2026-03-14 15:30 4.20 979 7310 (1990) 132 (1956) 1010 155 265 325 359 544 1190 1390 2330 3970
2026-03-14 14:30 4.22 991 7310 (1990) 132 (1956) 1010 155 265 325 359 544 1190 1390 2330 3970
2026-03-14 13:30 4.61 1230 7310 (1990) 132 (1956) 1010 155 265 325 359 544 1190 1390 2330 3970
2026-03-14 12:30 4.18 968 7310 (1990) 132 (1956) 1010 155 265 325 359 544 1190 1390 2330 3970
2026-03-14 11:30 4.17 962 7310 (1990) 132 (1956) 1010 155 265 325 359 544 1190 1390 2330 3970
2026-03-14 10:30 4.23 996 7310 (1990) 132 (1956) 1010 155 265 325 359 544 1190 1390 2330 3970
2026-03-14 09:30 4.25 1010 7310 (1990) 132 (1956) 1010 155 265 325 359 544 1190 1390 2330 3970
2026-03-14 08:30 4.27 1020 7310 (1990) 132 (1956) 1010 155 265 325 359 544 1190 1390 2330 3970
2026-03-14 07:30 4.28 1030 7310 (1990) 132 (1956) 1010 155 265 325 359 544 1190 1390 2330 3970
2026-03-14 06:30 4.28 1030 7310 (1990) 132 (1956) 1010 155 265 325 359 544 1190 1390 2330 3970
2026-03-14 05:30 4.30 1040 7310 (1990) 132 (1956) 1010 155 265 325 359 544 1190 1390 2330 3970
2026-03-14 04:30 4.31 1040 7310 (1990) 132 (1956) 1010 155 265 325 359 544 1190 1390 2330 3970
2026-03-14 03:30 4.32 1050 7310 (1990) 132 (1956) 1010 155 265 325 359 544 1190 1390 2330 3970
2026-03-14 02:30 4.34 1060 7310 (1990) 132 (1956) 1010 155 265 325 359 544 1190 1390 2330 3970
2026-03-14 01:30 4.35 1070 7310 (1990) 132 (1956) 1010 155 265 325 359 544 1190 1390 2330 3970
2026-03-14 00:30 4.36 1070 7310 (1990) 132 (1956) 1010 155 265 325 359 544 1190 1390 2330 3970
2026-03-13 23:30 4.38 1090 7310 (1990) 132 (1956) 1010 155 265 325 359 544 1190 1390 2330 3970
2026-03-13 22:30 4.39 1090 5520 (1999) 132 (1956) 909 150 265 343 378 578 1030 1360 2180 3090
2026-03-13 21:30 4.41 1100 5520 (1999) 132 (1956) 909 150 265 343 378 578 1030 1360 2180 3090
2026-03-13 20:30 4.42 1110 5520 (1999) 132 (1956) 909 150 265 343 378 578 1030 1360 2180 3090
2026-03-13 19:30 4.43 1120 5520 (1999) 132 (1956) 909 150 265 343 378 578 1030 1360 2180 3090
2026-03-13 18:30 4.45 1130 5520 (1999) 132 (1956) 909 150 265 343 378 578 1030 1360 2180 3090
2026-03-13 17:30 4.47 1140 5520 (1999) 132 (1956) 909 150 265 343 378 578 1030 1360 2180 3090
2026-03-13 16:30 4.48 1150 5520 (1999) 132 (1956) 909 150 265 343 378 578 1030 1360 2180 3090
2026-03-13 15:30 4.50 1160 5520 (1999) 132 (1956) 909 150 265 343 378 578 1030 1360 2180 3090
2026-03-13 14:30 4.53 1180 5520 (1999) 132 (1956) 909 150 265 343 378 578 1030 1360 2180 3090
2026-03-13 13:30 4.56 1200 5520 (1999) 132 (1956) 909 150 265 343 378 578 1030 1360 2180 3090
2026-03-13 12:30 4.58 1210 5520 (1999) 132 (1956) 909 150 265 343 378 578 1030 1360 2180 3090
2026-03-13 11:30 4.60 1220 5520 (1999) 132 (1956) 909 150 265 343 378 578 1030 1360 2180 3090
2026-03-13 10:30 4.61 1230 5520 (1999) 132 (1956) 909 150 265 343 378 578 1030 1360 2180 3090
2026-03-13 09:30 4.64 1250 5520 (1999) 132 (1956) 909 150 265 343 378 578 1030 1360 2180 3090
2026-03-13 08:30 4.66 1260 5520 (1999) 132 (1956) 909 150 265 343 378 578 1030 1360 2180 3090
2026-03-13 07:30 4.68 1280 5520 (1999) 132 (1956) 909 150 265 343 378 578 1030 1360 2180 3090
2026-03-13 06:30 4.71 1300 5520 (1999) 132 (1956) 909 150 265 343 378 578 1030 1360 2180 3090
2026-03-13 05:30 4.73 1310 5520 (1999) 132 (1956) 909 150 265 343 378 578 1030 1360 2180 3090
2026-03-13 04:30 4.75 1330 5520 (1999) 132 (1956) 909 150 265 343 378 578 1030 1360 2180 3090
2026-03-13 03:30 4.77 1340 5520 (1999) 132 (1956) 909 150 265 343 378 578 1030 1360 2180 3090
2026-03-13 02:30 4.80 1360 5520 (1999) 132 (1956) 909 150 265 343 378 578 1030 1360 2180 3090
2026-03-13 01:30 4.83 1380 5520 (1999) 132 (1956) 909 150 265 343 378 578 1030 1360 2180 3090
2026-03-13 00:30 4.85 1400 5520 (1999) 132 (1956) 909 150 265 343 378 578 1030 1360 2180 3090
2026-03-12 23:30 4.88 1420 5520 (1999) 132 (1956) 909 150 265 343 378 578 1030 1360 2180 3090
2026-03-12 22:30 4.91 1440 7330 (1990) 137 (1980) 966 151 293 335 378 569 1060 1180 1740 3610
2026-03-12 21:30 4.93 1450 7330 (1990) 137 (1980) 966 151 293 335 378 569 1060 1180 1740 3610
2026-03-12 20:30 4.96 1480 7330 (1990) 137 (1980) 966 151 293 335 378 569 1060 1180 1740 3610
2026-03-12 19:30 4.99 1500 7330 (1990) 137 (1980) 966 151 293 335 378 569 1060 1180 1740 3610
2026-03-12 18:30 5.02 1520 7330 (1990) 137 (1980) 966 151 293 335 378 569 1060 1180 1740 3610
2026-03-12 17:30 5.06 1550 7330 (1990) 137 (1980) 966 151 293 335 378 569 1060 1180 1740 3610
2026-03-12 16:30 5.10 1580 7330 (1990) 137 (1980) 966 151 293 335 378 569 1060 1180 1740 3610
2026-03-12 15:30 5.15 1620 7330 (1990) 137 (1980) 966 151 293 335 378 569 1060 1180 1740 3610
2026-03-12 14:30 5.21 1670 7330 (1990) 137 (1980) 966 151 293 335 378 569 1060 1180 1740 3610
2026-03-12 13:30 5.26 1710 7330 (1990) 137 (1980) 966 151 293 335 378 569 1060 1180 1740 3610
2026-03-12 12:30 5.30 1740 7330 (1990) 137 (1980) 966 151 293 335 378 569 1060 1180 1740 3610
2026-03-12 11:30 5.37 1790 7330 (1990) 137 (1980) 966 151 293 335 378 569 1060 1180 1740 3610
2026-03-12 10:30 5.43 1840 7330 (1990) 137 (1980) 966 151 293 335 378 569 1060 1180 1740 3610
2026-03-12 09:30 5.50 1900 7330 (1990) 137 (1980) 966 151 293 335 378 569 1060 1180 1740 3610
2026-03-12 08:30 5.57 1960 7330 (1990) 137 (1980) 966 151 293 335 378 569 1060 1180 1740 3610
2026-03-12 07:30 5.64 2010 7330 (1990) 137 (1980) 966 151 293 335 378 569 1060 1180 1740 3610
2026-03-12 06:30 5.73 2080 7330 (1990) 137 (1980) 966 151 293 335 378 569 1060 1180 1740 3610
2026-03-12 05:30 5.81 2150 7330 (1990) 137 (1980) 966 151 293 335 378 569 1060 1180 1740 3610
2026-03-12 04:30 5.90 2220 7330 (1990) 137 (1980) 966 151 293 335 378 569 1060 1180 1740 3610
2026-03-12 03:30 6.00 2310 7330 (1990) 137 (1980) 966 151 293 335 378 569 1060 1180 1740 3610
2026-03-12 02:30 6.11 2400 7330 (1990) 137 (1980) 966 151 293 335 378 569 1060 1180 1740 3610
2026-03-12 01:30 6.24 2520 7330 (1990) 137 (1980) 966 151 293 335 378 569 1060 1180 1740 3610
2026-03-12 00:30 6.37 2630 7330 (1990) 137 (1980) 966 151 293 335 378 569 1060 1180 1740 3610
2026-03-11 23:30 6.53 2780 7330 (1990) 137 (1980) 966 151 293 335 378 569 1060 1180 1740 3610
2026-03-11 22:30 6.71 2940 12000 (1973) 116 (1980) 1000 156 173 322 343 544 1120 1320 1900 3700
2026-03-11 21:30 6.90 3120 12000 (1973) 116 (1980) 1000 156 173 322 343 544 1120 1320 1900 3700
2026-03-11 20:30 7.09 3290 12000 (1973) 116 (1980) 1000 156 173 322 343 544 1120 1320 1900 3700
2026-03-11 19:30 7.27 3460 12000 (1973) 116 (1980) 1000 156 173 322 343 544 1120 1320 1900 3700
2026-03-11 18:30 7.42 3600 12000 (1973) 116 (1980) 1000 156 173 322 343 544 1120 1320 1900 3700
2026-03-11 17:30 7.47 3650 12000 (1973) 116 (1980) 1000 156 173 322 343 544 1120 1320 1900 3700
2026-03-11 16:30 7.38 3560 12000 (1973) 116 (1980) 1000 156 173 322 343 544 1120 1320 1900 3700
2026-03-11 15:30 7.11 3310 12000 (1973) 116 (1980) 1000 156 173 322 343 544 1120 1320 1900 3700
2026-03-11 14:30 6.55 2800 12000 (1973) 116 (1980) 1000 156 173 322 343 544 1120 1320 1900 3700
2026-03-11 13:30 5.79 2130 12000 (1973) 116 (1980) 1000 156 173 322 343 544 1120 1320 1900 3700
2026-03-11 12:30 5.28 1720 12000 (1973) 116 (1980) 1000 156 173 322 343 544 1120 1320 1900 3700
2026-03-11 11:30 5.13 1600 12000 (1973) 116 (1980) 1000 156 173 322 343 544 1120 1320 1900 3700
2026-03-11 10:30 4.95 1470 12000 (1973) 116 (1980) 1000 156 173 322 343 544 1120 1320 1900 3700
2026-03-11 09:30 4.67 1270 12000 (1973) 116 (1980) 1000 156 173 322 343 544 1120 1320 1900 3700
2026-03-11 08:30 4.55 1190 12000 (1973) 116 (1980) 1000 156 173 322 343 544 1120 1320 1900 3700
2026-03-11 07:30 4.47 1140 12000 (1973) 116 (1980) 1000 156 173 322 343 544 1120 1320 1900 3700
2026-03-11 06:30 4.41 1100 12000 (1973) 116 (1980) 1000 156 173 322 343 544 1120 1320 1900 3700
2026-03-11 05:30 4.35 1070 12000 (1973) 116 (1980) 1000 156 173 322 343 544 1120 1320 1900 3700
2026-03-11 04:30 4.31 1040 12000 (1973) 116 (1980) 1000 156 173 322 343 544 1120 1320 1900 3700
2026-03-11 03:30 4.28 1030 12000 (1973) 116 (1980) 1000 156 173 322 343 544 1120 1320 1900 3700
2026-03-11 02:30 4.20 979 12000 (1973) 116 (1980) 1000 156 173 322 343 544 1120 1320 1900 3700
2026-03-11 01:30 4.15 951 12000 (1973) 116 (1980) 1000 156 173 322 343 544 1120 1320 1900 3700
2026-03-11 00:30 4.12 934 12000 (1973) 116 (1980) 1000 156 173 322 343 544 1120 1320 1900 3700
2026-03-10 23:30 4.13 940 12000 (1973) 116 (1980) 1000 156 173 322 343 544 1120 1320 1900 3700
2026-03-10 22:30 4.14 945 7220 (1973) 117 (1980) 892 157 214 330 358 574 952 1370 1940 2520
2026-03-10 21:30 4.15 951 7220 (1973) 117 (1980) 892 157 214 330 358 574 952 1370 1940 2520
2026-03-10 20:30 4.17 962 7220 (1973) 117 (1980) 892 157 214 330 358 574 952 1370 1940 2520
2026-03-10 19:30 4.18 968 7220 (1973) 117 (1980) 892 157 214 330 358 574 952 1370 1940 2520
2026-03-10 18:30 4.20 979 7220 (1973) 117 (1980) 892 157 214 330 358 574 952 1370 1940 2520
2026-03-10 17:30 4.22 991 7220 (1973) 117 (1980) 892 157 214 330 358 574 952 1370 1940 2520
2026-03-10 16:30 4.19 973 7220 (1973) 117 (1980) 892 157 214 330 358 574 952 1370 1940 2520
2026-03-10 15:30 4.20 979 7220 (1973) 117 (1980) 892 157 214 330 358 574 952 1370 1940 2520
2026-03-10 14:30 4.25 1010 7220 (1973) 117 (1980) 892 157 214 330 358 574 952 1370 1940 2520
2026-03-10 13:30 4.29 1030 7220 (1973) 117 (1980) 892 157 214 330 358 574 952 1370 1940 2520
2026-03-10 12:30 4.27 1020 7220 (1973) 117 (1980) 892 157 214 330 358 574 952 1370 1940 2520
2026-03-10 11:30 4.30 1040 7220 (1973) 117 (1980) 892 157 214 330 358 574 952 1370 1940 2520
2026-03-10 10:30 4.31 1040 7220 (1973) 117 (1980) 892 157 214 330 358 574 952 1370 1940 2520
2026-03-10 09:30 4.34 1060 7220 (1973) 117 (1980) 892 157 214 330 358 574 952 1370 1940 2520
2026-03-10 08:30 4.36 1070 7220 (1973) 117 (1980) 892 157 214 330 358 574 952 1370 1940 2520
2026-03-10 07:30 4.37 1080 7220 (1973) 117 (1980) 892 157 214 330 358 574 952 1370 1940 2520
2026-03-10 06:30 4.39 1090 7220 (1973) 117 (1980) 892 157 214 330 358 574 952 1370 1940 2520
2026-03-10 05:30 4.40 1100 7220 (1973) 117 (1980) 892 157 214 330 358 574 952 1370 1940 2520
2026-03-10 04:30 4.42 1110 7220 (1973) 117 (1980) 892 157 214 330 358 574 952 1370 1940 2520
2026-03-10 03:30 4.43 1120 7220 (1973) 117 (1980) 892 157 214 330 358 574 952 1370 1940 2520
2026-03-10 02:30 4.44 1120 7220 (1973) 117 (1980) 892 157 214 330 358 574 952 1370 1940 2520
2026-03-10 01:30 4.46 1130 7220 (1973) 117 (1980) 892 157 214 330 358 574 952 1370 1940 2520
2026-03-10 00:30 4.47 1140 7220 (1973) 117 (1980) 892 157 214 330 358 574 952 1370 1940 2520
2026-03-09 23:30 4.48 1150 7220 (1973) 117 (1980) 892 157 214 330 358 574 952 1370 1940 2520
2026-03-09 22:30 4.50 1160 4130 (1994) 122 (1980) 833 151 184 295 332 585 956 1090 1990 2780
2026-03-09 21:30 4.52 1170 4130 (1994) 122 (1980) 833 151 184 295 332 585 956 1090 1990 2780
2026-03-09 20:30 4.53 1180 4130 (1994) 122 (1980) 833 151 184 295 332 585 956 1090 1990 2780
2026-03-09 19:30 4.55 1190 4130 (1994) 122 (1980) 833 151 184 295 332 585 956 1090 1990 2780
2026-03-09 18:30 4.57 1210 4130 (1994) 122 (1980) 833 151 184 295 332 585 956 1090 1990 2780
2026-03-09 17:30 4.60 1220 4130 (1994) 122 (1980) 833 151 184 295 332 585 956 1090 1990 2780
2026-03-09 16:30 4.62 1240 4130 (1994) 122 (1980) 833 151 184 295 332 585 956 1090 1990 2780
2026-03-09 15:30 4.65 1260 4130 (1994) 122 (1980) 833 151 184 295 332 585 956 1090 1990 2780
2026-03-09 14:30 4.68 1280 4130 (1994) 122 (1980) 833 151 184 295 332 585 956 1090 1990 2780
2026-03-09 13:30 4.71 1300 4130 (1994) 122 (1980) 833 151 184 295 332 585 956 1090 1990 2780
2026-03-09 12:30 4.73 1310 4130 (1994) 122 (1980) 833 151 184 295 332 585 956 1090 1990 2780
2026-03-09 11:30 4.76 1330 4130 (1994) 122 (1980) 833 151 184 295 332 585 956 1090 1990 2780
2026-03-09 10:30 4.79 1350 4130 (1994) 122 (1980) 833 151 184 295 332 585 956 1090 1990 2780
2026-03-09 09:30 4.82 1370 4130 (1994) 122 (1980) 833 151 184 295 332 585 956 1090 1990 2780
2026-03-09 08:30 4.85 1400 4130 (1994) 122 (1980) 833 151 184 295 332 585 956 1090 1990 2780
2026-03-09 07:30 4.88 1420 4130 (1994) 122 (1980) 833 151 184 295 332 585 956 1090 1990 2780
2026-03-09 06:30 4.91 1440 4130 (1994) 122 (1980) 833 151 184 295 332 585 956 1090 1990 2780
2026-03-09 05:30 4.95 1470 4130 (1994) 122 (1980) 833 151 184 295 332 585 956 1090 1990 2780
2026-03-09 04:30 4.97 1480 4130 (1994) 122 (1980) 833 151 184 295 332 585 956 1090 1990 2780
2026-03-09 03:30 5.01 1510 4130 (1994) 122 (1980) 833 151 184 295 332 585 956 1090 1990 2780
2026-03-09 02:30 5.04 1530 4130 (1994) 122 (1980) 833 151 184 295 332 585 956 1090 1990 2780
2026-03-09 01:30 5.07 1560 4130 (1994) 122 (1980) 833 151 184 295 332 585 956 1090 1990 2780
2026-03-09 00:30 5.11 1590 4130 (1994) 122 (1980) 833 151 184 295 332 585 956 1090 1990 2780
2026-03-08 23:30 5.14 1610 4130 (1994) 122 (1980) 833 151 184 295 332 585 956 1090 1990 2780
2026-03-08 22:30 5.19 1650 4070 (1998) 75 (1964) 789 126 167 308 336 541 900 964 2020 2790
2026-03-08 21:30 5.22 1670 4070 (1998) 75 (1964) 789 126 167 308 336 541 900 964 2020 2790
2026-03-08 20:30 5.26 1710 4070 (1998) 75 (1964) 789 126 167 308 336 541 900 964 2020 2790
2026-03-08 19:30 5.31 1750 4070 (1998) 75 (1964) 789 126 167 308 336 541 900 964 2020 2790
2026-03-08 18:30 5.36 1790 4070 (1998) 75 (1964) 789 126 167 308 336 541 900 964 2020 2790
2026-03-08 17:30 5.42 1840 4070 (1998) 75 (1964) 789 126 167 308 336 541 900 964 2020 2790
2026-03-08 16:30 5.47 1880 4070 (1998) 75 (1964) 789 126 167 308 336 541 900 964 2020 2790
2026-03-08 15:30 5.54 1930 4070 (1998) 75 (1964) 789 126 167 308 336 541 900 964 2020 2790
2026-03-08 14:30 5.61 1990 4070 (1998) 75 (1964) 789 126 167 308 336 541 900 964 2020 2790
2026-03-08 13:30 5.68 2040 4070 (1998) 75 (1964) 789 126 167 308 336 541 900 964 2020 2790
2026-03-08 12:30 5.76 2110 4070 (1998) 75 (1964) 789 126 167 308 336 541 900 964 2020 2790
2026-03-08 11:30 5.84 2170 4070 (1998) 75 (1964) 789 126 167 308 336 541 900 964 2020 2790
2026-03-08 10:30 5.93 2250 4070 (1998) 75 (1964) 789 126 167 308 336 541 900 964 2020 2790
2026-03-08 09:30 6.02 2330 4070 (1998) 75 (1964) 789 126 167 308 336 541 900 964 2020 2790
2026-03-08 08:30 6.13 2420 4070 (1998) 75 (1964) 789 126 167 308 336 541 900 964 2020 2790
2026-03-08 07:30 6.24 2520 4070 (1998) 75 (1964) 789 126 167 308 336 541 900 964 2020 2790
2026-03-08 06:30 6.36 2620 4070 (1998) 75 (1964) 789 126 167 308 336 541 900 964 2020 2790
2026-03-08 05:30 6.51 2760 4070 (1998) 75 (1964) 789 126 167 308 336 541 900 964 2020 2790
2026-03-08 04:30 6.67 2910 4070 (1998) 75 (1964) 789 126 167 308 336 541 900 964 2020 2790
2026-03-08 03:30 6.84 3060 4070 (1998) 75 (1964) 789 126 167 308 336 541 900 964 2020 2790
2026-03-08 01:30 7.04 3250 4070 (1998) 75 (1964) 789 126 167 308 336 541 900 964 2020 2790
2026-03-08 00:30 7.28 3470 4070 (1998) 75 (1964) 789 126 167 308 336 541 900 964 2020 2790
2026-03-07 23:30 7.54 3710 4070 (1998) 75 (1964) 789 126 167 308 336 541 900 964 2020 2790
2026-03-07 22:30 7.84 4020 4090 (1995) 65 (1964) 713 136 173 258 314 501 939 1020 1480 1760
2026-03-07 21:30 8.15 4360 4090 (1995) 65 (1964) 713 136 173 258 314 501 939 1020 1480 1760
2026-03-07 20:30 8.42 4660 4090 (1995) 65 (1964) 713 136 173 258 314 501 939 1020 1480 1760
2026-03-07 19:30 8.55 4810 4090 (1995) 65 (1964) 713 136 173 258 314 501 939 1020 1480 1760
2026-03-07 18:30 8.52 4780 4090 (1995) 65 (1964) 713 136 173 258 314 501 939 1020 1480 1760
2026-03-07 17:30 8.27 4490 4090 (1995) 65 (1964) 713 136 173 258 314 501 939 1020 1480 1760
2026-03-07 16:30 7.82 4000 4090 (1995) 65 (1964) 713 136 173 258 314 501 939 1020 1480 1760
2026-03-07 15:30 7.11 3310 4090 (1995) 65 (1964) 713 136 173 258 314 501 939 1020 1480 1760
2026-03-07 14:30 6.05 2350 4090 (1995) 65 (1964) 713 136 173 258 314 501 939 1020 1480 1760
2026-03-07 13:30 5.12 1600 4090 (1995) 65 (1964) 713 136 173 258 314 501 939 1020 1480 1760
2026-03-07 12:30 4.87 1410 4090 (1995) 65 (1964) 713 136 173 258 314 501 939 1020 1480 1760
2026-03-07 11:30 4.86 1400 4090 (1995) 65 (1964) 713 136 173 258 314 501 939 1020 1480 1760
2026-03-07 10:30 4.86 1400 4090 (1995) 65 (1964) 713 136 173 258 314 501 939 1020 1480 1760
2026-03-07 09:30 4.85 1400 4090 (1995) 65 (1964) 713 136 173 258 314 501 939 1020 1480 1760
2026-03-07 08:30 4.86 1400 4090 (1995) 65 (1964) 713 136 173 258 314 501 939 1020 1480 1760
2026-03-07 07:30 4.87 1410 4090 (1995) 65 (1964) 713 136 173 258 314 501 939 1020 1480 1760
2026-03-07 06:30 4.89 1420 4090 (1995) 65 (1964) 713 136 173 258 314 501 939 1020 1480 1760
2026-03-07 05:30 4.93 1450 4090 (1995) 65 (1964) 713 136 173 258 314 501 939 1020 1480 1760
2026-03-07 04:30 4.94 1460 4090 (1995) 65 (1964) 713 136 173 258 314 501 939 1020 1480 1760
2026-03-07 03:30 4.94 1460 4090 (1995) 65 (1964) 713 136 173 258 314 501 939 1020 1480 1760
2026-03-07 02:30 4.97 1480 4090 (1995) 65 (1964) 713 136 173 258 314 501 939 1020 1480 1760
2026-03-07 01:30 4.97 1480 4090 (1995) 65 (1964) 713 136 173 258 314 501 939 1020 1480 1760
2026-03-07 00:30 5.05 1540 4090 (1995) 65 (1964) 713 136 173 258 314 501 939 1020 1480 1760
2026-03-06 23:30 5.08 1560 4090 (1995) 65 (1964) 713 136 173 258 314 501 939 1020 1480 1760
2026-03-06 22:30 5.13 1600 4650 (1959) 90 (1967) 741 123 169 282 303 486 991 1080 1650 2070
2026-03-06 21:30 5.17 1630 4650 (1959) 90 (1967) 741 123 169 282 303 486 991 1080 1650 2070
2026-03-06 20:30 5.21 1670 4650 (1959) 90 (1967) 741 123 169 282 303 486 991 1080 1650 2070
2026-03-06 19:30 5.25 1700 4650 (1959) 90 (1967) 741 123 169 282 303 486 991 1080 1650 2070
2026-03-06 18:30 5.29 1730 4650 (1959) 90 (1967) 741 123 169 282 303 486 991 1080 1650 2070
2026-03-06 17:30 5.34 1770 4650 (1959) 90 (1967) 741 123 169 282 303 486 991 1080 1650 2070
2026-03-06 16:30 5.39 1810 4650 (1959) 90 (1967) 741 123 169 282 303 486 991 1080 1650 2070
2026-03-06 15:30 5.45 1860 4650 (1959) 90 (1967) 741 123 169 282 303 486 991 1080 1650 2070
2026-03-06 14:30 5.51 1910 4650 (1959) 90 (1967) 741 123 169 282 303 486 991 1080 1650 2070
2026-03-06 13:30 5.57 1960 4650 (1959) 90 (1967) 741 123 169 282 303 486 991 1080 1650 2070
2026-03-06 12:30 5.61 1990 4650 (1959) 90 (1967) 741 123 169 282 303 486 991 1080 1650 2070
2026-03-06 11:30 5.71 2070 4650 (1959) 90 (1967) 741 123 169 282 303 486 991 1080 1650 2070
2026-03-06 10:30 5.80 2140 4650 (1959) 90 (1967) 741 123 169 282 303 486 991 1080 1650 2070
2026-03-06 09:30 5.88 2210 4650 (1959) 90 (1967) 741 123 169 282 303 486 991 1080 1650 2070
2026-03-06 08:30 5.96 2270 4650 (1959) 90 (1967) 741 123 169 282 303 486 991 1080 1650 2070
2026-03-06 07:30 6.06 2360 4650 (1959) 90 (1967) 741 123 169 282 303 486 991 1080 1650 2070
2026-03-06 06:30 6.15 2440 4650 (1959) 90 (1967) 741 123 169 282 303 486 991 1080 1650 2070
2026-03-06 05:30 6.26 2530 4650 (1959) 90 (1967) 741 123 169 282 303 486 991 1080 1650 2070
2026-03-06 04:30 6.37 2630 4650 (1959) 90 (1967) 741 123 169 282 303 486 991 1080 1650 2070
2026-03-06 03:30 6.50 2750 4650 (1959) 90 (1967) 741 123 169 282 303 486 991 1080 1650 2070
2026-03-06 02:30 6.65 2890 4650 (1959) 90 (1967) 741 123 169 282 303 486 991 1080 1650 2070
2026-03-06 01:30 6.81 3030 4650 (1959) 90 (1967) 741 123 169 282 303 486 991 1080 1650 2070
2026-03-06 00:30 6.99 3200 4650 (1959) 90 (1967) 741 123 169 282 303 486 991 1080 1650 2070
2026-03-05 23:30 7.22 3420 4650 (1959) 90 (1967) 741 123 169 282 303 486 991 1080 1650 2070
2026-03-05 22:30 7.47 3650 4810 (1959) 61 (1964) 831 126 160 265 303 511 1030 1230 2150 2780
2026-03-05 21:30 7.78 3960 4810 (1959) 61 (1964) 831 126 160 265 303 511 1030 1230 2150 2780
2026-03-05 20:30 8.16 4370 4810 (1959) 61 (1964) 831 126 160 265 303 511 1030 1230 2150 2780
2026-03-05 19:30 8.61 4880 4810 (1959) 61 (1964) 831 126 160 265 303 511 1030 1230 2150 2780
2026-03-05 18:30 9.08 5440 4810 (1959) 61 (1964) 831 126 160 265 303 511 1030 1230 2150 2780
2026-03-05 17:30 9.48 5950 4810 (1959) 61 (1964) 831 126 160 265 303 511 1030 1230 2150 2780
2026-03-05 16:30 9.68 6200 4810 (1959) 61 (1964) 831 126 160 265 303 511 1030 1230 2150 2780
2026-03-05 15:30 9.65 6160 4810 (1959) 61 (1964) 831 126 160 265 303 511 1030 1230 2150 2780
2026-03-05 14:30 9.28 5690 4810 (1959) 61 (1964) 831 126 160 265 303 511 1030 1230 2150 2780
2026-03-05 13:30 8.76 5060 4810 (1959) 61 (1964) 831 126 160 265 303 511 1030 1230 2150 2780
2026-03-05 12:30 8.17 4380 4810 (1959) 61 (1964) 831 126 160 265 303 511 1030 1230 2150 2780
2026-03-05 11:30 7.49 3660 4810 (1959) 61 (1964) 831 126 160 265 303 511 1030 1230 2150 2780
2026-03-05 10:30 6.52 2770 4810 (1959) 61 (1964) 831 126 160 265 303 511 1030 1230 2150 2780
2026-03-05 09:30 5.54 1930 4810 (1959) 61 (1964) 831 126 160 265 303 511 1030 1230 2150 2780
2026-03-05 08:30 5.00 1500 4810 (1959) 61 (1964) 831 126 160 265 303 511 1030 1230 2150 2780
2026-03-05 07:30 4.73 1310 4810 (1959) 61 (1964) 831 126 160 265 303 511 1030 1230 2150 2780
2026-03-05 06:30 4.50 1160 4810 (1959) 61 (1964) 831 126 160 265 303 511 1030 1230 2150 2780
2026-03-05 05:30 4.37 1080 4810 (1959) 61 (1964) 831 126 160 265 303 511 1030 1230 2150 2780
2026-03-05 04:30 4.07 907 4810 (1959) 61 (1964) 831 126 160 265 303 511 1030 1230 2150 2780
2026-03-05 03:30 3.71 723 4810 (1959) 61 (1964) 831 126 160 265 303 511 1030 1230 2150 2780
2026-03-05 02:30 3.26 528 4810 (1959) 61 (1964) 831 126 160 265 303 511 1030 1230 2150 2780
2026-03-05 01:30 3.04 446 4810 (1959) 61 (1964) 831 126 160 265 303 511 1030 1230 2150 2780
2026-03-05 00:30 3.01 435 4810 (1959) 61 (1964) 831 126 160 265 303 511 1030 1230 2150 2780
2026-03-04 23:30 2.88 392 4810 (1959) 61 (1964) 831 126 160 265 303 511 1030 1230 2150 2780
2026-03-04 22:30 2.89 395 6120 (2023) 54 (1964) 860 130 155 263 289 509 990 1230 1790 3370
2026-03-04 21:30 2.75 350 6120 (2023) 54 (1964) 860 130 155 263 289 509 990 1230 1790 3370
2026-03-04 20:30 2.71 338 6120 (2023) 54 (1964) 860 130 155 263 289 509 990 1230 1790 3370
2026-03-04 19:30 2.66 324 6120 (2023) 54 (1964) 860 130 155 263 289 509 990 1230 1790 3370
2026-03-04 18:30 2.68 330 6120 (2023) 54 (1964) 860 130 155 263 289 509 990 1230 1790 3370
2026-03-04 17:30 2.67 327 6120 (2023) 54 (1964) 860 130 155 263 289 509 990 1230 1790 3370
2026-03-04 16:30 2.67 327 6120 (2023) 54 (1964) 860 130 155 263 289 509 990 1230 1790 3370
2026-03-04 15:30 2.66 324 6120 (2023) 54 (1964) 860 130 155 263 289 509 990 1230 1790 3370
2026-03-04 14:30 2.67 327 6120 (2023) 54 (1964) 860 130 155 263 289 509 990 1230 1790 3370
2026-03-04 13:30 2.67 327 6120 (2023) 54 (1964) 860 130 155 263 289 509 990 1230 1790 3370
2026-03-04 12:30 2.68 330 6120 (2023) 54 (1964) 860 130 155 263 289 509 990 1230 1790 3370
2026-03-04 11:30 2.68 330 6120 (2023) 54 (1964) 860 130 155 263 289 509 990 1230 1790 3370
2026-03-04 10:30 2.66 324 6120 (2023) 54 (1964) 860 130 155 263 289 509 990 1230 1790 3370
2026-03-04 09:30 2.58 301 6120 (2023) 54 (1964) 860 130 155 263 289 509 990 1230 1790 3370
2026-03-04 08:30 2.58 301 6120 (2023) 54 (1964) 860 130 155 263 289 509 990 1230 1790 3370
2026-03-04 07:30 2.59 304 6120 (2023) 54 (1964) 860 130 155 263 289 509 990 1230 1790 3370
2026-03-04 06:30 2.58 301 6120 (2023) 54 (1964) 860 130 155 263 289 509 990 1230 1790 3370
2026-03-04 05:30 2.58 301 6120 (2023) 54 (1964) 860 130 155 263 289 509 990 1230 1790 3370
2026-03-04 04:30 2.58 301 6120 (2023) 54 (1964) 860 130 155 263 289 509 990 1230 1790 3370
2026-03-04 03:30 2.59 304 6120 (2023) 54 (1964) 860 130 155 263 289 509 990 1230 1790 3370
2026-03-04 02:30 2.59 304 6120 (2023) 54 (1964) 860 130 155 263 289 509 990 1230 1790 3370
2026-03-04 01:30 2.60 307 6120 (2023) 54 (1964) 860 130 155 263 289 509 990 1230 1790 3370
2026-03-04 00:30 2.61 309 6120 (2023) 54 (1964) 860 130 155 263 289 509 990 1230 1790 3370
2026-03-03 23:30 2.62 312 6120 (2023) 54 (1964) 860 130 155 263 289 509 990 1230 1790 3370
2026-03-03 22:30 2.63 315 7850 (2023) 75 (1967) 879 127 156 281 312 506 857 1250 1750 3270
2026-03-03 21:30 2.63 315 7850 (2023) 75 (1967) 879 127 156 281 312 506 857 1250 1750 3270
2026-03-03 20:30 2.64 318 7850 (2023) 75 (1967) 879 127 156 281 312 506 857 1250 1750 3270
2026-03-03 19:30 2.65 321 7850 (2023) 75 (1967) 879 127 156 281 312 506 857 1250 1750 3270
2026-03-03 18:30 2.66 324 7850 (2023) 75 (1967) 879 127 156 281 312 506 857 1250 1750 3270
2026-03-03 17:30 2.67 327 7850 (2023) 75 (1967) 879 127 156 281 312 506 857 1250 1750 3270
2026-03-03 16:30 2.68 330 7850 (2023) 75 (1967) 879 127 156 281 312 506 857 1250 1750 3270
2026-03-03 15:30 2.66 324 7850 (2023) 75 (1967) 879 127 156 281 312 506 857 1250 1750 3270
2026-03-03 14:30 2.67 327 7850 (2023) 75 (1967) 879 127 156 281 312 506 857 1250 1750 3270
2026-03-03 13:30 2.68 330 7850 (2023) 75 (1967) 879 127 156 281 312 506 857 1250 1750 3270
2026-03-03 12:30 2.68 330 7850 (2023) 75 (1967) 879 127 156 281 312 506 857 1250 1750 3270
2026-03-03 11:30 2.70 335 7850 (2023) 75 (1967) 879 127 156 281 312 506 857 1250 1750 3270
2026-03-03 10:30 2.71 338 7850 (2023) 75 (1967) 879 127 156 281 312 506 857 1250 1750 3270
2026-03-03 09:30 2.72 341 7850 (2023) 75 (1967) 879 127 156 281 312 506 857 1250 1750 3270
2026-03-03 08:30 2.78 360 7850 (2023) 75 (1967) 879 127 156 281 312 506 857 1250 1750 3270
2026-03-03 07:30 2.80 366 7850 (2023) 75 (1967) 879 127 156 281 312 506 857 1250 1750 3270
2026-03-03 06:30 2.81 369 7850 (2023) 75 (1967) 879 127 156 281 312 506 857 1250 1750 3270
2026-03-03 05:30 2.82 372 7850 (2023) 75 (1967) 879 127 156 281 312 506 857 1250 1750 3270
2026-03-03 04:30 2.81 369 7850 (2023) 75 (1967) 879 127 156 281 312 506 857 1250 1750 3270
2026-03-03 03:30 2.81 369 7850 (2023) 75 (1967) 879 127 156 281 312 506 857 1250 1750 3270
2026-03-03 02:30 2.80 366 7850 (2023) 75 (1967) 879 127 156 281 312 506 857 1250 1750 3270
2026-03-03 01:30 2.78 360 7850 (2023) 75 (1967) 879 127 156 281 312 506 857 1250 1750 3270
2026-03-03 00:30 2.73 344 7850 (2023) 75 (1967) 879 127 156 281 312 506 857 1250 1750 3270
2026-03-02 23:30 2.67 327 7850 (2023) 75 (1967) 879 127 156 281 312 506 857 1250 1750 3270
2026-03-02 22:30 2.58 301 5380 (1973) 56 (1964) 739 118 163 259 285 492 918 1110 1600 2210
2026-03-02 21:30 2.53 287 5380 (1973) 56 (1964) 739 118 163 259 285 492 918 1110 1600 2210
2026-03-02 20:30 2.47 271 5380 (1973) 56 (1964) 739 118 163 259 285 492 918 1110 1600 2210
2026-03-02 19:30 2.46 269 5380 (1973) 56 (1964) 739 118 163 259 285 492 918 1110 1600 2210
2026-03-02 18:30 2.44 264 5380 (1973) 56 (1964) 739 118 163 259 285 492 918 1110 1600 2210
2026-03-02 17:30 2.44 264 5380 (1973) 56 (1964) 739 118 163 259 285 492 918 1110 1600 2210
2026-03-02 16:30 2.43 261 5380 (1973) 56 (1964) 739 118 163 259 285 492 918 1110 1600 2210
2026-03-02 15:30 2.42 258 5380 (1973) 56 (1964) 739 118 163 259 285 492 918 1110 1600 2210
2026-03-02 14:30 2.42 258 5380 (1973) 56 (1964) 739 118 163 259 285 492 918 1110 1600 2210
2026-03-02 13:30 2.41 256 5380 (1973) 56 (1964) 739 118 163 259 285 492 918 1110 1600 2210
2026-03-02 12:30 2.41 256 5380 (1973) 56 (1964) 739 118 163 259 285 492 918 1110 1600 2210
2026-03-02 11:30 2.41 256 5380 (1973) 56 (1964) 739 118 163 259 285 492 918 1110 1600 2210
2026-03-02 10:30 2.41 256 5380 (1973) 56 (1964) 739 118 163 259 285 492 918 1110 1600 2210
2026-03-02 09:30 2.41 256 5380 (1973) 56 (1964) 739 118 163 259 285 492 918 1110 1600 2210
2026-03-02 08:30 2.41 256 5380 (1973) 56 (1964) 739 118 163 259 285 492 918 1110 1600 2210
2026-03-02 07:30 2.41 256 5380 (1973) 56 (1964) 739 118 163 259 285 492 918 1110 1600 2210
2026-03-02 06:30 2.41 256 5380 (1973) 56 (1964) 739 118 163 259 285 492 918 1110 1600 2210
2026-03-02 05:30 2.41 256 5380 (1973) 56 (1964) 739 118 163 259 285 492 918 1110 1600 2210
2026-03-02 04:30 2.41 256 5380 (1973) 56 (1964) 739 118 163 259 285 492 918 1110 1600 2210
2026-03-02 03:30 2.41 256 5380 (1973) 56 (1964) 739 118 163 259 285 492 918 1110 1600 2210
2026-03-02 02:30 2.41 256 5380 (1973) 56 (1964) 739 118 163 259 285 492 918 1110 1600 2210
2026-03-02 01:30 2.41 256 5380 (1973) 56 (1964) 739 118 163 259 285 492 918 1110 1600 2210
2026-03-02 00:30 2.37 246 5380 (1973) 56 (1964) 739 118 163 259 285 492 918 1110 1600 2210
2026-03-01 23:30 2.32 234 5380 (1973) 56 (1964) 739 118 163 259 285 492 918 1110 1600 2210
2026-03-01 22:30 2.37 246 5340 (1987) 55 (1964) 734 115 164 253 261 490 984 1100 1660 2010
2026-03-01 21:30 2.36 244 5340 (1987) 55 (1964) 734 115 164 253 261 490 984 1100 1660 2010
2026-03-01 20:30 2.39 251 5340 (1987) 55 (1964) 734 115 164 253 261 490 984 1100 1660 2010
2026-03-01 19:30 2.39 251 5340 (1987) 55 (1964) 734 115 164 253 261 490 984 1100 1660 2010
2026-03-01 18:30 2.39 251 5340 (1987) 55 (1964) 734 115 164 253 261 490 984 1100 1660 2010
2026-03-01 17:30 2.38 248 5340 (1987) 55 (1964) 734 115 164 253 261 490 984 1100 1660 2010
2026-03-01 16:30 2.37 246 5340 (1987) 55 (1964) 734 115 164 253 261 490 984 1100 1660 2010
2026-03-01 15:30 2.37 246 5340 (1987) 55 (1964) 734 115 164 253 261 490 984 1100 1660 2010
2026-03-01 14:30 2.37 246 5340 (1987) 55 (1964) 734 115 164 253 261 490 984 1100 1660 2010
2026-03-01 13:30 2.36 244 5340 (1987) 55 (1964) 734 115 164 253 261 490 984 1100 1660 2010
2026-03-01 12:30 2.37 246 5340 (1987) 55 (1964) 734 115 164 253 261 490 984 1100 1660 2010
2026-03-01 11:30 2.37 246 5340 (1987) 55 (1964) 734 115 164 253 261 490 984 1100 1660 2010
2026-03-01 10:30 2.37 246 5340 (1987) 55 (1964) 734 115 164 253 261 490 984 1100 1660 2010
2026-03-01 09:30 2.38 248 5340 (1987) 55 (1964) 734 115 164 253 261 490 984 1100 1660 2010
2026-03-01 08:30 2.38 248 5340 (1987) 55 (1964) 734 115 164 253 261 490 984 1100 1660 2010
2026-03-01 07:30 2.38 248 5340 (1987) 55 (1964) 734 115 164 253 261 490 984 1100 1660 2010
2026-03-01 06:30 2.38 248 5340 (1987) 55 (1964) 734 115 164 253 261 490 984 1100 1660 2010
2026-03-01 05:30 2.39 251 5340 (1987) 55 (1964) 734 115 164 253 261 490 984 1100 1660 2010
2026-03-01 04:30 2.39 251 5340 (1987) 55 (1964) 734 115 164 253 261 490 984 1100 1660 2010
2026-03-01 03:30 2.39 251 5340 (1987) 55 (1964) 734 115 164 253 261 490 984 1100 1660 2010
2026-03-01 02:30 2.39 251 5340 (1987) 55 (1964) 734 115 164 253 261 490 984 1100 1660 2010
2026-03-01 01:30 2.40 253 5340 (1987) 55 (1964) 734 115 164 253 261 490 984 1100 1660 2010
2026-03-01 00:30 2.40 253 5340 (1987) 55 (1964) 734 115 164 253 261 490 984 1100 1660 2010
2026-02-28 23:30 2.40 253 5340 (1987) 55 (1964) 734 115 164 253 261 490 984 1100 1660 2010
2026-02-28 22:30 2.40 253 4200 (2018) 58 (1964) 740 114 168 240 269 492 868 1090 1900 2190
2026-02-28 21:30 2.39 251 4200 (2018) 58 (1964) 740 114 168 240 269 492 868 1090 1900 2190
2026-02-28 20:30 2.39 251 4200 (2018) 58 (1964) 740 114 168 240 269 492 868 1090 1900 2190
2026-02-28 19:30 2.39 251 4200 (2018) 58 (1964) 740 114 168 240 269 492 868 1090 1900 2190
2026-02-28 18:30 2.40 253 4200 (2018) 58 (1964) 740 114 168 240 269 492 868 1090 1900 2190
2026-02-28 17:30 2.40 253 4200 (2018) 58 (1964) 740 114 168 240 269 492 868 1090 1900 2190
2026-02-28 16:30 2.40 253 4200 (2018) 58 (1964) 740 114 168 240 269 492 868 1090 1900 2190
2026-02-28 15:30 2.36 244 4200 (2018) 58 (1964) 740 114 168 240 269 492 868 1090 1900 2190
2026-02-28 14:30 2.39 251 4200 (2018) 58 (1964) 740 114 168 240 269 492 868 1090 1900 2190
2026-02-28 13:30 2.35 241 4200 (2018) 58 (1964) 740 114 168 240 269 492 868 1090 1900 2190
2026-02-28 12:30 2.34 239 4200 (2018) 58 (1964) 740 114 168 240 269 492 868 1090 1900 2190
2026-02-28 11:30 2.37 246 4200 (2018) 58 (1964) 740 114 168 240 269 492 868 1090 1900 2190
2026-02-28 10:30 2.39 251 4200 (2018) 58 (1964) 740 114 168 240 269 492 868 1090 1900 2190
2026-02-28 09:30 2.40 253 4200 (2018) 58 (1964) 740 114 168 240 269 492 868 1090 1900 2190
2026-02-28 08:30 2.40 253 4200 (2018) 58 (1964) 740 114 168 240 269 492 868 1090 1900 2190
2026-02-28 07:30 2.40 253 4200 (2018) 58 (1964) 740 114 168 240 269 492 868 1090 1900 2190
2026-02-28 06:30 2.40 253 4200 (2018) 58 (1964) 740 114 168 240 269 492 868 1090 1900 2190
2026-02-28 05:30 2.40 253 4200 (2018) 58 (1964) 740 114 168 240 269 492 868 1090 1900 2190
2026-02-28 04:30 2.40 253 4200 (2018) 58 (1964) 740 114 168 240 269 492 868 1090 1900 2190
2026-02-28 03:30 2.40 253 4200 (2018) 58 (1964) 740 114 168 240 269 492 868 1090 1900 2190
2026-02-28 02:30 2.41 256 4200 (2018) 58 (1964) 740 114 168 240 269 492 868 1090 1900 2190
2026-02-28 01:30 2.41 256 4200 (2018) 58 (1964) 740 114 168 240 269 492 868 1090 1900 2190
2026-02-28 00:30 2.41 256 4200 (2018) 58 (1964) 740 114 168 240 269 492 868 1090 1900 2190
2026-02-27 23:30 2.41 256 4200 (2018) 58 (1964) 740 114 168 240 269 492 868 1090 1900 2190
2026-02-27 22:30 2.41 256 3120 (2018) 59 (1964) 723 114 175 235 269 489 721 1000 2270 2690
2026-02-27 21:30 2.41 256 3120 (2018) 59 (1964) 723 114 175 235 269 489 721 1000 2270 2690
2026-02-27 20:30 2.41 256 3120 (2018) 59 (1964) 723 114 175 235 269 489 721 1000 2270 2690
2026-02-27 19:30 2.41 256 3120 (2018) 59 (1964) 723 114 175 235 269 489 721 1000 2270 2690
2026-02-27 18:30 2.41 256 3120 (2018) 59 (1964) 723 114 175 235 269 489 721 1000 2270 2690
2026-02-27 17:30 2.41 256 3120 (2018) 59 (1964) 723 114 175 235 269 489 721 1000 2270 2690
2026-02-27 16:30 2.42 258 3120 (2018) 59 (1964) 723 114 175 235 269 489 721 1000 2270 2690
2026-02-27 15:30 2.42 258 3120 (2018) 59 (1964) 723 114 175 235 269 489 721 1000 2270 2690
2026-02-27 14:30 2.42 258 3120 (2018) 59 (1964) 723 114 175 235 269 489 721 1000 2270 2690
2026-02-27 13:30 2.40 253 3120 (2018) 59 (1964) 723 114 175 235 269 489 721 1000 2270 2690
2026-02-27 12:30 2.41 256 3120 (2018) 59 (1964) 723 114 175 235 269 489 721 1000 2270 2690
2026-02-27 11:30 2.42 258 3120 (2018) 59 (1964) 723 114 175 235 269 489 721 1000 2270 2690
2026-02-27 10:30 2.41 256 3120 (2018) 59 (1964) 723 114 175 235 269 489 721 1000 2270 2690
2026-02-27 09:30 2.42 258 3120 (2018) 59 (1964) 723 114 175 235 269 489 721 1000 2270 2690
2026-02-27 08:30 2.43 261 3120 (2018) 59 (1964) 723 114 175 235 269 489 721 1000 2270 2690
2026-02-27 07:30 2.43 261 3120 (2018) 59 (1964) 723 114 175 235 269 489 721 1000 2270 2690
2026-02-27 06:30 2.42 258 3120 (2018) 59 (1964) 723 114 175 235 269 489 721 1000 2270 2690
2026-02-27 05:30 2.42 258 3120 (2018) 59 (1964) 723 114 175 235 269 489 721 1000 2270 2690
2026-02-27 04:30 2.42 258 3120 (2018) 59 (1964) 723 114 175 235 269 489 721 1000 2270 2690
2026-02-27 03:30 2.42 258 3120 (2018) 59 (1964) 723 114 175 235 269 489 721 1000 2270 2690
2026-02-27 02:30 2.42 258 3120 (2018) 59 (1964) 723 114 175 235 269 489 721 1000 2270 2690
2026-02-27 01:30 2.42 258 3120 (2018) 59 (1964) 723 114 175 235 269 489 721 1000 2270 2690
2026-02-27 00:30 2.42 258 3120 (2018) 59 (1964) 723 114 175 235 269 489 721 1000 2270 2690
2026-02-26 23:30 2.42 258 3120 (2018) 59 (1964) 723 114 175 235 269 489 721 1000 2270 2690
2026-02-26 22:30 2.43 261 5110 (1993) 56 (1964) 758 124 167 242 276 438 764 868 1650 3350
2026-02-26 21:30 2.43 261 5110 (1993) 56 (1964) 758 124 167 242 276 438 764 868 1650 3350
2026-02-26 20:30 2.43 261 5110 (1993) 56 (1964) 758 124 167 242 276 438 764 868 1650 3350
2026-02-26 19:30 2.42 258 5110 (1993) 56 (1964) 758 124 167 242 276 438 764 868 1650 3350
2026-02-26 18:30 2.43 261 5110 (1993) 56 (1964) 758 124 167 242 276 438 764 868 1650 3350
2026-02-26 17:30 2.41 256 5110 (1993) 56 (1964) 758 124 167 242 276 438 764 868 1650 3350
2026-02-26 16:30 2.41 256 5110 (1993) 56 (1964) 758 124 167 242 276 438 764 868 1650 3350
2026-02-26 15:30 2.40 253 5110 (1993) 56 (1964) 758 124 167 242 276 438 764 868 1650 3350
2026-02-26 14:30 2.41 256 5110 (1993) 56 (1964) 758 124 167 242 276 438 764 868 1650 3350
2026-02-26 13:30 2.40 253 5110 (1993) 56 (1964) 758 124 167 242 276 438 764 868 1650 3350
2026-02-26 12:30 2.40 253 5110 (1993) 56 (1964) 758 124 167 242 276 438 764 868 1650 3350
2026-02-26 11:30 2.40 253 5110 (1993) 56 (1964) 758 124 167 242 276 438 764 868 1650 3350
2026-02-26 10:30 2.41 256 5110 (1993) 56 (1964) 758 124 167 242 276 438 764 868 1650 3350
2026-02-26 09:30 2.41 256 5110 (1993) 56 (1964) 758 124 167 242 276 438 764 868 1650 3350
2026-02-26 08:30 2.41 256 5110 (1993) 56 (1964) 758 124 167 242 276 438 764 868 1650 3350
2026-02-26 07:30 2.42 258 5110 (1993) 56 (1964) 758 124 167 242 276 438 764 868 1650 3350
2026-02-26 06:30 2.42 258 5110 (1993) 56 (1964) 758 124 167 242 276 438 764 868 1650 3350
2026-02-26 05:30 2.42 258 5110 (1993) 56 (1964) 758 124 167 242 276 438 764 868 1650 3350
2026-02-26 04:30 2.42 258 5110 (1993) 56 (1964) 758 124 167 242 276 438 764 868 1650 3350
2026-02-26 03:30 2.42 258 5110 (1993) 56 (1964) 758 124 167 242 276 438 764 868 1650 3350
2026-02-26 02:30 2.42 258 5110 (1993) 56 (1964) 758 124 167 242 276 438 764 868 1650 3350
2026-02-26 01:30 2.42 258 5110 (1993) 56 (1964) 758 124 167 242 276 438 764 868 1650 3350
2026-02-26 00:30 2.43 261 5110 (1993) 56 (1964) 758 124 167 242 276 438 764 868 1650 3350
2026-02-25 23:30 2.43 261 5110 (1993) 56 (1964) 758 124 167 242 276 438 764 868 1650 3350
2026-02-25 22:30 2.43 261 14000 (2018) 62 (1964) 1020 121 167 249 271 449 776 923 1530 4690
2026-02-25 21:30 2.43 261 14000 (2018) 62 (1964) 1020 121 167 249 271 449 776 923 1530 4690
2026-02-25 20:30 2.43 261 14000 (2018) 62 (1964) 1020 121 167 249 271 449 776 923 1530 4690
2026-02-25 19:30 2.42 258 14000 (2018) 62 (1964) 1020 121 167 249 271 449 776 923 1530 4690
2026-02-25 18:30 2.43 261 14000 (2018) 62 (1964) 1020 121 167 249 271 449 776 923 1530 4690
2026-02-25 17:30 2.42 258 14000 (2018) 62 (1964) 1020 121 167 249 271 449 776 923 1530 4690
2026-02-25 16:30 2.42 258 14000 (2018) 62 (1964) 1020 121 167 249 271 449 776 923 1530 4690
2026-02-25 15:30 2.42 258 14000 (2018) 62 (1964) 1020 121 167 249 271 449 776 923 1530 4690
2026-02-25 14:30 2.41 256 14000 (2018) 62 (1964) 1020 121 167 249 271 449 776 923 1530 4690
2026-02-25 13:30 2.41 256 14000 (2018) 62 (1964) 1020 121 167 249 271 449 776 923 1530 4690
2026-02-25 12:30 2.41 256 14000 (2018) 62 (1964) 1020 121 167 249 271 449 776 923 1530 4690
2026-02-25 11:30 2.41 256 14000 (2018) 62 (1964) 1020 121 167 249 271 449 776 923 1530 4690
2026-02-25 10:30 2.41 256 14000 (2018) 62 (1964) 1020 121 167 249 271 449 776 923 1530 4690
2026-02-25 09:30 2.41 256 14000 (2018) 62 (1964) 1020 121 167 249 271 449 776 923 1530 4690
2026-02-25 08:30 2.41 256 14000 (2018) 62 (1964) 1020 121 167 249 271 449 776 923 1530 4690
2026-02-25 07:30 2.41 256 14000 (2018) 62 (1964) 1020 121 167 249 271 449 776 923 1530 4690
2026-02-25 06:30 2.41 256 14000 (2018) 62 (1964) 1020 121 167 249 271 449 776 923 1530 4690
2026-02-25 05:30 2.41 256 14000 (2018) 62 (1964) 1020 121 167 249 271 449 776 923 1530 4690
2026-02-25 04:30 2.41 256 14000 (2018) 62 (1964) 1020 121 167 249 271 449 776 923 1530 4690
2026-02-25 03:30 2.41 256 14000 (2018) 62 (1964) 1020 121 167 249 271 449 776 923 1530 4690
2026-02-25 02:30 2.42 258 14000 (2018) 62 (1964) 1020 121 167 249 271 449 776 923 1530 4690
2026-02-25 01:30 2.42 258 14000 (2018) 62 (1964) 1020 121 167 249 271 449 776 923 1530 4690
2026-02-25 00:30 2.42 258 14000 (2018) 62 (1964) 1020 121 167 249 271 449 776 923 1530 4690
2026-02-24 23:30 2.42 258 14000 (2018) 62 (1964) 1020 121 167 249 271 449 776 923 1530 4690
2026-02-24 22:30 2.43 261 21400 (2018) 63 (1964) 1250 117 166 251 267 455 919 1020 1700 7560
2026-02-24 21:30 2.43 261 21400 (2018) 63 (1964) 1250 117 166 251 267 455 919 1020 1700 7560
2026-02-24 20:30 2.43 261 21400 (2018) 63 (1964) 1250 117 166 251 267 455 919 1020 1700 7560
2026-02-24 19:30 2.42 258 21400 (2018) 63 (1964) 1250 117 166 251 267 455 919 1020 1700 7560
2026-02-24 18:30 2.42 258 21400 (2018) 63 (1964) 1250 117 166 251 267 455 919 1020 1700 7560
2026-02-24 17:30 2.40 253 21400 (2018) 63 (1964) 1250 117 166 251 267 455 919 1020 1700 7560
2026-02-24 16:30 2.39 251 21400 (2018) 63 (1964) 1250 117 166 251 267 455 919 1020 1700 7560
2026-02-24 15:30 2.36 244 21400 (2018) 63 (1964) 1250 117 166 251 267 455 919 1020 1700 7560
2026-02-24 14:30 2.38 248 21400 (2018) 63 (1964) 1250 117 166 251 267 455 919 1020 1700 7560
2026-02-24 13:30 2.38 248 21400 (2018) 63 (1964) 1250 117 166 251 267 455 919 1020 1700 7560
2026-02-24 12:30 2.38 248 21400 (2018) 63 (1964) 1250 117 166 251 267 455 919 1020 1700 7560
2026-02-24 11:30 2.37 246 21400 (2018) 63 (1964) 1250 117 166 251 267 455 919 1020 1700 7560
2026-02-24 10:30 2.37 246 21400 (2018) 63 (1964) 1250 117 166 251 267 455 919 1020 1700 7560
2026-02-24 09:30 2.38 248 21400 (2018) 63 (1964) 1250 117 166 251 267 455 919 1020 1700 7560
2026-02-24 08:30 2.38 248 21400 (2018) 63 (1964) 1250 117 166 251 267 455 919 1020 1700 7560
2026-02-24 07:30 2.42 258 21400 (2018) 63 (1964) 1250 117 166 251 267 455 919 1020 1700 7560
2026-02-24 06:30 2.42 258 21400 (2018) 63 (1964) 1250 117 166 251 267 455 919 1020 1700 7560
2026-02-24 05:30 2.42 258 21400 (2018) 63 (1964) 1250 117 166 251 267 455 919 1020 1700 7560
2026-02-24 04:30 2.42 258 21400 (2018) 63 (1964) 1250 117 166 251 267 455 919 1020 1700 7560
2026-02-24 03:30 2.43 261 21400 (2018) 63 (1964) 1250 117 166 251 267 455 919 1020 1700 7560
2026-02-24 02:30 2.43 261 21400 (2018) 63 (1964) 1250 117 166 251 267 455 919 1020 1700 7560
2026-02-24 01:30 2.43 261 21400 (2018) 63 (1964) 1250 117 166 251 267 455 919 1020 1700 7560
2026-02-24 00:30 2.43 261 21400 (2018) 63 (1964) 1250 117 166 251 267 455 919 1020 1700 7560
2026-02-23 23:30 2.43 261 21400 (2018) 63 (1964) 1250 117 166 251 267 455 919 1020 1700 7560
2026-02-23 22:30 2.43 261 11400 (1975) 62 (1964) 983 120 167 246 271 464 992 1220 2300 3130
2026-02-23 21:30 2.43 261 11400 (1975) 62 (1964) 983 120 167 246 271 464 992 1220 2300 3130
2026-02-23 20:30 2.43 261 11400 (1975) 62 (1964) 983 120 167 246 271 464 992 1220 2300 3130
2026-02-23 19:30 2.43 261 11400 (1975) 62 (1964) 983 120 167 246 271 464 992 1220 2300 3130
2026-02-23 18:30 2.43 261 11400 (1975) 62 (1964) 983 120 167 246 271 464 992 1220 2300 3130
2026-02-23 17:30 2.42 258 11400 (1975) 62 (1964) 983 120 167 246 271 464 992 1220 2300 3130
2026-02-23 16:30 2.42 258 11400 (1975) 62 (1964) 983 120 167 246 271 464 992 1220 2300 3130
2026-02-23 15:30 2.41 256 11400 (1975) 62 (1964) 983 120 167 246 271 464 992 1220 2300 3130
2026-02-23 14:30 2.41 256 11400 (1975) 62 (1964) 983 120 167 246 271 464 992 1220 2300 3130
2026-02-23 13:30 2.41 256 11400 (1975) 62 (1964) 983 120 167 246 271 464 992 1220 2300 3130
2026-02-23 12:30 2.41 256 11400 (1975) 62 (1964) 983 120 167 246 271 464 992 1220 2300 3130
2026-02-23 11:30 2.41 256 11400 (1975) 62 (1964) 983 120 167 246 271 464 992 1220 2300 3130
2026-02-23 10:30 2.41 256 11400 (1975) 62 (1964) 983 120 167 246 271 464 992 1220 2300 3130
2026-02-23 09:30 2.42 258 11400 (1975) 62 (1964) 983 120 167 246 271 464 992 1220 2300 3130
2026-02-23 08:30 2.42 258 11400 (1975) 62 (1964) 983 120 167 246 271 464 992 1220 2300 3130
2026-02-23 07:30 2.43 261 11400 (1975) 62 (1964) 983 120 167 246 271 464 992 1220 2300 3130
2026-02-23 06:30 2.43 261 11400 (1975) 62 (1964) 983 120 167 246 271 464 992 1220 2300 3130
2026-02-23 05:30 2.44 264 11400 (1975) 62 (1964) 983 120 167 246 271 464 992 1220 2300 3130
2026-02-23 04:30 2.44 264 11400 (1975) 62 (1964) 983 120 167 246 271 464 992 1220 2300 3130
2026-02-23 03:30 2.45 266 11400 (1975) 62 (1964) 983 120 167 246 271 464 992 1220 2300 3130
2026-02-23 02:30 2.45 266 11400 (1975) 62 (1964) 983 120 167 246 271 464 992 1220 2300 3130
2026-02-23 01:30 2.46 269 11400 (1975) 62 (1964) 983 120 167 246 271 464 992 1220 2300 3130
2026-02-23 00:30 2.46 269 11400 (1975) 62 (1964) 983 120 167 246 271 464 992 1220 2300 3130
2026-02-22 23:30 2.46 269 11400 (1975) 62 (1964) 983 120 167 246 271 464 992 1220 2300 3130
2026-02-22 22:30 2.47 271 6140 (1975) 63 (1964) 871 121 176 261 284 458 881 993 2630 4140
2026-02-22 21:30 2.47 271 6140 (1975) 63 (1964) 871 121 176 261 284 458 881 993 2630 4140
2026-02-22 20:30 2.48 274 6140 (1975) 63 (1964) 871 121 176 261 284 458 881 993 2630 4140
2026-02-22 19:30 2.48 274 6140 (1975) 63 (1964) 871 121 176 261 284 458 881 993 2630 4140
2026-02-22 18:30 2.49 277 6140 (1975) 63 (1964) 871 121 176 261 284 458 881 993 2630 4140
2026-02-22 17:30 2.48 274 6140 (1975) 63 (1964) 871 121 176 261 284 458 881 993 2630 4140
2026-02-22 16:30 2.49 277 6140 (1975) 63 (1964) 871 121 176 261 284 458 881 993 2630 4140
2026-02-22 15:30 2.47 271 6140 (1975) 63 (1964) 871 121 176 261 284 458 881 993 2630 4140
2026-02-22 14:30 2.48 274 6140 (1975) 63 (1964) 871 121 176 261 284 458 881 993 2630 4140
2026-02-22 13:30 2.46 269 6140 (1975) 63 (1964) 871 121 176 261 284 458 881 993 2630 4140
2026-02-22 12:30 2.46 269 6140 (1975) 63 (1964) 871 121 176 261 284 458 881 993 2630 4140
2026-02-22 11:30 2.46 269 6140 (1975) 63 (1964) 871 121 176 261 284 458 881 993 2630 4140
2026-02-22 10:30 2.45 266 6140 (1975) 63 (1964) 871 121 176 261 284 458 881 993 2630 4140
2026-02-22 09:30 2.45 266 6140 (1975) 63 (1964) 871 121 176 261 284 458 881 993 2630 4140
2026-02-22 08:30 2.48 274 6140 (1975) 63 (1964) 871 121 176 261 284 458 881 993 2630 4140
2026-02-22 07:30 2.49 277 6140 (1975) 63 (1964) 871 121 176 261 284 458 881 993 2630 4140
2026-02-22 06:30 2.49 277 6140 (1975) 63 (1964) 871 121 176 261 284 458 881 993 2630 4140
2026-02-22 05:30 2.49 277 6140 (1975) 63 (1964) 871 121 176 261 284 458 881 993 2630 4140
2026-02-22 04:30 2.49 277 6140 (1975) 63 (1964) 871 121 176 261 284 458 881 993 2630 4140
2026-02-22 03:30 2.50 279 6140 (1975) 63 (1964) 871 121 176 261 284 458 881 993 2630 4140
2026-02-22 02:30 2.50 279 6140 (1975) 63 (1964) 871 121 176 261 284 458 881 993 2630 4140
2026-02-22 01:30 2.50 279 6140 (1975) 63 (1964) 871 121 176 261 284 458 881 993 2630 4140
2026-02-22 00:30 2.51 282 6140 (1975) 63 (1964) 871 121 176 261 284 458 881 993 2630 4140
2026-02-21 23:30 2.51 282 6140 (1975) 63 (1964) 871 121 176 261 284 458 881 993 2630 4140
2026-02-21 22:30 2.52 285 15100 (1997) 63 (1964) 863 117 169 252 270 432 732 890 1280 2540
2026-02-21 21:30 2.52 285 15100 (1997) 63 (1964) 863 117 169 252 270 432 732 890 1280 2540
2026-02-21 20:30 2.52 285 15100 (1997) 63 (1964) 863 117 169 252 270 432 732 890 1280 2540
2026-02-21 19:30 2.52 285 15100 (1997) 63 (1964) 863 117 169 252 270 432 732 890 1280 2540
2026-02-21 18:30 2.52 285 15100 (1997) 63 (1964) 863 117 169 252 270 432 732 890 1280 2540
2026-02-21 17:30 2.51 282 15100 (1997) 63 (1964) 863 117 169 252 270 432 732 890 1280 2540
2026-02-21 16:30 2.51 282 15100 (1997) 63 (1964) 863 117 169 252 270 432 732 890 1280 2540
2026-02-21 15:30 2.51 282 15100 (1997) 63 (1964) 863 117 169 252 270 432 732 890 1280 2540
2026-02-21 14:30 2.50 279 15100 (1997) 63 (1964) 863 117 169 252 270 432 732 890 1280 2540
2026-02-21 13:30 2.52 285 15100 (1997) 63 (1964) 863 117 169 252 270 432 732 890 1280 2540
2026-02-21 12:30 2.51 282 15100 (1997) 63 (1964) 863 117 169 252 270 432 732 890 1280 2540
2026-02-21 11:30 2.51 282 15100 (1997) 63 (1964) 863 117 169 252 270 432 732 890 1280 2540
2026-02-21 10:30 2.52 285 15100 (1997) 63 (1964) 863 117 169 252 270 432 732 890 1280 2540
2026-02-21 09:30 2.52 285 15100 (1997) 63 (1964) 863 117 169 252 270 432 732 890 1280 2540
2026-02-21 08:30 2.52 285 15100 (1997) 63 (1964) 863 117 169 252 270 432 732 890 1280 2540
2026-02-21 07:30 2.52 285 15100 (1997) 63 (1964) 863 117 169 252 270 432 732 890 1280 2540
2026-02-21 06:30 2.52 285 15100 (1997) 63 (1964) 863 117 169 252 270 432 732 890 1280 2540
2026-02-21 05:30 2.52 285 15100 (1997) 63 (1964) 863 117 169 252 270 432 732 890 1280 2540
2026-02-21 04:30 2.52 285 15100 (1997) 63 (1964) 863 117 169 252 270 432 732 890 1280 2540
2026-02-21 03:30 2.52 285 15100 (1997) 63 (1964) 863 117 169 252 270 432 732 890 1280 2540
2026-02-21 02:30 2.53 287 15100 (1997) 63 (1964) 863 117 169 252 270 432 732 890 1280 2540
2026-02-21 01:30 2.53 287 15100 (1997) 63 (1964) 863 117 169 252 270 432 732 890 1280 2540
2026-02-21 00:30 2.52 285 15100 (1997) 63 (1964) 863 117 169 252 270 432 732 890 1280 2540
2026-02-20 23:30 2.53 287 15100 (1997) 63 (1964) 863 117 169 252 270 432 732 890 1280 2540
2026-02-20 22:30 2.54 290 1590 (2008) 64 (1964) 567 119 172 259 284 447 704 964 1150 1500
2026-02-20 21:30 2.54 290 1590 (2008) 64 (1964) 567 119 172 259 284 447 704 964 1150 1500
2026-02-20 20:30 2.54 290 1590 (2008) 64 (1964) 567 119 172 259 284 447 704 964 1150 1500
2026-02-20 19:30 2.54 290 1590 (2008) 64 (1964) 567 119 172 259 284 447 704 964 1150 1500
2026-02-20 18:30 2.54 290 1590 (2008) 64 (1964) 567 119 172 259 284 447 704 964 1150 1500
2026-02-20 17:30 2.54 290 1590 (2008) 64 (1964) 567 119 172 259 284 447 704 964 1150 1500
2026-02-20 16:30 2.54 290 1590 (2008) 64 (1964) 567 119 172 259 284 447 704 964 1150 1500
2026-02-20 15:30 2.54 290 1590 (2008) 64 (1964) 567 119 172 259 284 447 704 964 1150 1500
2026-02-20 14:30 2.54 290 1590 (2008) 64 (1964) 567 119 172 259 284 447 704 964 1150 1500
2026-02-20 13:30 2.54 290 1590 (2008) 64 (1964) 567 119 172 259 284 447 704 964 1150 1500
2026-02-20 12:30 2.54 290 1590 (2008) 64 (1964) 567 119 172 259 284 447 704 964 1150 1500
2026-02-20 11:30 2.54 290 1590 (2008) 64 (1964) 567 119 172 259 284 447 704 964 1150 1500
2026-02-20 10:30 2.55 293 1590 (2008) 64 (1964) 567 119 172 259 284 447 704 964 1150 1500
2026-02-20 09:30 2.55 293 1590 (2008) 64 (1964) 567 119 172 259 284 447 704 964 1150 1500
2026-02-20 08:30 2.56 295 1590 (2008) 64 (1964) 567 119 172 259 284 447 704 964 1150 1500
2026-02-20 07:30 2.56 295 1590 (2008) 64 (1964) 567 119 172 259 284 447 704 964 1150 1500
2026-02-20 06:30 2.57 298 1590 (2008) 64 (1964) 567 119 172 259 284 447 704 964 1150 1500
2026-02-20 05:30 2.57 298 1590 (2008) 64 (1964) 567 119 172 259 284 447 704 964 1150 1500
2026-02-20 04:30 2.57 298 1590 (2008) 64 (1964) 567 119 172 259 284 447 704 964 1150 1500
2026-02-20 03:30 2.57 298 1590 (2008) 64 (1964) 567 119 172 259 284 447 704 964 1150 1500
2026-02-20 02:30 2.58 301 1590 (2008) 64 (1964) 567 119 172 259 284 447 704 964 1150 1500
2026-02-20 01:30 2.58 301 1590 (2008) 64 (1964) 567 119 172 259 284 447 704 964 1150 1500
2026-02-20 00:30 2.59 304 1590 (2008) 64 (1964) 567 119 172 259 284 447 704 964 1150 1500
2026-02-19 23:30 2.59 304 1590 (2008) 64 (1964) 567 119 172 259 284 447 704 964 1150 1500
2026-02-19 22:30 2.59 304 2190 (2008) 64 (1964) 564 121 171 258 289 448 671 784 1180 1570
2026-02-19 21:30 2.60 307 2190 (2008) 64 (1964) 564 121 171 258 289 448 671 784 1180 1570
2026-02-19 20:30 2.58 301 2190 (2008) 64 (1964) 564 121 171 258 289 448 671 784 1180 1570
2026-02-19 19:30 2.55 293 2190 (2008) 64 (1964) 564 121 171 258 289 448 671 784 1180 1570
2026-02-19 18:30 2.57 298 2190 (2008) 64 (1964) 564 121 171 258 289 448 671 784 1180 1570
2026-02-19 17:30 2.57 298 2190 (2008) 64 (1964) 564 121 171 258 289 448 671 784 1180 1570
2026-02-19 16:30 2.57 298 2190 (2008) 64 (1964) 564 121 171 258 289 448 671 784 1180 1570
2026-02-19 15:30 2.57 298 2190 (2008) 64 (1964) 564 121 171 258 289 448 671 784 1180 1570
2026-02-19 14:30 2.57 298 2190 (2008) 64 (1964) 564 121 171 258 289 448 671 784 1180 1570
2026-02-19 13:30 2.59 304 2190 (2008) 64 (1964) 564 121 171 258 289 448 671 784 1180 1570
2026-02-19 12:30 2.57 298 2190 (2008) 64 (1964) 564 121 171 258 289 448 671 784 1180 1570
2026-02-19 11:30 2.58 301 2190 (2008) 64 (1964) 564 121 171 258 289 448 671 784 1180 1570
2026-02-19 10:30 2.59 304 2190 (2008) 64 (1964) 564 121 171 258 289 448 671 784 1180 1570
2026-02-19 09:30 2.57 298 2190 (2008) 64 (1964) 564 121 171 258 289 448 671 784 1180 1570
2026-02-19 08:30 2.57 298 2190 (2008) 64 (1964) 564 121 171 258 289 448 671 784 1180 1570
2026-02-19 07:30 2.57 298 2190 (2008) 64 (1964) 564 121 171 258 289 448 671 784 1180 1570
2026-02-19 06:30 2.59 304 2190 (2008) 64 (1964) 564 121 171 258 289 448 671 784 1180 1570
2026-02-19 05:30 2.59 304 2190 (2008) 64 (1964) 564 121 171 258 289 448 671 784 1180 1570
2026-02-19 04:30 2.63 315 2190 (2008) 64 (1964) 564 121 171 258 289 448 671 784 1180 1570
2026-02-19 03:30 2.63 315 2190 (2008) 64 (1964) 564 121 171 258 289 448 671 784 1180 1570
2026-02-19 02:30 2.63 315 2190 (2008) 64 (1964) 564 121 171 258 289 448 671 784 1180 1570
2026-02-19 01:30 2.63 315 2190 (2008) 64 (1964) 564 121 171 258 289 448 671 784 1180 1570
2026-02-19 00:30 2.64 318 2190 (2008) 64 (1964) 564 121 171 258 289 448 671 784 1180 1570
2026-02-18 23:30 2.64 318 2190 (2008) 64 (1964) 564 121 171 258 289 448 671 784 1180 1570
2026-02-18 22:30 2.64 318 4290 (2008) 65 (1964) 655 119 184 252 282 451 740 784 1480 2150
2026-02-18 21:30 2.65 321 4290 (2008) 65 (1964) 655 119 184 252 282 451 740 784 1480 2150
2026-02-18 20:30 2.64 318 4290 (2008) 65 (1964) 655 119 184 252 282 451 740 784 1480 2150
2026-02-18 19:30 2.65 321 4290 (2008) 65 (1964) 655 119 184 252 282 451 740 784 1480 2150
2026-02-18 18:30 2.65 321 4290 (2008) 65 (1964) 655 119 184 252 282 451 740 784 1480 2150
2026-02-18 17:30 2.65 321 4290 (2008) 65 (1964) 655 119 184 252 282 451 740 784 1480 2150
2026-02-18 16:30 2.65 321 4290 (2008) 65 (1964) 655 119 184 252 282 451 740 784 1480 2150
2026-02-18 15:30 2.65 321 4290 (2008) 65 (1964) 655 119 184 252 282 451 740 784 1480 2150
2026-02-18 14:30 2.62 312 4290 (2008) 65 (1964) 655 119 184 252 282 451 740 784 1480 2150
2026-02-18 13:30 2.65 321 4290 (2008) 65 (1964) 655 119 184 252 282 451 740 784 1480 2150
2026-02-18 12:30 2.65 321 4290 (2008) 65 (1964) 655 119 184 252 282 451 740 784 1480 2150
2026-02-18 11:30 2.66 324 4290 (2008) 65 (1964) 655 119 184 252 282 451 740 784 1480 2150
2026-02-18 10:30 2.66 324 4290 (2008) 65 (1964) 655 119 184 252 282 451 740 784 1480 2150
2026-02-18 09:30 2.66 324 4290 (2008) 65 (1964) 655 119 184 252 282 451 740 784 1480 2150
2026-02-18 08:30 2.66 324 4290 (2008) 65 (1964) 655 119 184 252 282 451 740 784 1480 2150
2026-02-18 07:30 2.66 324 4290 (2008) 65 (1964) 655 119 184 252 282 451 740 784 1480 2150
2026-02-18 06:30 2.67 327 4290 (2008) 65 (1964) 655 119 184 252 282 451 740 784 1480 2150
2026-02-18 05:30 2.66 324 4290 (2008) 65 (1964) 655 119 184 252 282 451 740 784 1480 2150
2026-02-18 04:30 2.66 324 4290 (2008) 65 (1964) 655 119 184 252 282 451 740 784 1480 2150
2026-02-18 03:30 2.67 327 4290 (2008) 65 (1964) 655 119 184 252 282 451 740 784 1480 2150
2026-02-18 02:30 2.67 327 4290 (2008) 65 (1964) 655 119 184 252 282 451 740 784 1480 2150
2026-02-18 01:30 2.68 330 4290 (2008) 65 (1964) 655 119 184 252 282 451 740 784 1480 2150
2026-02-18 00:30 2.69 332 4290 (2008) 65 (1964) 655 119 184 252 282 451 740 784 1480 2150
2026-02-17 23:30 2.67 327 4290 (2008) 65 (1964) 655 119 184 252 282 451 740 784 1480 2150
2026-02-17 22:30 2.67 327 7490 (2008) 74 (1964) 781 110 187 255 272 465 804 852 1910 3030
2026-02-17 21:30 2.65 321 7490 (2008) 74 (1964) 781 110 187 255 272 465 804 852 1910 3030
2026-02-17 20:30 2.65 321 7490 (2008) 74 (1964) 781 110 187 255 272 465 804 852 1910 3030
2026-02-17 19:30 2.69 332 7490 (2008) 74 (1964) 781 110 187 255 272 465 804 852 1910 3030
2026-02-17 18:30 2.68 330 7490 (2008) 74 (1964) 781 110 187 255 272 465 804 852 1910 3030
2026-02-17 17:30 2.65 321 7490 (2008) 74 (1964) 781 110 187 255 272 465 804 852 1910 3030
2026-02-17 16:30 2.61 309 7490 (2008) 74 (1964) 781 110 187 255 272 465 804 852 1910 3030
2026-02-17 15:30 2.55 293 7490 (2008) 74 (1964) 781 110 187 255 272 465 804 852 1910 3030
2026-02-17 14:30 2.42 258 7490 (2008) 74 (1964) 781 110 187 255 272 465 804 852 1910 3030
2026-02-17 13:30 2.22 211 7490 (2008) 74 (1964) 781 110 187 255 272 465 804 852 1910 3030
2026-02-17 12:30 1.99 163 7490 (2008) 74 (1964) 781 110 187 255 272 465 804 852 1910 3030
2026-02-17 11:30 1.96 157 7490 (2008) 74 (1964) 781 110 187 255 272 465 804 852 1910 3030
2026-02-17 10:30 2.51 282 7490 (2008) 74 (1964) 781 110 187 255 272 465 804 852 1910 3030
2026-02-17 09:30 3.26 528 7490 (2008) 74 (1964) 781 110 187 255 272 465 804 852 1910 3030
2026-02-17 08:30 2.96 418 7490 (2008) 74 (1964) 781 110 187 255 272 465 804 852 1910 3030
2026-02-17 07:30 2.73 344 7490 (2008) 74 (1964) 781 110 187 255 272 465 804 852 1910 3030
2026-02-17 06:30 2.73 344 7490 (2008) 74 (1964) 781 110 187 255 272 465 804 852 1910 3030
2026-02-17 05:30 2.72 341 7490 (2008) 74 (1964) 781 110 187 255 272 465 804 852 1910 3030
2026-02-17 04:30 2.71 338 7490 (2008) 74 (1964) 781 110 187 255 272 465 804 852 1910 3030
2026-02-17 03:30 2.70 335 7490 (2008) 74 (1964) 781 110 187 255 272 465 804 852 1910 3030
2026-02-17 02:30 2.70 335 7490 (2008) 74 (1964) 781 110 187 255 272 465 804 852 1910 3030
2026-02-17 01:30 2.75 350 7490 (2008) 74 (1964) 781 110 187 255 272 465 804 852 1910 3030
2026-02-17 00:30 2.78 360 7490 (2008) 74 (1964) 781 110 187 255 272 465 804 852 1910 3030
2026-02-16 23:30 2.78 360 7490 (2008) 74 (1964) 781 110 187 255 272 465 804 852 1910 3030
2026-02-16 22:30 2.79 363 6300 (1990) 71 (1964) 793 115 181 236 308 459 759 857 1410 3870
2026-02-16 21:30 2.80 366 6300 (1990) 71 (1964) 793 115 181 236 308 459 759 857 1410 3870
2026-02-16 20:30 2.81 369 6300 (1990) 71 (1964) 793 115 181 236 308 459 759 857 1410 3870
2026-02-16 19:30 2.81 369 6300 (1990) 71 (1964) 793 115 181 236 308 459 759 857 1410 3870
2026-02-16 18:30 2.81 369 6300 (1990) 71 (1964) 793 115 181 236 308 459 759 857 1410 3870
2026-02-16 17:30 2.82 372 6300 (1990) 71 (1964) 793 115 181 236 308 459 759 857 1410 3870
2026-02-16 16:30 2.78 360 6300 (1990) 71 (1964) 793 115 181 236 308 459 759 857 1410 3870
2026-02-16 15:30 2.79 363 6300 (1990) 71 (1964) 793 115 181 236 308 459 759 857 1410 3870
2026-02-16 14:30 2.80 366 6300 (1990) 71 (1964) 793 115 181 236 308 459 759 857 1410 3870
2026-02-16 13:30 2.81 369 6300 (1990) 71 (1964) 793 115 181 236 308 459 759 857 1410 3870
2026-02-16 12:30 2.84 379 6300 (1990) 71 (1964) 793 115 181 236 308 459 759 857 1410 3870
2026-02-16 11:30 2.80 366 6300 (1990) 71 (1964) 793 115 181 236 308 459 759 857 1410 3870
2026-02-16 10:30 2.83 375 6300 (1990) 71 (1964) 793 115 181 236 308 459 759 857 1410 3870
2026-02-16 09:30 2.86 385 6300 (1990) 71 (1964) 793 115 181 236 308 459 759 857 1410 3870
2026-02-16 08:30 2.87 388 6300 (1990) 71 (1964) 793 115 181 236 308 459 759 857 1410 3870
2026-02-16 07:30 2.88 392 6300 (1990) 71 (1964) 793 115 181 236 308 459 759 857 1410 3870
2026-02-16 06:30 2.88 392 6300 (1990) 71 (1964) 793 115 181 236 308 459 759 857 1410 3870
2026-02-16 05:30 2.89 395 6300 (1990) 71 (1964) 793 115 181 236 308 459 759 857 1410 3870
2026-02-16 04:30 2.90 398 6300 (1990) 71 (1964) 793 115 181 236 308 459 759 857 1410 3870
2026-02-16 03:30 2.91 401 6300 (1990) 71 (1964) 793 115 181 236 308 459 759 857 1410 3870
2026-02-16 02:30 2.93 408 6300 (1990) 71 (1964) 793 115 181 236 308 459 759 857 1410 3870
2026-02-16 01:30 2.94 411 6300 (1990) 71 (1964) 793 115 181 236 308 459 759 857 1410 3870
2026-02-16 00:30 2.96 418 6300 (1990) 71 (1964) 793 115 181 236 308 459 759 857 1410 3870
2026-02-15 23:30 2.98 425 6300 (1990) 71 (1964) 793 115 181 236 308 459 759 857 1410 3870
2026-02-15 22:30 3.01 435 6730 (1989) 71 (1964) 783 119 175 236 319 463 749 828 1380 3150
2026-02-15 21:30 3.00 432 6730 (1989) 71 (1964) 783 119 175 236 319 463 749 828 1380 3150
2026-02-15 20:30 2.98 425 6730 (1989) 71 (1964) 783 119 175 236 319 463 749 828 1380 3150
2026-02-15 19:30 2.98 425 6730 (1989) 71 (1964) 783 119 175 236 319 463 749 828 1380 3150
2026-02-15 18:30 2.97 422 6730 (1989) 71 (1964) 783 119 175 236 319 463 749 828 1380 3150
2026-02-15 17:30 2.99 428 6730 (1989) 71 (1964) 783 119 175 236 319 463 749 828 1380 3150
2026-02-15 16:30 3.02 439 6730 (1989) 71 (1964) 783 119 175 236 319 463 749 828 1380 3150
2026-02-15 15:30 3.02 439 6730 (1989) 71 (1964) 783 119 175 236 319 463 749 828 1380 3150
2026-02-15 14:30 3.04 446 6730 (1989) 71 (1964) 783 119 175 236 319 463 749 828 1380 3150
2026-02-15 13:30 3.04 446 6730 (1989) 71 (1964) 783 119 175 236 319 463 749 828 1380 3150
2026-02-15 12:30 2.90 398 6730 (1989) 71 (1964) 783 119 175 236 319 463 749 828 1380 3150
2026-02-15 11:30 2.72 341 6730 (1989) 71 (1964) 783 119 175 236 319 463 749 828 1380 3150
2026-02-15 10:30 2.63 315 6730 (1989) 71 (1964) 783 119 175 236 319 463 749 828 1380 3150
2026-02-15 09:30 2.57 298 6730 (1989) 71 (1964) 783 119 175 236 319 463 749 828 1380 3150
2026-02-15 08:30 2.54 290 6730 (1989) 71 (1964) 783 119 175 236 319 463 749 828 1380 3150
2026-02-15 07:30 2.52 285 6730 (1989) 71 (1964) 783 119 175 236 319 463 749 828 1380 3150
2026-02-15 06:30 2.51 282 6730 (1989) 71 (1964) 783 119 175 236 319 463 749 828 1380 3150
2026-02-15 05:30 2.51 282 6730 (1989) 71 (1964) 783 119 175 236 319 463 749 828 1380 3150
2026-02-15 04:30 2.50 279 6730 (1989) 71 (1964) 783 119 175 236 319 463 749 828 1380 3150
2026-02-15 03:30 2.50 279 6730 (1989) 71 (1964) 783 119 175 236 319 463 749 828 1380 3150
2026-02-15 02:30 2.48 274 6730 (1989) 71 (1964) 783 119 175 236 319 463 749 828 1380 3150
2026-02-15 01:30 2.48 274 6730 (1989) 71 (1964) 783 119 175 236 319 463 749 828 1380 3150
2026-02-15 00:30 2.48 274 6730 (1989) 71 (1964) 783 119 175 236 319 463 749 828 1380 3150
2026-02-14 23:30 2.48 274 6730 (1989) 71 (1964) 783 119 175 236 319 463 749 828 1380 3150
2026-02-14 22:30 2.47 271 6410 (1989) 78 (1964) 682 118 171 245 310 475 665 844 1360 2190
2026-02-14 21:30 2.45 266 6410 (1989) 78 (1964) 682 118 171 245 310 475 665 844 1360 2190
2026-02-14 20:30 2.43 261 6410 (1989) 78 (1964) 682 118 171 245 310 475 665 844 1360 2190
2026-02-14 19:30 2.41 256 6410 (1989) 78 (1964) 682 118 171 245 310 475 665 844 1360 2190
2026-02-14 18:30 2.39 251 6410 (1989) 78 (1964) 682 118 171 245 310 475 665 844 1360 2190
2026-02-14 17:30 2.38 248 6410 (1989) 78 (1964) 682 118 171 245 310 475 665 844 1360 2190
2026-02-14 16:30 2.45 266 6410 (1989) 78 (1964) 682 118 171 245 310 475 665 844 1360 2190
2026-02-14 15:30 2.46 269 6410 (1989) 78 (1964) 682 118 171 245 310 475 665 844 1360 2190
2026-02-14 14:30 2.46 269 6410 (1989) 78 (1964) 682 118 171 245 310 475 665 844 1360 2190
2026-02-14 13:30 2.45 266 6410 (1989) 78 (1964) 682 118 171 245 310 475 665 844 1360 2190
2026-02-14 12:30 2.42 258 6410 (1989) 78 (1964) 682 118 171 245 310 475 665 844 1360 2190
2026-02-14 11:30 2.41 256 6410 (1989) 78 (1964) 682 118 171 245 310 475 665 844 1360 2190
2026-02-14 10:30 2.40 253 6410 (1989) 78 (1964) 682 118 171 245 310 475 665 844 1360 2190
2026-02-14 09:30 2.42 258 6410 (1989) 78 (1964) 682 118 171 245 310 475 665 844 1360 2190
2026-02-14 08:30 2.39 251 6410 (1989) 78 (1964) 682 118 171 245 310 475 665 844 1360 2190
2026-02-14 07:30 2.42 258 6410 (1989) 78 (1964) 682 118 171 245 310 475 665 844 1360 2190
2026-02-14 06:30 2.42 258 6410 (1989) 78 (1964) 682 118 171 245 310 475 665 844 1360 2190
2026-02-14 05:30 2.42 258 6410 (1989) 78 (1964) 682 118 171 245 310 475 665 844 1360 2190
2026-02-14 04:30 2.42 258 6410 (1989) 78 (1964) 682 118 171 245 310 475 665 844 1360 2190
2026-02-14 03:30 2.42 258 6410 (1989) 78 (1964) 682 118 171 245 310 475 665 844 1360 2190
2026-02-14 02:30 2.43 261 6410 (1989) 78 (1964) 682 118 171 245 310 475 665 844 1360 2190
2026-02-14 01:30 2.43 261 6410 (1989) 78 (1964) 682 118 171 245 310 475 665 844 1360 2190
2026-02-14 00:30 2.43 261 6410 (1989) 78 (1964) 682 118 171 245 310 475 665 844 1360 2190
2026-02-13 23:30 2.43 261 6410 (1989) 78 (1964) 682 118 171 245 310 475 665 844 1360 2190
2026-02-13 22:30 2.43 261 3320 (2020) 63 (1964) 652 115 158 246 296 492 665 889 1380 2250
2026-02-13 21:30 2.42 258 3320 (2020) 63 (1964) 652 115 158 246 296 492 665 889 1380 2250
2026-02-13 20:30 2.40 253 3320 (2020) 63 (1964) 652 115 158 246 296 492 665 889 1380 2250
2026-02-13 19:30 2.39 251 3320 (2020) 63 (1964) 652 115 158 246 296 492 665 889 1380 2250
2026-02-13 18:30 2.36 244 3320 (2020) 63 (1964) 652 115 158 246 296 492 665 889 1380 2250
2026-02-13 17:30 2.37 246 3320 (2020) 63 (1964) 652 115 158 246 296 492 665 889 1380 2250
2026-02-13 16:30 2.42 258 3320 (2020) 63 (1964) 652 115 158 246 296 492 665 889 1380 2250
2026-02-13 15:30 2.45 266 3320 (2020) 63 (1964) 652 115 158 246 296 492 665 889 1380 2250
2026-02-13 14:30 2.46 269 3320 (2020) 63 (1964) 652 115 158 246 296 492 665 889 1380 2250
2026-02-13 13:30 2.47 271 3320 (2020) 63 (1964) 652 115 158 246 296 492 665 889 1380 2250
2026-02-13 12:30 2.47 271 3320 (2020) 63 (1964) 652 115 158 246 296 492 665 889 1380 2250
2026-02-13 11:30 2.43 261 3320 (2020) 63 (1964) 652 115 158 246 296 492 665 889 1380 2250
2026-02-13 10:30 2.43 261 3320 (2020) 63 (1964) 652 115 158 246 296 492 665 889 1380 2250
2026-02-13 09:30 2.43 261 3320 (2020) 63 (1964) 652 115 158 246 296 492 665 889 1380 2250
2026-02-13 08:30 2.43 261 3320 (2020) 63 (1964) 652 115 158 246 296 492 665 889 1380 2250
2026-02-13 07:30 2.43 261 3320 (2020) 63 (1964) 652 115 158 246 296 492 665 889 1380 2250
2026-02-13 06:30 2.43 261 3320 (2020) 63 (1964) 652 115 158 246 296 492 665 889 1380 2250
2026-02-13 05:30 2.43 261 3320 (2020) 63 (1964) 652 115 158 246 296 492 665 889 1380 2250
2026-02-13 04:30 2.44 264 3320 (2020) 63 (1964) 652 115 158 246 296 492 665 889 1380 2250
2026-02-13 03:30 2.44 264 3320 (2020) 63 (1964) 652 115 158 246 296 492 665 889 1380 2250
2026-02-13 02:30 2.44 264 3320 (2020) 63 (1964) 652 115 158 246 296 492 665 889 1380 2250
2026-02-13 01:30 2.44 264 3320 (2020) 63 (1964) 652 115 158 246 296 492 665 889 1380 2250
2026-02-13 00:30 2.44 264 3320 (2020) 63 (1964) 652 115 158 246 296 492 665 889 1380 2250
2026-02-12 23:30 2.44 264 3320 (2020) 63 (1964) 652 115 158 246 296 492 665 889 1380 2250
2026-02-12 22:30 2.44 264 3240 (2009) 89 (1964) 605 121 165 236 251 465 703 746 1320 1970
2026-02-12 21:30 2.44 264 3240 (2009) 89 (1964) 605 121 165 236 251 465 703 746 1320 1970
2026-02-12 20:30 2.45 266 3240 (2009) 89 (1964) 605 121 165 236 251 465 703 746 1320 1970
2026-02-12 19:30 2.44 264 3240 (2009) 89 (1964) 605 121 165 236 251 465 703 746 1320 1970
2026-02-12 18:30 2.44 264 3240 (2009) 89 (1964) 605 121 165 236 251 465 703 746 1320 1970
2026-02-12 17:30 2.44 264 3240 (2009) 89 (1964) 605 121 165 236 251 465 703 746 1320 1970
2026-02-12 16:30 2.44 264 3240 (2009) 89 (1964) 605 121 165 236 251 465 703 746 1320 1970
2026-02-12 15:30 2.44 264 3240 (2009) 89 (1964) 605 121 165 236 251 465 703 746 1320 1970
2026-02-12 14:30 2.44 264 3240 (2009) 89 (1964) 605 121 165 236 251 465 703 746 1320 1970
2026-02-12 13:30 2.44 264 3240 (2009) 89 (1964) 605 121 165 236 251 465 703 746 1320 1970
2026-02-12 12:30 2.40 253 3240 (2009) 89 (1964) 605 121 165 236 251 465 703 746 1320 1970
2026-02-12 11:30 2.43 261 3240 (2009) 89 (1964) 605 121 165 236 251 465 703 746 1320 1970
2026-02-12 10:30 2.43 261 3240 (2009) 89 (1964) 605 121 165 236 251 465 703 746 1320 1970
2026-02-12 09:30 2.42 258 3240 (2009) 89 (1964) 605 121 165 236 251 465 703 746 1320 1970
2026-02-12 08:30 2.45 266 3240 (2009) 89 (1964) 605 121 165 236 251 465 703 746 1320 1970
2026-02-12 07:30 2.45 266 3240 (2009) 89 (1964) 605 121 165 236 251 465 703 746 1320 1970
2026-02-12 06:30 2.45 266 3240 (2009) 89 (1964) 605 121 165 236 251 465 703 746 1320 1970
2026-02-12 05:30 2.45 266 3240 (2009) 89 (1964) 605 121 165 236 251 465 703 746 1320 1970
2026-02-12 04:30 2.45 266 3240 (2009) 89 (1964) 605 121 165 236 251 465 703 746 1320 1970
2026-02-12 03:30 2.46 269 3240 (2009) 89 (1964) 605 121 165 236 251 465 703 746 1320 1970
2026-02-12 02:30 2.46 269 3240 (2009) 89 (1964) 605 121 165 236 251 465 703 746 1320 1970
2026-02-12 01:30 2.46 269 3240 (2009) 89 (1964) 605 121 165 236 251 465 703 746 1320 1970
2026-02-12 00:30 2.46 269 3240 (2009) 89 (1964) 605 121 165 236 251 465 703 746 1320 1970
2026-02-11 23:30 2.46 269 3240 (2009) 89 (1964) 605 121 165 236 251 465 703 746 1320 1970
2026-02-11 22:30 2.46 269 3700 (2009) 98 (1964) 608 121 157 206 251 465 686 810 1140 1830
2026-02-11 21:30 2.47 271 3700 (2009) 98 (1964) 608 121 157 206 251 465 686 810 1140 1830
2026-02-11 20:30 2.47 271 3700 (2009) 98 (1964) 608 121 157 206 251 465 686 810 1140 1830
2026-02-11 19:30 2.47 271 3700 (2009) 98 (1964) 608 121 157 206 251 465 686 810 1140 1830
2026-02-11 18:30 2.48 274 3700 (2009) 98 (1964) 608 121 157 206 251 465 686 810 1140 1830
2026-02-11 17:30 2.48 274 3700 (2009) 98 (1964) 608 121 157 206 251 465 686 810 1140 1830
2026-02-11 16:30 2.48 274 3700 (2009) 98 (1964) 608 121 157 206 251 465 686 810 1140 1830
2026-02-11 15:30 2.50 279 3700 (2009) 98 (1964) 608 121 157 206 251 465 686 810 1140 1830
2026-02-11 14:30 2.51 282 3700 (2009) 98 (1964) 608 121 157 206 251 465 686 810 1140 1830
2026-02-11 13:30 2.51 282 3700 (2009) 98 (1964) 608 121 157 206 251 465 686 810 1140 1830
2026-02-11 12:30 2.44 264 3700 (2009) 98 (1964) 608 121 157 206 251 465 686 810 1140 1830
2026-02-11 11:30 2.36 244 3700 (2009) 98 (1964) 608 121 157 206 251 465 686 810 1140 1830
2026-02-11 10:30 2.35 241 3700 (2009) 98 (1964) 608 121 157 206 251 465 686 810 1140 1830
2026-02-11 09:30 2.36 244 3700 (2009) 98 (1964) 608 121 157 206 251 465 686 810 1140 1830
2026-02-11 08:30 2.44 264 3700 (2009) 98 (1964) 608 121 157 206 251 465 686 810 1140 1830
2026-02-11 07:30 2.47 271 3700 (2009) 98 (1964) 608 121 157 206 251 465 686 810 1140 1830
2026-02-11 06:30 2.47 271 3700 (2009) 98 (1964) 608 121 157 206 251 465 686 810 1140 1830
2026-02-11 05:30 2.47 271 3700 (2009) 98 (1964) 608 121 157 206 251 465 686 810 1140 1830
2026-02-11 04:30 2.47 271 3700 (2009) 98 (1964) 608 121 157 206 251 465 686 810 1140 1830
2026-02-11 03:30 2.47 271 3700 (2009) 98 (1964) 608 121 157 206 251 465 686 810 1140 1830
2026-02-11 02:30 2.48 274 3700 (2009) 98 (1964) 608 121 157 206 251 465 686 810 1140 1830
2026-02-11 01:30 2.48 274 3700 (2009) 98 (1964) 608 121 157 206 251 465 686 810 1140 1830
2026-02-11 00:30 2.48 274 3700 (2009) 98 (1964) 608 121 157 206 251 465 686 810 1140 1830
2026-02-10 23:30 2.48 274 3700 (2009) 98 (1964) 608 121 157 206 251 465 686 810 1140 1830
2026-02-10 22:30 2.48 274 14000 (1966) 80 (1964) 744 125 156 197 228 461 713 863 1140 1800
2026-02-10 21:30 2.48 274 14000 (1966) 80 (1964) 744 125 156 197 228 461 713 863 1140 1800
2026-02-10 20:30 2.48 274 14000 (1966) 80 (1964) 744 125 156 197 228 461 713 863 1140 1800
2026-02-10 19:30 2.49 277 14000 (1966) 80 (1964) 744 125 156 197 228 461 713 863 1140 1800
2026-02-10 18:30 2.50 279 14000 (1966) 80 (1964) 744 125 156 197 228 461 713 863 1140 1800
2026-02-10 17:30 2.51 282 14000 (1966) 80 (1964) 744 125 156 197 228 461 713 863 1140 1800
2026-02-10 16:30 2.52 285 14000 (1966) 80 (1964) 744 125 156 197 228 461 713 863 1140 1800
2026-02-10 15:30 2.55 293 14000 (1966) 80 (1964) 744 125 156 197 228 461 713 863 1140 1800
2026-02-10 14:30 2.58 301 14000 (1966) 80 (1964) 744 125 156 197 228 461 713 863 1140 1800
2026-02-10 13:30 2.58 301 14000 (1966) 80 (1964) 744 125 156 197 228 461 713 863 1140 1800
2026-02-10 12:30 2.54 290 14000 (1966) 80 (1964) 744 125 156 197 228 461 713 863 1140 1800
2026-02-10 11:30 2.47 271 14000 (1966) 80 (1964) 744 125 156 197 228 461 713 863 1140 1800
2026-02-10 10:30 2.46 269 14000 (1966) 80 (1964) 744 125 156 197 228 461 713 863 1140 1800
2026-02-10 09:30 2.44 264 14000 (1966) 80 (1964) 744 125 156 197 228 461 713 863 1140 1800
2026-02-10 08:30 2.46 269 14000 (1966) 80 (1964) 744 125 156 197 228 461 713 863 1140 1800
2026-02-10 07:30 2.47 271 14000 (1966) 80 (1964) 744 125 156 197 228 461 713 863 1140 1800
2026-02-10 06:30 2.46 269 14000 (1966) 80 (1964) 744 125 156 197 228 461 713 863 1140 1800
2026-02-10 05:30 2.46 269 14000 (1966) 80 (1964) 744 125 156 197 228 461 713 863 1140 1800
2026-02-10 04:30 2.46 269 14000 (1966) 80 (1964) 744 125 156 197 228 461 713 863 1140 1800
2026-02-10 03:30 2.47 271 14000 (1966) 80 (1964) 744 125 156 197 228 461 713 863 1140 1800
2026-02-10 02:30 2.46 269 14000 (1966) 80 (1964) 744 125 156 197 228 461 713 863 1140 1800
2026-02-10 01:30 2.47 271 14000 (1966) 80 (1964) 744 125 156 197 228 461 713 863 1140 1800
2026-02-10 00:30 2.47 271 14000 (1966) 80 (1964) 744 125 156 197 228 461 713 863 1140 1800
2026-02-09 23:30 2.46 269 14000 (1966) 80 (1964) 744 125 156 197 228 461 713 863 1140 1800
2026-02-09 22:30 2.46 269 8230 (1966) 39 (1965) 723 112 145 193 209 442 698 842 1200 2420
2026-02-09 21:30 2.46 269 8230 (1966) 39 (1965) 723 112 145 193 209 442 698 842 1200 2420
2026-02-09 20:30 2.45 266 8230 (1966) 39 (1965) 723 112 145 193 209 442 698 842 1200 2420
2026-02-09 19:30 2.44 264 8230 (1966) 39 (1965) 723 112 145 193 209 442 698 842 1200 2420
2026-02-09 18:30 2.45 266 8230 (1966) 39 (1965) 723 112 145 193 209 442 698 842 1200 2420
2026-02-09 17:30 2.50 279 8230 (1966) 39 (1965) 723 112 145 193 209 442 698 842 1200 2420
2026-02-09 16:30 2.54 290 8230 (1966) 39 (1965) 723 112 145 193 209 442 698 842 1200 2420
2026-02-09 15:30 2.51 282 8230 (1966) 39 (1965) 723 112 145 193 209 442 698 842 1200 2420
2026-02-09 14:30 2.47 271 8230 (1966) 39 (1965) 723 112 145 193 209 442 698 842 1200 2420
2026-02-09 13:30 2.47 271 8230 (1966) 39 (1965) 723 112 145 193 209 442 698 842 1200 2420
2026-02-09 12:30 2.47 271 8230 (1966) 39 (1965) 723 112 145 193 209 442 698 842 1200 2420
2026-02-09 11:30 2.47 271 8230 (1966) 39 (1965) 723 112 145 193 209 442 698 842 1200 2420
2026-02-09 10:30 2.47 271 8230 (1966) 39 (1965) 723 112 145 193 209 442 698 842 1200 2420
2026-02-09 09:30 2.48 274 8230 (1966) 39 (1965) 723 112 145 193 209 442 698 842 1200 2420
2026-02-09 08:30 2.48 274 8230 (1966) 39 (1965) 723 112 145 193 209 442 698 842 1200 2420
2026-02-09 07:30 2.49 277 8230 (1966) 39 (1965) 723 112 145 193 209 442 698 842 1200 2420
2026-02-09 06:30 2.49 277 8230 (1966) 39 (1965) 723 112 145 193 209 442 698 842 1200 2420
2026-02-09 05:30 2.49 277 8230 (1966) 39 (1965) 723 112 145 193 209 442 698 842 1200 2420
2026-02-09 04:30 2.49 277 8230 (1966) 39 (1965) 723 112 145 193 209 442 698 842 1200 2420
2026-02-09 03:30 2.50 279 8230 (1966) 39 (1965) 723 112 145 193 209 442 698 842 1200 2420
2026-02-09 02:30 2.50 279 8230 (1966) 39 (1965) 723 112 145 193 209 442 698 842 1200 2420
2026-02-09 01:30 2.50 279 8230 (1966) 39 (1965) 723 112 145 193 209 442 698 842 1200 2420
2026-02-09 00:30 2.50 279 8230 (1966) 39 (1965) 723 112 145 193 209 442 698 842 1200 2420
2026-02-08 23:30 2.51 282 8230 (1966) 39 (1965) 723 112 145 193 209 442 698 842 1200 2420
2026-02-08 22:30 2.51 282 7920 (1973) 35 (1965) 671 118 148 183 207 455 692 793 1360 1990
2026-02-08 21:30 2.52 285 7920 (1973) 35 (1965) 671 118 148 183 207 455 692 793 1360 1990
2026-02-08 20:30 2.53 287 7920 (1973) 35 (1965) 671 118 148 183 207 455 692 793 1360 1990
2026-02-08 19:30 2.53 287 7920 (1973) 35 (1965) 671 118 148 183 207 455 692 793 1360 1990
2026-02-08 18:30 2.53 287 7920 (1973) 35 (1965) 671 118 148 183 207 455 692 793 1360 1990
2026-02-08 17:30 2.53 287 7920 (1973) 35 (1965) 671 118 148 183 207 455 692 793 1360 1990
2026-02-08 16:30 2.53 287 7920 (1973) 35 (1965) 671 118 148 183 207 455 692 793 1360 1990
2026-02-08 15:30 2.53 287 7920 (1973) 35 (1965) 671 118 148 183 207 455 692 793 1360 1990
2026-02-08 14:30 2.53 287 7920 (1973) 35 (1965) 671 118 148 183 207 455 692 793 1360 1990
2026-02-08 13:30 2.53 287 7920 (1973) 35 (1965) 671 118 148 183 207 455 692 793 1360 1990
2026-02-08 12:30 2.52 285 7920 (1973) 35 (1965) 671 118 148 183 207 455 692 793 1360 1990
2026-02-08 11:30 2.53 287 7920 (1973) 35 (1965) 671 118 148 183 207 455 692 793 1360 1990
2026-02-08 10:30 2.52 285 7920 (1973) 35 (1965) 671 118 148 183 207 455 692 793 1360 1990
2026-02-08 09:30 2.52 285 7920 (1973) 35 (1965) 671 118 148 183 207 455 692 793 1360 1990
2026-02-08 08:30 2.52 285 7920 (1973) 35 (1965) 671 118 148 183 207 455 692 793 1360 1990
2026-02-08 07:30 2.51 282 7920 (1973) 35 (1965) 671 118 148 183 207 455 692 793 1360 1990
2026-02-08 06:30 2.51 282 7920 (1973) 35 (1965) 671 118 148 183 207 455 692 793 1360 1990
2026-02-08 05:30 2.51 282 7920 (1973) 35 (1965) 671 118 148 183 207 455 692 793 1360 1990
2026-02-08 04:30 2.51 282 7920 (1973) 35 (1965) 671 118 148 183 207 455 692 793 1360 1990
2026-02-08 03:30 2.52 285 7920 (1973) 35 (1965) 671 118 148 183 207 455 692 793 1360 1990
2026-02-08 02:30 2.52 285 7920 (1973) 35 (1965) 671 118 148 183 207 455 692 793 1360 1990
2026-02-08 01:30 2.52 285 7920 (1973) 35 (1965) 671 118 148 183 207 455 692 793 1360 1990
2026-02-08 00:30 2.52 285 7920 (1973) 35 (1965) 671 118 148 183 207 455 692 793 1360 1990
2026-02-07 23:30 2.52 285 7920 (1973) 35 (1965) 671 118 148 183 207 455 692 793 1360 1990

A total of 2200 rows are displayed for years 1956 through 2025.